     2              OBSERVATION DATA    GPS                 RINEX VERSION / TYPE
teqc 2000Feb29 Duncan Agnew 20000601 20:35:54UTC            PGM / RUN BY / DATE
                                                            COMMENT
L2: 1 -> 1; 150 -> 5; 250 -> 9                              COMMENT
L2: 1 -> 1; 150 -> 5; 250 -> 9                              COMMENT
L2: 1 -> 1; 150 -> 5; 250 -> 9                              COMMENT
L2: 1 -> 1; 150 -> 5; 250 -> 9                              COMMENT
L2: 1 -> 1; 150 -> 5; 250 -> 9                              COMMENT
Original Marker Name: BMT1                                  COMMENT
Campaign Name: Post Hector Surveys                          COMMENT
4-Character Station Name: BMT1                              COMMENT
6-Character Antenna Code: DMRCHT                            COMMENT
Vertical Measurement Point: BCR                             COMMENT
Vertical Offset to Rinex Ref. Point: 0.0348                 COMMENT
Radial Measurement Point: ECF                               COMMENT
Radial Offset to Rinex Ref. Point: 0.1897                   COMMENT
Antenna Height from Field Measurement: 0.9130 m             COMMENT
Additional Antenna Identification Info.:                    COMMENT
Turborogue and Ashtech Choke Ring                           COMMENT
Original XYZ: 0.0000 0.0000 0.0000                          COMMENT
New XYZ position is based on association with SCEC monument COMMENT
E1F2K2J6+0011. Position of that monument is believed to be  COMMENT
valid to within 1 m horizontally; vertical accuracy         COMMENT
should be no worse than 3-times this value.                 COMMENT
                                                            COMMENT
Revised Rinex header created by UCSD GPS archive for        COMMENT
GSAC on 28-Jul-2000 (2000:210) 05:13:59 GMT                 COMMENT
For assistance contact dagnew@ucsd.edu                      COMMENT
or anderson@python.ucsd.edu                                 COMMENT
                                                            COMMENT
UNSTAMPED STAINLESS PIN (BMT1)                              MARKER NAME
MWA UNIV CALIF LOS ANGELES                                  OBSERVER / AGENCY
174 ASHTECH Z-XII3 CD00                                     REC # / TYPE / VERS
364 DORNE-MARGOL. TYPE T                                    ANT # / TYPE
 -2327079.5332 -4714236.7735  3600686.9336                  APPROX POSITION XYZ
        0.8583        0.0000        0.0000                  ANTENNA: DELTA H/E/N
     1     1     0                                          WAVELENGTH FACT L1/2
     7    C1    L1    L2    P1    P2    S1    S2            # / TYPES OF OBSERV
     0                                                      INTERVAL
  2000     5    13     0     0   30.000000                  TIME OF FIRST OBS
  2000     5    13    21    20   30.000000                  TIME OF LAST OBS
                                                            END OF HEADER
 00  5 13  0  0 30.0000000  0 10G21G 3G17G31G23G29G15G26G 6G 9
  21706424.216   -14904748.74949 -11594931.57447  21706423.606    21706432.027
       241.000         203.000
  21989560.009   -15366780.09949 -11942129.18247  21989559.745    21989568.400
       237.000         195.000
  21394535.598   -18351471.06349 -14287728.22947  21394535.002    21394543.251
       237.000         200.000
                  -1373735.25849  -1049375.91043                  24473380.543
       210.000          90.000
  21081566.157   -19698521.35649 -14659085.10347  21081565.826    21081573.098
       244.000         212.000
  21899644.386   -14793867.78449 -11507920.38947  21899643.532    21899652.686
       233.000         189.000
  23983751.893    -4163188.47149  -3214689.79445  23983751.205    23983763.488
       212.000         149.000
  24075480.520    -2937870.35849  -2263732.13645  24075479.512    24075489.593
       196.000         142.000
  24329587.225    -3412524.51749  -2636353.95645  24329587.587    24329602.151
       196.000         139.000
  24004456.494    -1963553.94049  -1494281.09845  24004456.161    24004468.418
       211.000         139.000
 00  5 13  0  1  0.0000000  0 10G21G 3G17G31G23G29G15G26G 6G 9
  21699575.034   -14940741.49649 -11622977.81247  21699574.577    21699583.327
       241.000         203.000
  21980722.255   -15413223.55849 -11978318.84947  21980721.983    21980730.565
       238.000         196.000
  21402842.398   -18307818.85749 -14253713.56347  21402841.741    21402849.688
       237.000         200.000
  24456048.362    -1464756.64849  -1120301.59845  24456047.271    24456059.338
       212.000         137.000
  21087267.300   -19668561.95149 -14635740.10947  21087266.619    21087273.924
       244.000         212.000
  21883026.903   -14881192.23949 -11575965.23247  21883026.186    21883035.896
       231.000         188.000
  23966424.140    -4254245.89049  -3285643.48845  23966422.931    23966436.507
       208.000         148.000
  24095241.468    -2834024.82649  -2182813.68145  24095241.621    24095251.654
       200.000         140.000
  24351206.118    -3298917.67349  -2547829.73045  24351206.700    24351227.460
       199.000         141.000
  23994885.984    -2013847.07449  -1533470.40345  23994883.908    23994896.444
       209.000         139.000
 00  5 13  0  1 30.0000000  0 10G21G 3G17G31G23G29G15G26G 6G 9
  21692764.436   -14976531.16449 -11650865.81847  21692763.922    21692772.551
       242.000         204.000
  21971983.017   -15459148.02949 -12014104.11647  21971982.553    21971990.819
       236.000         195.000
  21411209.211   -18263850.96149 -14219452.89847  21411208.679    21411217.354
       238.000         200.000
  24438783.939    -1555485.01249  -1190998.96345  24438782.853    24438794.128
       212.000         142.000
  21093002.107   -19638425.31649 -14612257.01947  21093001.559    21093008.714
       244.000         212.000
  21866471.024   -14968193.04649 -11643757.89447  21866470.058    21866479.416
       233.000         188.000
  23949091.566    -4345328.37349  -3356616.71445  23949090.010    23949103.503
       208.000         148.000
  24115044.050    -2729961.29149  -2101725.29145  24115044.502    24115053.639
       207.000         143.000
  24372833.810    -3185265.57248  -2459270.16945  24372831.030    24372853.978
       182.000         135.000
  23985380.839    -2063795.44349  -1572391.08745  23985380.666    23985390.101
       209.000         141.000
 00  5 13  0  2  0.0000000  0 10G21G 3G17G31G23G29G15G26G 6G 9
  21685992.456   -15012118.23549 -11678595.96047  21685991.970    21686000.261
       240.000         204.000
  21963342.871   -15504551.75449 -12049483.60447  21963342.325    21963351.102
       236.000         195.000
  21419636.253   -18219566.87249 -14184945.85347  21419635.605    21419644.074
       238.000         200.000
  24421575.105    -1645917.33449  -1261465.63245  24421574.256    24421584.924
       213.000         144.000
  21098770.425   -19608112.63549 -14588636.74547  21098769.656    21098777.178
       243.000         211.000
  21849977.147   -15054867.95749 -11711296.62947  21849976.976    21849985.680
       233.000         189.000
  23931754.424    -4436434.99549  -3427608.73245  23931753.402    23931765.628
       207.000         146.000
  24134887.853    -2625682.52449  -2020469.16345  24134888.784    24134897.409
       210.000         149.000
  24394469.303    -3071570.80149  -2370677.46545  24394470.260    24394488.438
       205.000         138.000
  23975941.970    -2113396.13249  -1611040.86645  23975940.622    23975951.805
       211.000         144.000
 00  5 13  0  2 30.0000000  0 10G21G 3G17G31G23G29G15G26G 6G 9
  21679258.871   -15047503.18049 -11706168.58047  21679257.882    21679266.657
       240.000         204.000
  21954802.250   -15549433.24949 -12084456.16747  21954802.017    21954810.936
       238.000         195.000
  21428123.539   -18174966.28549 -14150192.18147  21428122.759    21428131.015
       238.000         199.000
  24404423.079    -1736051.33849  -1331699.86545  24404422.200    24404431.903
       213.000         145.000
  21104571.988   -19577625.11749 -14564880.24147  21104571.359    21104578.666
       243.000         211.000
  21833545.709   -15141215.16249 -11778579.98147  21833545.711    21833554.032
       234.000         190.000
  23914412.913    -4527564.85249  -3498618.87545  23914412.297    23914423.753
       211.000         147.000
  24154772.079    -2521191.50549  -1939047.67745  24154772.669    24154781.699
       210.000         152.000
  24416112.819    -2957835.76149  -2282053.26145  24416113.626    24416134.375
       213.000         142.000
  23966569.951    -2162646.52049  -1649417.73745  23966569.259    23966580.560
       213.000         149.000
 00  5 13  0  3  0.0000000  0 10G21G 3G17G31G23G29G15G26G 6G 9
  21672563.590   -15082686.59149 -11733584.18647  21672563.037    21672571.275
       240.000         204.000
  21946361.357   -15593790.82749 -12119020.47447  21946361.180    21946369.610
       237.000         196.000
  21436671.167   -18130048.63149 -14115191.45147  21436670.142    21436678.566
       236.000         199.000
  24387328.227    -1825884.26649  -1401699.50845  24387327.764    24387338.683
       214.000         144.000
  21110406.697   -19546963.83149 -14540988.33347  21110406.280    21110413.516
       244.000         211.000
  21817177.158   -15227232.12649 -11845606.00147  21817176.233    21817185.044
       235.000         191.000
  23897067.248    -4618717.03949  -3569646.43745  23897065.975    23897077.331
       208.000         147.000
  24174695.988    -2416490.86049  -1857462.86645  24174695.527    24174706.285
       211.000         153.000
  24437763.513    -2844062.77249  -2193399.57245  24437763.468    24437783.175
       211.000         138.000
  23957265.128    -2211543.15449  -1687518.83745  23957265.110    23957275.699
       216.000         153.000
 00  5 13  0  3 30.0000000  0 10G21G 3G17G31G23G29G15G26G 6G 9
  21665906.977   -15117667.33449 -11760841.85447  21665906.355    21665914.650
       241.000         204.000
  21938020.654   -15637621.44249 -12153174.16447  21938020.564    21938028.583
       239.000         196.000
  21445279.356   -18084812.16949 -14079942.30247  21445278.682    21445287.718
       237.000         199.000
  24370291.575    -1915412.01449  -1471461.33945  24370289.660    24370302.131
       216.000         145.000
  21116274.462   -19516128.38649 -14516960.71647  21116273.548    21116281.288
       243.000         211.000
  21800872.123   -15312915.00649 -11912371.72247  21800871.301    21800880.838
       234.000         191.000
  23879717.660    -4709889.04249  -3640689.42645  23879716.506    23879728.537
       211.000         147.000
  24194659.647    -2311581.95349  -1775715.76845  24194659.486    24194669.108
       212.000         153.000
  24459421.245    -2730253.02849  -2104717.17645  24459420.506    24459442.863
       207.000         137.000
  23948028.255    -2260082.27049  -1725341.40345  23948027.785    23948038.729
       215.000         157.000
 00  5 13  0  4  0.0000000  0 10G21G 3G17G31G23G29G15G26G 6G 9
  21659288.593   -15152447.29049 -11787943.06347  21659287.537    21659296.182
       241.000         204.000
  21929780.449   -15680924.80049 -12186917.00247  21929779.989    21929788.134
       237.000         196.000
  21453948.084   -18039257.64149 -14044445.30647  21453947.091    21453956.170
       237.000         199.000
  24353313.335    -2004633.08049  -1540984.17745  24353312.413    24353323.520
       215.000         146.000
  21122174.900   -19485121.22149 -14492799.28847  21122174.213    21122181.656
       244.000         211.000
  21784630.745   -15398263.14949 -11978876.60447  21784629.685    21784639.148
       235.000         191.000
  23862364.279    -4801081.18049  -3711748.09545  23862362.330    23862375.641
       210.000         147.000
  24214661.880    -2206468.82149  -1693809.50145  24214662.268    24214671.826
       215.000         154.000
  24481085.217    -2616410.38449  -2016009.11445  24481083.628    24481103.008
       201.000         135.000
  23938859.875    -2308262.32149  -1762884.17545  23938859.412    23938870.583
       216.000         159.000
 00  5 13  0  4 30.0000000  0 10G21G 3G17G31G23G29G15G26G 6G 9
  21652708.402   -15187026.02949 -11814887.48747  21652707.782    21652715.822
       242.000         204.000
  21921640.881   -15723698.29349 -12220246.94447  21921640.174    21921648.755
       238.000         196.000
  21462677.593   -17993383.77749 -14008699.48147  21462677.528    21462685.112
       238.000         199.000
  24336394.219    -2093543.85249  -1610265.24445  24336393.685    24336403.976
       215.000         146.000
  21128107.980   -19453942.56249 -14468504.23047  21128107.016    21128114.865
       242.000         211.000
  21768453.596   -15483273.10149 -12045117.97347  21768452.404    21768462.186
       233.000         190.000
  23845007.424    -4892291.23749  -3782820.73145  23845006.146    23845018.135
       211.000         147.000
  24234702.754    -2101153.36149  -1611745.56045  24234703.184    24234712.969
       217.000         154.000
  24502755.121    -2502536.17349  -1927276.57445  24502757.214    24502776.123
       216.000         136.000
  23929760.509    -2356079.62249  -1800144.30345  23929759.902    23929770.866
       214.000         160.000
 00  5 13  0  5  0.0000000  0  9G21G 3G17G31G23G29G15G26G 9
  21646166.545   -15221403.61849 -11841675.17447  21646165.801    21646174.177
       240.000         204.000
  21913602.696   -15765940.35949 -12253162.81147  21913602.289    21913610.324
       238.000         197.000
  21471468.110   -17947189.80549 -13972704.22347  21471467.442    21471475.966
       237.000         198.000
  24319534.582    -2182141.51249  -1679302.32145  24319532.968    24319545.095
       213.000         147.000
  21134073.479   -19422593.43449 -14444076.34047  21134072.976    21134080.420
       243.000         211.000
  21752341.415   -15567942.69649 -12111094.13847  21752341.347    21752349.736
       234.000         191.000
  23827647.420    -4983517.90549  -3853906.32545  23827646.394    23827658.835
       214.000         148.000
  24254781.762    -1995637.97649  -1529525.85045  24254781.934    24254792.267
       218.000         155.000
  23920730.871    -2403531.02949  -1837119.32645  23920730.063    23920741.544
       211.000         159.000
 00  5 13  0  5 30.0000000  0  9G21G 3G17G31G23G29G15G26G 9
  21639663.075   -15255578.90549 -11868305.22147  21639661.864    21639670.505
       240.000         204.000
  21905665.968   -15807647.23449 -12285661.63447  21905665.164    21905673.587
       238.000         197.000
  21480319.947   -17900673.12449 -13936457.49047  21480319.264    21480327.905
       237.000         198.000
  24302735.299    -2270421.46249  -1748091.81245  24302734.187    24302745.512
       215.000         148.000
  21140071.677   -19391072.81449 -14419514.81947  21140071.043    21140078.580
       243.000         211.000
  21736294.892   -15652267.46749 -12176801.59047  21736294.117    21736303.641
       234.000         192.000
  23810284.923    -5074758.32349  -3925002.63245  23810283.434    23810295.549
       214.000         149.000
  24274898.551    -1889923.49649  -1447151.01845  24274898.697    24274908.896
       217.000         156.000
  23911771.576    -2450611.63749  -1873805.37745  23911771.095    23911782.264
       207.000         156.000
 00  5 13  0  6  0.0000000  0  9G21G 3G17G31G23G29G15G26G 9
  21633197.146   -15289556.91249 -11894781.54947  21633196.420    21633204.921
       240.000         204.000
  21897830.462   -15848822.57649 -12317746.28347  21897830.178    21897837.995
       238.000         197.000
  21489232.328   -17853838.34749 -13899962.89247  21489231.555    21489240.368
       236.000         198.000
  24285996.154    -2358386.02949  -1816635.55945  24285995.695    24286006.274
       213.000         149.000
  21146101.304   -19359386.80949 -14394824.42747  21146100.499    21146108.315
       243.000         210.000
  21720313.342   -15736250.43949 -12242242.73047  21720313.260    21720321.369
       233.000         192.000
  23792918.999    -5166016.42249  -3996112.72145  23792917.926    23792930.786
       216.000         151.000
  24295051.974    -1784017.55349  -1364627.00545  24295052.485    24295062.685
       216.000         156.000
  23902882.311    -2497323.65449  -1910204.23345  23902881.320    23902892.978
       207.000         153.000
 00  5 13  0  6 30.0000000  0  9G21G 3G17G31G23G29G15G26G 9
  21626768.854   -15323337.95449 -11921104.39647  21626768.390    21626776.423
       240.000         204.000
  21890096.376   -15889464.53149 -12349415.29647  21890095.862    21890104.228
       239.000         196.000
  21498205.284   -17806685.01449 -13863220.07247  21498204.463    21498212.857
       236.000         198.000
  24269317.519    -2446032.41649  -1884931.36145  24269316.172    24269327.537
       212.000         148.000
  21152162.202   -19327536.35049 -14370005.89147  21152161.643    21152168.923
       242.000         210.000
  21704397.385   -15819889.11249 -12307415.56747  21704396.619    21704405.477
       233.000         192.000
  23775549.981    -5257290.81449  -4067235.50345  23775548.400    23775559.795
       214.000         151.000
  24315241.337    -1677922.73349  -1281955.80945  24315241.409    24315251.721
       215.000         156.000
  23894063.874    -2543664.12549  -1946313.59345  23894063.704    23894074.382
       209.000         152.000
 00  5 13  0  7  0.0000000  0  9G21G 3G17G31G23G29G15G26G 9
  21620377.984   -15356922.09349 -11947273.80247  21620377.294    21620385.522
       241.000         205.000
  21882464.449   -15929570.68349 -12380666.81247  21882463.865    21882472.253
       238.000         197.000
  21507239.022   -17759211.96349 -13826228.12147  21507238.199    21507247.282
       236.000         198.000
  24252700.147    -2533357.24749  -1952976.61245  24252698.436    24252710.342
       213.000         149.000
  21158254.314   -19295521.90349 -14345059.57247  21158253.696    21158261.240
       242.000         210.000
  21688547.366   -15903180.69349 -12372317.95847  21688547.161    21688555.526
       233.000         192.000
  23758178.147    -5348579.81549  -4138369.65545  23758177.286    23758188.657
       214.000         151.000
  24335466.038    -1571641.13049  -1199139.06345  24335466.157    24335476.242
       216.000         156.000
  23885316.962    -2589629.46249  -1982130.62345  23885316.929    23885328.214
       209.000         152.000
 00  5 13  0  7 30.0000000  0  9G21G 3G17G31G23G29G15G26G 9
  21614024.621   -15390308.99949 -11973289.53147  21614024.003    21614032.406
       241.000         204.000
  21874934.694   -15969139.71249 -12411499.79547  21874934.308    21874942.682
       238.000         197.000
  21516333.869   -17711418.81049 -13788986.73947  21516333.572    21516341.828
       237.000         197.000
  24236144.444    -2620357.77849  -2020769.12045  24236143.477    24236153.470
       209.000         148.000
  21164377.517   -19263344.35949 -14319986.16647  21164377.047    21164384.455
       242.000         210.000
  21672763.939   -15986122.89749 -12436948.10147  21672763.268    21672772.103
       234.000         193.000
  23740803.865    -5439881.90749  -4209513.99345  23740802.155    23740814.571
       214.000         153.000
  24355725.933    -1465175.21649  -1116178.71645  24355726.312    24355736.051
       213.000         155.000
  23876641.765    -2635217.00649  -2017653.27545  23876640.546    23876651.411
       208.000         151.000
 00  5 13  0  8  0.0000000  0  9G21G 3G17G31G23G29G15G26G 9
  21607708.751   -15423499.22949 -11999152.01647  21607708.065    21607716.485
       240.000         205.000
  21867507.539   -16008169.75049 -12441912.77347  21867506.680    21867515.299
       238.000         197.000
  21525489.851   -17663304.51549 -13751495.10647  21525488.814    21525497.588
       237.000         198.000
  24219651.021    -2707030.66649  -2088306.35245  24219650.155    24219661.056
       206.000         146.000
  21170531.655   -19231004.26449 -14294786.10247  21170531.216    21170538.461
       243.000         210.000
  21657047.552   -16068712.75949 -12501303.70247  21657047.128    21657055.356
       234.000         193.000
  23723427.366    -5531195.58549  -4280667.35745  23723426.454    23723438.064
       212.000         153.000
  24376020.393    -1358527.41849  -1033076.63145  24376020.162    24376030.955
       214.000         152.000
  23868039.118    -2680423.28449  -2052878.82745  23868038.601    23868049.855
       211.000         150.000
 00  5 13  0  8 30.0000000  0  9G21G 3G17G31G23G29G15G26G 9
  21601430.099   -15456493.48149 -12024861.77647  21601429.362    21601437.955
       241.000         205.000
  21860183.145   -16046659.71649 -12471904.92547  21860182.990    21860191.194
       239.000         197.000
  21534706.837   -17614869.08749 -13713753.25447  21534706.323    21534714.574
       238.000         198.000
  24203220.304    -2793373.70049  -2155586.53245  24203219.640    24203231.356
       205.000         144.000
  21176716.474   -19198503.15249 -14269460.56447  21176715.875    21176723.242
       243.000         210.000
  21641398.311   -16150948.97549 -12565383.72947  21641397.302    21641406.552
       233.000         193.000
  23706048.766    -5622520.13149  -4351829.18445  23706046.795    23706059.423
       211.000         152.000
  24396348.901    -1251700.65449   -949835.08445  24396349.629    24396359.471
       213.000         149.000
  23859509.581    -2725246.16449  -2087805.63745  23859509.235    23859519.891
       211.000         150.000
 00  5 13  0  9  0.0000000  0  9G21G 3G17G31G23G29G15G26G 9
  21595188.724   -15489291.85849 -12050418.90447  21595188.252    21595196.210
       241.000         205.000
  21852961.925   -16084608.16549 -12501475.11547  21852960.960    21852969.379
       238.000         198.000
  21543985.043   -17566112.34749 -13675761.02647  21543984.540    21543993.292
       238.000         198.000
  24186853.013    -2879384.15149  -2222607.53545  24186852.440    24186862.547
       203.000         143.000
  21182931.645   -19165842.03949 -14244010.34947  21182930.992    21182938.571
       242.000         210.000
  21625816.945   -16232829.02149 -12629186.22247  21625815.889    21625824.806
       233.000         193.000
  23688668.263    -5713854.35949  -4422998.55345  23688666.298    23688680.021
       211.000         152.000
  24416711.053    -1144697.67849   -866456.23945  24416711.173    24416721.178
       212.000         147.000
  23851053.449    -2769682.84549  -2122431.52445  23851052.780    23851063.836
       212.000         150.000
 00  5 13  0  9 30.0000000  0  9G21G 3G17G31G23G29G15G26G 9
  21588984.571   -15521895.11749 -12075823.99347  21588983.658    21588992.224
       241.000         205.000
  21845843.713   -16122013.94349 -12530622.45647  21845843.227    21845851.806
       239.000         197.000
  21553324.439   -17517034.14549 -13637518.31047  21553323.405    21553332.082
       236.000         198.000
  24170549.382    -2965059.64249  -2289367.53045  24170547.658    24170559.453
       204.000         143.000
  21189177.054   -19133022.37249 -14218436.59147  21189176.508    21189183.763
       242.000         210.000
  21610303.620   -16314351.09149 -12692709.77747  21610302.229    21610311.729
       233.000         193.000
  23671286.147    -5805197.31449  -4494174.73645  23671285.050    23671296.611
       211.000         152.000
  24437106.282    -1037521.36249   -782942.31945  24437106.083    24437114.791
       211.000         144.000
  23842671.355    -2813730.72149  -2156754.45145  23842671.182    23842681.057
       212.000         151.000
 00  5 13  0 10  0.0000000  0  9G21G 3G17G31G23G29G15G26G 9
  21582817.175   -15554304.40449 -12101077.94347  21582816.207    21582824.653
       240.000         205.000
  21838829.020   -16158876.02749 -12559346.13447  21838828.953    21838836.620
       239.000         198.000
  21562724.903   -17467634.32649 -13599024.98847  21562724.237    21562732.252
       238.000         198.000
  24154310.089    -3050397.80649  -2355864.70545  24154308.890    24154319.589
       205.000         145.000
  21195452.423   -19100045.12849 -14192740.04347  21195451.764    21195459.277
       243.000         210.000
  21594858.782   -16395513.13349 -12755952.80747  21594858.271    21594866.788
       234.000         193.000
  23653902.673    -5896548.15049  -4565357.04845  23653900.386    23653913.189
       215.000         151.000
  24457533.683     -930174.62649   -699295.61945  24457532.563    24457542.647
       209.000         143.000
  23834363.838    -2857387.34449  -2190772.52245  23834363.753    23834374.221
       212.000         152.000
 00  5 13  0 10 30.0000000  0  9G21G 3G17G31G23G29G15G26G 9
  21576686.676   -15586519.89549 -12126180.87347  21576685.841    21576694.670
       241.000         205.000
  21831918.215   -16195192.90749 -12587644.97647  21831917.778    21831925.858
       239.000         198.000
  21572186.633   -17417912.58949 -13560280.82447  21572186.076    21572194.285
       237.000         198.000
  24138135.304    -3135396.46749  -2422097.30545  24138134.367    24138145.353
       205.000         146.000
  21201757.475   -19066911.51549 -14166921.65147  21201756.849    21201764.098
       243.000         209.000
  21579482.991   -16476313.44149 -12818913.95947  21579482.605    21579491.036
       235.000         194.000
  23636517.771    -5987905.74649  -4636544.64145  23636517.549    23636527.620
       214.000         151.000
  24477992.971     -822660.20249   -615518.26345  24477993.038    24478002.135
       210.000         143.000
  23826131.194    -2900650.28349  -2224483.80045  23826130.523    23826140.701
       212.000         153.000
 00  5 13  0 11  0.0000000  0  9G21G 3G17G31G23G29G15G26G 9
  21570593.141   -15618541.88049 -12151133.02747  21570592.380    21570600.693
       240.000         205.000
  21825111.402   -16230962.91949 -12615517.69147  21825110.570    21825119.420
       238.000         198.000
  21581709.937   -17367867.98549 -13521285.06247  21581709.164    21581717.814
       237.000         198.000
  24122025.673    -3220052.39149  -2488062.86645  24122025.139    24122035.829
       211.000         149.000
  21208092.284   -19033622.24249 -14140981.97247  21208091.644    21208098.941
       242.000         209.000
  21564176.492   -16556749.33949 -12881591.16247  21564176.281    21564184.432
       235.000         195.000
  23619131.945    -6079268.30049  -4707736.11145  23619130.396    23619142.613
       213.000         149.000
  24498483.662     -714980.44449   -531612.06945  24498484.512    24498494.522
       209.000         142.000
  23817973.902    -2943516.42049  -2257885.89445  23817972.930    23817983.921
       210.000         152.000
 00  5 13  0 11 30.0000000  0  9G21G 3G17G31G23G29G15G26G 9
  21564536.335   -15650370.14949 -12175934.22947  21564535.613    21564543.747
       241.000         205.000
  21818408.929   -16266184.04349 -12642962.69247  21818408.500    21818416.420
       238.000         198.000
  21591294.538   -17317499.90549 -13482037.26147  21591293.618    21591302.955
       236.000         197.000
  24105982.174    -3304362.30949  -2553758.82245  24105980.727    24105991.433
       211.000         149.000
  21214456.496   -19000177.89249 -14114921.44647  21214455.938    21214463.254
       243.000         209.000
  21548939.833   -16636818.35349 -12943982.47447  21548939.570    21548947.946
       235.000         196.000
  23601745.239    -6170634.49249  -4778930.40745  23601744.472    23601755.568
       212.000         147.000
  24519005.440     -607137.59649   -447578.80545  24519007.075    24519015.195
       209.000         141.000
  23809892.713    -2985982.55349  -2290976.28945  23809891.095    23809903.572
       208.000         152.000
 00  5 13  0 12  0.0000000  0  9G21G 3G17G31G23G29G15G26G 9
  21558515.881   -15682007.59549 -12200586.74447  21558515.390    21558523.413
       242.000         205.000
  21811810.835   -16300857.12749 -12669980.67047  21811810.428    21811818.901
       239.000         198.000
  21600940.463   -17266810.33249 -13442538.94747  21600940.040    21600948.714
       236.000         197.000
  24090004.340    -3388325.78149  -2619184.81845  24090003.857    24090014.244
       212.000         151.000
  21220849.662   -18966581.76249 -14088742.65947  21220849.042    21220856.532
       243.000         209.000
  21533772.890   -16716520.53149 -13006087.93247  21533771.870    21533780.805
       234.000         196.000
  23584357.939    -6262005.07449  -4850128.12645  23584357.349    23584368.613
       216.000         148.000
  24539557.432     -499136.44949   -363422.18045  24539557.398    24539567.263
       208.000         139.000
  23801887.663    -3028048.29349  -2323754.70645  23801887.416    23801897.000
       209.000         150.000
 00  5 13  0 12 30.0000000  0  9G21G 3G17G31G23G29G15G26G 9
  21552532.282   -15713451.59649 -12225088.52347  21552531.773    21552539.643
       240.000         205.000
  21805317.680   -16334978.55849 -12696568.77647  21805317.433    21805325.459
       240.000         199.000
  21610648.101   -17215796.53149 -13402787.98747  21610647.380    21610655.914
       236.000         197.000
  24074093.492    -3471937.86149  -2684337.00945  24074092.642    24074103.292
       212.000         151.000
  21227272.020   -18932832.06749 -14062444.20647  21227271.496    21227278.741
       243.000         209.000
  21518676.600   -16795851.19649 -13067903.91947  21518676.150    21518684.335
       235.000         196.000
  23566970.426    -6353376.69049  -4921326.64645  23566969.477    23566980.159
       214.000         150.000
  24560139.718     -390977.08749   -279142.27745  24560140.608    24560149.460
       207.000         138.000
  23793959.903    -3069708.34549  -2356216.95645  23793960.574    23793969.413
       209.000         149.000
 00  5 13  0 13  0.0000000  0  9G21G 3G17G31G23G29G15G26G 9
  21546584.902   -15744704.88849 -12249441.69547  21546584.370    21546592.279
       241.000         205.000
  21798929.429   -16368549.42749 -12722727.87447  21798928.886    21798937.100
       238.000         199.000
  21620417.052   -17164459.99549 -13362785.56847  21620417.556    21620425.318
       237.000         196.000
  24058249.605    -3555197.95949  -2749214.91645  24058248.881    24058259.783
       215.000         153.000
  21233723.029   -18898932.01049 -14036028.59747  21233722.460    21233730.015
       243.000         209.000
  21503651.046   -16874810.54249 -13129430.56047  21503650.702    21503658.719
       236.000         196.000
  23549582.648    -6444749.69749  -4992526.24845  23549582.084    23549593.133
       215.000         154.000
  24580751.129     -282664.35349   -194742.87045  24580751.040    24580760.923
       204.000         134.000
  23786109.473    -3110962.37149  -2388362.85145  23786109.609    23786119.509
       211.000         151.000
 00  5 13  0 13 30.0000000  0  8G21G 3G17G31G23G29G15G 9
  21540674.095   -15775766.48849 -12273645.49147  21540673.572    21540681.512
       242.000         205.000
  21792646.389   -16401566.40049 -12748455.35847  21792645.595    21792654.313
       237.000         199.000
  21630248.090   -17112798.58749 -13322529.97647  21630246.942    21630255.729
       235.000         196.000
  24042473.488    -3638101.61849  -2813815.08845  24042472.333    24042483.485
       214.000         155.000
  21240202.765   -18864880.74849 -14009495.15847  21240202.084    21240209.650
       242.000         209.000
  21488696.937   -16953394.41149 -13190664.62947  21488696.155    21488704.872
       235.000         196.000
  23532195.196    -6536120.93849  -5063724.45345  23532193.701    23532205.747
       215.000         157.000
  23778337.321    -3151805.65349  -2420188.70045  23778336.920    23778347.378
       216.000         154.000
 00  5 13  0 14  0.0000000  0  8G21G 3G17G31G23G29G15G 9
  21534799.648   -15806636.92249 -12297700.32847  21534798.959    21534807.131
       242.000         206.000
  21786468.809   -16434028.79149 -12773750.70747  21786468.222    21786476.780
       237.000         198.000
  21640140.736   -17060812.57349 -13282021.45947  21640140.572    21640148.354
       236.000         196.000
  24026765.578    -3720646.80749  -2878135.90145  24026764.467    24026775.693
       213.000         155.000
  21246710.924   -18830679.91049 -13982845.16647  21246710.339    21246717.945
       243.000         209.000
  21473814.444   -17031601.52749 -13251605.12247  21473814.038    21473822.176
       235.000         196.000
  23514808.199    -6627489.92449  -5134920.92645  23514807.448    23514819.346
       215.000         158.000
  23770643.649    -3192236.22549  -2451692.96045  23770643.406    23770653.281
       215.000         155.000
 00  5 13  0 14 30.0000000  0  8G21G 3G17G31G23G29G15G 9
  21528961.094   -15837318.64649 -12321608.12347  21528960.381    21528968.506
       241.000         206.000
  21780396.877   -16465936.98049 -12798614.21747  21780396.555    21780404.848
       239.000         199.000
  21650094.877   -17008503.27749 -13241261.02147  21650094.342    21650101.917
       235.000         195.000
  24011126.067    -3802832.29149  -2942176.46545  24011124.984    24011135.344
       213.000         154.000
  21253247.130   -18796332.09249 -13956080.65047  21253246.713    21253254.001
       242.000         209.000
  21459003.903   -17109431.26649 -13312251.55447  21459003.391    21459011.942
       237.000         197.000
  23497421.478    -6718856.92149  -5206115.87445  23497419.755    23497433.028
       216.000         158.000
  23763028.654    -3232253.07749  -2482874.85145  23763028.468    23763039.330
       213.000         155.000
 00  5 13  0 15  0.0000000  0  8G21G 3G17G31G23G29G15G 9
  21523158.371   -15867811.81449 -12345368.99047  21523157.658    21523165.478
       242.000         206.000
  21774430.838   -16497289.76049 -12823044.93747  21774430.326    21774438.332
       239.000         199.000
  21660110.657   -16955870.44849 -13200248.48647  21660109.508    21660118.873
       234.000         195.000
  23995555.552    -3884655.67349  -3005934.82745  23995555.023    23995564.881
       215.000         154.000
  21259811.123   -18761838.07649 -13929202.21447  21259810.609    21259817.875
       242.000         209.000
  21444265.458   -17186881.84349 -13372602.53247  21444264.784    21444273.409
       237.000         198.000
  23480035.480    -6810220.57349  -5277308.20245  23480033.981    23480045.107
       215.000         155.000
  23755492.773    -3271853.58349  -2513732.28145  23755492.225    23755502.560
       213.000         156.000
 00  5 13  0 15 30.0000000  0  8G21G 3G17G31G23G29G15G 9
  21517391.611   -15898116.21549 -12368982.76447  21517390.850    21517399.131
       241.000         206.000
  21768570.464   -16528085.90749 -12847041.91247  21768569.713    21768578.440
       237.000         199.000
  21670187.936   -16902913.69149 -13158983.55247  21670188.291    21670196.544
       237.000         195.000
  23980054.470    -3966114.13849  -3069408.88145  23980053.504    23980063.994
       215.000         154.000
  21266402.805   -18727198.68349 -13902210.49547  21266402.206    21266409.627
       242.000         209.000
  21429599.627   -17263950.98549 -13432656.29847  21429598.847    21429607.489
       236.000         198.000
  23462650.312    -6901579.64249  -5348496.97445  23462648.986    23462660.732
       213.000         153.000
  23748036.706    -3311034.90649  -2544263.10145  23748035.787    23748046.625
       212.000         156.000
 00  5 13  0 16  0.0000000  0  8G21G 3G17G31G23G29G15G 9
  21511660.672   -15928232.50649 -12392449.96647  21511659.718    21511668.167
       242.000         206.000
  21762816.049   -16558324.24549 -12870604.23047  21762816.006    21762824.094
       237.000         199.000
  21680327.132   -16849632.75349 -13117466.00347  21680325.293    21680335.632
       233.000         195.000
  23964623.290    -4047205.16349  -3132596.61845  23964622.347    23964633.051
       216.000         155.000
  21273021.917   -18692414.93249 -13875106.29147  21273021.294    21273028.588
       243.000         209.000
  21415006.848   -17340636.33549 -13492411.01147  21415006.599    21415014.759
       238.000         198.000
  23445266.313    -6992932.52949  -5419680.92445  23445265.101    23445277.966
       213.000         151.000
  23740660.906    -3349794.64249  -2574465.41345  23740660.743    23740670.357
       212.000         157.000
 00  5 13  0 16 30.0000000  0  8G21G 3G17G31G23G29G15G 9
  21505965.284   -15958161.61049 -12415771.30347  21505964.501    21505972.561
       241.000         206.000
  21757168.276   -16588003.28549 -12893730.73447  21757167.946    21757176.362
       238.000         198.000
  21690528.021   -16796026.94949 -13075695.32347  21690527.230    21690535.747
       234.000         194.000
  23949262.562    -4127926.03549  -3195495.92445  23949261.821    23949272.478
       217.000         156.000
  21279668.435   -18657487.57049 -13847890.18247  21279667.992    21279675.231
       243.000         209.000
  21400487.397   -17416936.06649 -13551865.23347  21400486.901    21400494.961
       237.000         199.000
  23427883.684    -7084277.81549  -5490858.95445  23427881.515    23427894.664
       213.000         151.000
  23733365.842    -3388130.13549  -2604337.13545  23733365.713    23733375.543
       212.000         157.000
 00  5 13  0 17  0.0000000  0  8G21G 3G17G31G23G29G15G 9
  21500305.524   -15987903.32849 -12438946.62847  21500304.869    21500313.145
       241.000         206.000
  21751627.225   -16617121.88249 -12916420.53147  21751627.092    21751635.708
       239.000         199.000
  21700790.674   -16742096.28249 -13033671.48247  21700789.876    21700798.642
       234.000         194.000
  23933972.686    -4208274.49749  -3258105.03345  23933972.406    23933982.450
       218.000         156.000
  21286342.048   -18622417.64649 -13820562.98647  21286341.492    21286348.791
       242.000         209.000
  21386041.709   -17492848.25549 -13611017.47947  21386041.282    21386049.409
       238.000         199.000
  23410502.691    -7175614.24849  -5562030.09345  23410501.647    23410513.449
       213.000         152.000
  23726152.022    -3426038.78549  -2633876.21845  23726151.747    23726162.363
       210.000         156.000
 00  5 13  0 17 30.0000000  0  8G21G 3G17G31G23G29G15G 9
  21494681.275   -16017458.69049 -12461976.73447  21494680.612    21494688.722
       241.000         206.000
  21746192.881   -16645679.72949 -12938673.36947  21746192.484    21746201.065
       237.000         200.000
  21711115.120   -16687840.74149 -12991394.49647  21711114.218    21711123.026
       234.000         194.000
  23918754.260    -4288247.79849  -3320421.80345  23918753.412    23918764.128
       217.000         157.000
  21293042.581   -18587206.28649 -13793125.57747  21293041.944    21293049.279
       242.000         209.000
  21371670.127   -17568371.17249 -13669866.40047  21371669.981    21371677.623
       238.000         200.000
  23393123.704    -7266940.83249  -5633193.55145  23393122.378    23393133.863
       217.000         155.000
  23719019.829    -3463518.67749  -2663081.21545  23719019.714    23719030.573
       214.000         158.000
 00  5 13  0 18  0.0000000  0  8G21G 3G17G31G23G29G15G 9
  21489092.390   -16046828.66349 -12484862.39447  21489091.731    21489099.736
       242.000         206.000
  21740865.366   -16673675.99249 -12960488.61847  21740864.962    21740873.033
       239.000         199.000
  21721501.569   -16633260.32249 -12948864.35047  21721500.678    21721509.379
       233.000         193.000
  23903607.451    -4367843.90249  -3382444.65645  23903606.278    23903617.462
       218.000         157.000
  21299769.734   -18551854.73449 -13765578.93547  21299769.077    21299776.677
       242.000         208.000
  21357372.903   -17643503.22549 -13728410.75147  21357372.579    21357380.355
       236.000         200.000
  23375746.981    -7358256.44349  -5704348.47445  23375746.707    23375757.062
       220.000         159.000
  23711969.688    -3500567.32149  -2691950.19845  23711969.255    23711979.953
       217.000         162.000
 00  5 13  0 18 30.0000000  0  8G21G 3G17G31G23G29G15G 9
  21483538.734   -16076013.08949 -12507603.47047  21483538.106    21483545.753
       242.000         206.000
  21735644.885   -16701109.95149 -12981865.71347  21735644.496    21735653.006
       238.000         199.000
  21731949.630   -16578355.12149 -12906081.15047  21731949.315    21731958.638
       234.000         193.000
  23888533.062    -4447060.35249  -3444171.67545  23888532.143    23888542.686
       215.000         157.000
  21306523.394   -18516364.13449 -13737923.93547  21306522.741    21306530.378
       243.000         208.000
  21343150.327   -17718242.53349 -13786649.06547  21343149.915    21343157.720
       237.000         200.000
  23358372.623    -7449559.92449  -5775493.93245  23358372.895    23358382.049
       221.000         162.000
  23705002.147    -3537182.37549  -2720481.33446  23705001.929    23705011.594
       218.000         164.000
 00  5 13  0 19  0.0000000  0  8G21G 3G17G31G23G29G15G 9
  21478020.221   -16105012.74749 -12530200.56447  21478019.826    21478027.118
       242.000         206.000
  21730531.541   -16727980.25249 -13002803.58547  21730531.326    21730539.463
       237.000         199.000
  21742459.708   -16523124.82349 -12863044.60047  21742458.329    21742467.766
       233.000         193.000
  23873531.302    -4525894.53749  -3505600.82645  23873531.428    23873541.369
       216.000         155.000
  21313303.401   -18480735.34249 -13710161.25147  21313302.758    21313310.179
       242.000         208.000
  21329002.927   -17792587.16749 -13844579.83947  21329002.619    21329010.444
       238.000         200.000
  23341000.772    -7540849.79649  -5846628.76645  23340999.412    23341010.655
       218.000         162.000
  23698117.511    -3573361.30149  -2748672.63746  23698116.955    23698127.095
       219.000         165.000
 00  5 13  0 19 30.0000000  0  8G21G 3G17G31G23G29G15G 9
  21472536.789   -16133828.23849 -12552654.16447  21472535.933    21472544.213
       241.000         206.000
  21725525.674   -16754286.05949 -13023301.61747  21725525.931    21725533.667
       239.000         199.000
  21753031.509   -16467569.33749 -12819754.68747  21753030.241    21753039.715
       231.000         192.000
  23858602.797    -4604344.11949  -3566730.30945  23858600.744    23858612.360
       215.000         152.000
  21320109.410   -18444969.56549 -13682291.82347  21320108.586    21320116.059
       242.000         208.000
  21314931.012   -17866535.36349 -13902201.69947  21314930.631    21314938.464
       238.000         200.000
  23323631.636    -7632124.90649  -5917752.09245  23323629.227    23323641.310
       216.000         160.000
  23691316.211    -3609101.89749  -2776522.38846  23691315.683    23691324.976
       219.000         163.000
 00  5 13  0 20  0.0000000  0  8G21G 3G17G31G23G29G15G 9
  21467088.313   -16162459.80049 -12574964.43947  21467087.954    21467095.973
       242.000         206.000
  21720627.701   -16780026.10449 -13043358.76147  21720627.023    21720635.481
       237.000         200.000
  21763665.400   -16411688.03049 -12776210.86247  21763666.637    21763673.374
       236.000         192.000
  23843748.042    -4682406.05849  -3627557.72345  23843748.097    23843757.089
       212.000         150.000
  21326941.416   -18409067.12849 -13654315.90847  21326940.766    21326948.097
       242.000         208.000
  21300934.912   -17940085.01149 -13959513.01347  21300934.310    21300942.531
       238.000         201.000
  23306265.490    -7723383.47849  -5988862.53345  23306264.769    23306276.082
       217.000         159.000
  23684598.863    -3644401.56049  -2804028.55945  23684598.444    23684608.278
       218.000         161.000
 00  5 13  0 20 30.0000000  0  8G21G 3G17G31G23G29G15G 9
  21461674.646   -16190908.56749 -12597132.27947  21461674.122    21461681.875
       242.000         206.000
  21715837.080   -16805199.98849 -13062974.75947  21715836.519    21715845.011
       237.000         199.000
  21774361.286   -16355481.17749 -12732413.37147  21774362.063    21774369.931
       237.000         192.000
  23828967.304    -4760078.58649  -3688081.68945  23828966.979    23828976.754
       211.000         149.000
  21333799.156   -18373029.56549 -13626234.70647  21333798.429    21333805.775
       242.000         208.000
  21287014.973   -18013234.49149 -14016512.50947  21287014.317    21287022.528
       237.000         201.000
  23288902.790    -7814624.55749  -6059959.36045  23288901.659    23288911.269
       218.000         159.000
  23677965.838    -3679258.12749  -2831189.44745  23677964.486    23677975.376
       218.000         159.000
 00  5 13  0 21  0.0000000  0  8G21G 3G17G31G23G29G15G 9
  21456295.795   -16219174.57349 -12619157.70847  21456295.006    21456302.941
       242.000         206.000
  21711154.505   -16829807.07349 -13082149.11147  21711154.331    21711162.170
       238.000         200.000
  21785119.156   -16298948.89449 -12688362.28447  21785118.047    21785126.549
       233.000         191.000
  23814261.169    -4837359.37749  -3748300.38045  23814259.131    23814270.695
       212.000         149.000
  21340682.378   -18336857.94449 -13598049.02947  21340681.634    21340688.960
       242.000         207.000
  21273171.393   -18085982.28349 -14073198.99947  21273170.950    21273179.147
       237.000         201.000
  23271543.728    -7905847.06049  -6131041.69245  23271542.326    23271553.460
       218.000         159.000
  23671417.376    -3713669.79849  -2858003.67645  23671416.779    23671426.388
       219.000         158.000
 00  5 13  0 21 30.0000000  0  8G21G 3G17G31G23G29G15G 9
  21450951.646   -16247258.05549 -12641040.91447  21450950.876    21450959.088
       242.000         206.000
  21706580.065   -16853846.03849 -13100880.75547  21706579.678    21706588.006
       238.000         199.000
  21795938.834   -16242090.85049 -12644057.38147  21795938.546    21795947.626
       234.000         191.000
  23799630.010    -4914245.63449  -3808211.68145  23799629.349    23799638.991
       214.000         149.000
  21347590.987   -18300552.81549 -13569759.32747  21347590.171    21347597.657
       242.000         207.000
  21259404.746   -18158326.18149 -14129570.76647  21259404.151    21259412.193
       237.000         201.000
  23254188.389    -7997049.21649  -6202108.17845  23254187.881    23254197.508
       217.000         159.000
  23664954.133    -3747633.66449  -2884468.96145  23664953.733    23664963.714
       219.000         159.000
 00  5 13  0 22  0.0000000  0  8G21G 3G17G31G23G29G15G 9
  21445642.057   -16275160.00949 -12662782.66547  21445641.551    21445649.307
       242.000         206.000
  21702113.813   -16877316.40949 -13119169.35147  21702113.699    21702121.739
       238.000         200.000
  21806820.552   -16184907.65949 -12599499.14047  21806819.423    21806826.773
       232.000         190.000
  23785074.575    -4990735.11649  -3867813.78945  23785073.856    23785083.306
       212.000         151.000
  21354524.715   -18264115.75049 -13541366.81647  21354524.161    21354531.656
       242.000         207.000
  21245715.127   -18230265.02649 -14185626.89347  21245714.398    21245722.724
       238.000         201.000
  23236837.186    -8088229.97549  -6273157.97945  23236836.523    23236846.720
       217.000         160.000
  23658576.606    -3781147.89249  -2910583.88045  23658575.109    23658585.788
       217.000         159.000
 00  5 13  0 22 30.0000000  0  8G21G 3G17G31G23G29G15G 9
  21440367.035   -16302880.50949 -12684383.02347  21440366.463    21440374.375
       243.000         207.000
  21697756.033   -16900216.91549 -13137013.88847  21697755.496    21697764.097
       238.000         200.000
  21817764.139   -16127398.52149 -12554686.87747  21817764.096    21817771.584
       233.000         191.000
  23770594.941    -5066825.44549  -3927104.87145  23770594.570    23770603.802
       216.000         152.000
  21361483.524   -18227547.05849 -13512871.74047  21361482.943    21361490.396
       242.000         207.000
  21232103.031   -18301796.43149 -14241365.55747  21232102.741    21232110.698
       238.000         201.000
  23219490.278    -8179387.62149  -6344189.76345  23219489.002    23219500.387
       219.000         161.000
  23652284.960    -3814209.74549  -2936346.30145  23652284.444    23652294.252
       212.000         157.000
 00  5 13  0 23  0.0000000  0  8G21G 3G17G31G23G29G15G 9
  21435126.375   -16330420.47049 -12705842.70247  21435125.701    21435133.368
       241.000         207.000
  21693506.611   -16922547.30949 -13154414.18247  21693506.298    21693514.251
       239.000         200.000
  21828769.811   -16069563.69749 -12509620.85847  21828769.477    21828777.690
       234.000         191.000
  23756191.691    -5142514.64249  -3986083.36745  23756190.472    23756201.033
       216.000         154.000
  21368467.122   -18190847.91449 -13484275.00547  21368466.369    21368473.852
       242.000         207.000
  21218568.780   -18372918.81449 -14296785.48947  21218568.521    21218576.251
       238.000         202.000
  23202148.072    -8270521.01949  -6415202.64946  23202147.328    23202157.058
       218.000         163.000
  23646079.975    -3846816.94149  -2961754.40945  23646079.430    23646090.421
       213.000         155.000
 00  5 13  0 23 30.0000000  0  8G21G 3G17G31G23G29G15G 9
  21429919.836   -16357780.59049 -12727162.24347  21429919.056    21429926.742
       241.000         207.000
  21689366.018   -16944307.04349 -13171369.81347  21689365.295    21689373.467
       239.000         200.000
  21839837.497   -16011403.11149 -12464300.95547  21839835.986    21839845.234
       232.000         191.000
  23741865.295    -5217800.04949  -4044747.24445  23741864.499    23741874.072
       216.000         156.000
  21375475.305   -18154019.51849 -13455577.55847  21375474.707    21375481.951
       241.000         206.000
  21205112.637   -18443631.01849 -14351885.81047  21205112.336    21205120.035
       238.000         202.000
  23184810.742    -8361628.91249  -6486195.67146  23184809.910    23184819.745
       219.000         163.000
  23639961.772    -3878967.79349  -2986806.95545  23639960.816    23639970.882
       214.000         156.000
 00  5 13  0 24  0.0000000  0  8G21G 3G17G31G23G29G15G 9
  21424747.399   -16384961.44549 -12748342.09447  21424746.826    21424754.752
       242.000         206.000
  21685333.967   -16965495.52149 -13187880.30747  21685333.416    21685341.664
       239.000         200.000
  21850967.004   -15952916.85849 -12418727.33647  21850966.321    21850975.384
       233.000         192.000
  23727616.200    -5292679.50849  -4103094.78545  23727615.094    23727625.471
       213.000         155.000
  21382507.923   -18117063.02349 -13426780.29747  21382507.238    21382514.950
       242.000         206.000
  21191734.936   -18513931.20249 -14406665.07147  21191734.517    21191742.209
       239.000         202.000
  23167478.407    -8452710.17749  -6557167.94745  23167476.899    23167487.149
       217.000         162.000
  23633930.839    -3910660.14049  -3011502.22645  23633930.670    23633940.011
       218.000         159.000
 00  5 13  0 24 30.0000000  0  8G21G 3G17G31G23G29G15G 9
  21419609.199   -16411962.77549 -12769382.05447  21419608.624    21419616.638
       242.000         207.000
  21681410.861   -16986111.86749 -13203944.99147  21681410.272    21681418.523
       238.000         200.000
  21862158.687   -15894104.68149 -12372899.72747  21862157.573    21862166.998
       233.000         191.000
  23713444.735    -5367150.33649  -4161123.89645  23713442.915    23713455.033
       211.000         153.000
  21389564.762   -18079978.84249 -13397883.53947  21389564.263    21389571.434
       241.000         206.000
  21178435.982   -18583817.16049 -14461121.56847  21178435.394    21178443.194
       237.000         202.000
  23150151.383    -8543763.06149  -6628118.09545  23150150.484    23150161.009
       218.000         161.000
  23627987.651    -3941891.49849  -3035838.27746  23627987.525    23627997.231
       220.000         163.000
 00  5 13  0 25  0.0000000  0  8G21G 3G17G31G23G29G15G 9
  21414505.031   -16438785.22849 -12790282.64347  21414504.627    21414512.502
       242.000         207.000
  21677596.553   -17006155.61049 -13219563.47747  21677596.043    21677604.156
       238.000         200.000
  21873412.409   -15834966.65249 -12326818.21747  21873411.422    21873422.486
       234.000         192.000
  23699351.283    -5441210.56249  -4218833.07145  23699351.680    23699359.929
       214.000         152.000
  21396645.718   -18042768.28749 -13368888.31247  21396645.181    21396652.673
       241.000         207.000
  21165216.112   -18653287.53949 -14515254.23647  21165215.566    21165223.550
       238.000         202.000
  23132830.072    -8634786.46149  -6699045.26546  23132829.465    23132840.188
       219.000         163.000
  23622132.678    -3972659.86949  -3059813.57246  23622132.638    23622142.665
       221.000         165.000
 00  5 13  0 25 30.0000000  0  8G21G 3G17G31G23G29G15G 9
  21409434.691   -16465430.03949 -12811044.79247  21409434.237    21409441.994
       242.000         207.000
  21673891.525   -17025626.32749 -13234735.45847  21673890.938    21673899.274
       238.000         200.000
  21884728.112   -15775503.10649 -12280483.03647  21884727.598    21884736.972
       234.000         191.000
  23685336.856    -5514857.71349  -4276220.33845  23685336.563    23685346.048
       215.000         154.000
  21403750.533   -18005432.31849 -13339795.35247  21403750.052    21403757.364
       242.000         207.000
  21152075.515   -18722341.11949 -14569062.12147  21152075.243    21152082.875
       238.000         202.000
  23115514.731    -8725778.98849  -6769948.39246  23115513.123    23115525.005
       219.000         163.000
  23616366.075    -4002963.12549  -3083426.44446  23616365.650    23616375.637
       221.000         167.000
 00  5 13  0 26  0.0000000  0  8G21G 3G17G31G23G29G15G 9
  21404398.104   -16491897.43849 -12831668.70747  21404397.424    21404405.655
       242.000         207.000
  21670295.378   -17044523.04249 -13249460.16747  21670294.807    21670303.315
       238.000         200.000
  21896105.686   -15715713.80349 -12233894.03747  21896104.572    21896113.770
       233.000         190.000
  23671401.297    -5588089.51949  -4333283.97645  23671400.111    23671410.446
       217.000         156.000
  21410879.083   -17967971.61549 -13310605.20647  21410878.607    21410885.817
       241.000         207.000
  21139014.720   -18790975.84149 -14622543.62247  21139014.695    21139022.461
       239.000         203.000
  23098205.465    -8816738.91949  -6840826.11345  23098204.246    23098214.949
       220.000         162.000
  23610688.361    -4032799.00549  -3106675.11946  23610687.311    23610698.230
       219.000         166.000
 00  5 13  0 26 30.0000000  0  8G21G 3G17G31G23G29G15G 9
  21399395.239   -16518187.65349 -12852154.55747  21399394.428    21399402.432
       242.000         207.000
  21666808.700   -17062845.40249 -13263737.33147  21666808.461    21666816.581
       237.000         200.000
  21907545.339   -15655598.80549 -12187051.23547  21907544.413    21907553.172
       234.000         190.000
  23657545.194    -5660903.64149  -4390022.16745  23657545.322    23657554.019
       219.000         158.000
  21418031.171   -17930387.14049 -13281318.61247  21418030.696    21418038.013
       241.000         206.000
  21126033.937   -18859190.15949 -14675697.54947  21126033.621    21126041.509
       239.000         204.000
  23080902.684    -8907664.91049  -6911677.40945  23080901.454    23080912.390
       218.000         160.000
  23605100.037    -4062165.54449  -3129558.06946  23605099.779    23605109.570
       221.000         168.000
 00  5 13  0 27  0.0000000  0  8G21G 3G17G31G23G29G15G 9
  21394425.879   -16544301.72049 -12872503.14547  21394425.308    21394432.975
       241.000         207.000
  21663431.382   -17080592.96649 -13277566.60547  21663431.329    21663439.481
       239.000         200.000
  21919046.662   -15595158.35149 -12139954.86647  21919046.340    21919053.174
       233.000         189.000
  23643769.065    -5733298.09349  -4446433.31945  23643767.790    23643777.958
       220.000         159.000
  21425206.566   -17892680.12649 -13251936.53647  21425205.869    21425213.372
       240.000         206.000
  21113133.319   -18926982.93849 -14728523.00047  21113133.072    21113140.424
       239.000         204.000
  23063606.694    -8998555.79949  -6982501.33945  23063606.008    23063615.812
       222.000         161.000
  23599601.401    -4091061.06549  -3152073.99646  23599601.046    23599611.345
       221.000         169.000
 00  5 13  0 27 30.0000000  0  8G21G 3G17G31G23G29G15G 9
  21389489.935   -16570239.88449 -12892714.65947  21389489.135    21389497.166
       241.000         207.000
  21660163.562   -17097765.40749 -13290947.70247  21660163.471    21660171.894
       239.000         201.000
  21930610.067   -15534392.33849 -12092604.77747  21930610.594    21930618.546
       234.000         189.000
  23630073.035    -5805270.30249  -4502515.47145  23630072.311    23630082.341
       218.000         159.000
  21432405.110   -17854851.32749 -13222459.56547  21432404.635    21432411.859
       241.000         205.000
  21100313.288   -18994352.22349 -14781018.45847  21100312.747    21100320.531
       239.000         204.000
  23046317.699    -9089410.06949  -7053296.75746  23046316.917    23046327.116
       221.000         164.000
  23594192.730    -4119483.45149  -3174221.24246  23594192.790    23594202.776
       224.000         171.000
 00  5 13  0 28  0.0000000  0  8G21G 3G17G31G23G29G15G 9
  21384587.412   -16596002.67349 -12912789.52747  21384586.779    21384594.522
       242.000         207.000
  21657005.429   -17114361.98049 -13303880.09647  21657004.917    21657013.379
       239.000         200.000
  21942235.342   -15473300.82349 -12045001.10047  21942235.856    21942243.092
       234.000         188.000
  23616457.787    -5876818.21449  -4558266.99145  23616457.657    23616466.558
       217.000         159.000
  21439626.756   -17816901.42549 -13192888.22547  21439626.066    21439633.413
       241.000         205.000
  21087574.124   -19061296.39149 -14833182.65547  21087573.936    21087581.568
       239.000         204.000
  23029035.961    -9180225.97849  -7124062.25146  23029035.081    23029045.402
       222.000         165.000
  23588874.735    -4147430.22549  -3195997.88846  23588874.142    23588884.319
       226.000         173.000
 00  5 13  0 28 30.0000000  0  8G21G 3G17G31G23G29G15G 9
  21379718.077   -16621591.26649 -12932728.65847  21379717.609    21379724.942
       242.000         207.000
  21653957.061   -17130382.40849 -13316363.54647  21653956.508    21653964.636
       240.000         200.000
  21953922.779   -15411884.11149 -11997143.96047  21953921.796    21953930.796
       233.000         188.000
  23602923.774    -5947939.66449  -4613686.18545  23602923.226    23602932.880
       214.000         158.000
  21446871.216   -17778831.53249 -13163223.38747  21446870.700    21446878.070
       241.000         205.000
  21074916.179   -19127813.99949 -14885014.46947  21074915.889    21074923.560
       239.000         204.000
  23011761.697    -9271002.35249  -7194796.96246  23011761.339    23011770.708
       221.000         165.000
  23583647.564    -4174899.47049  -3217402.43946  23583647.411    23583656.408
       227.000         173.000
 00  5 13  0 29  0.0000000  0  8G21G 3G17G31G23G29G15G 9
  21374881.784   -16647005.88549 -12952532.21947  21374880.968    21374889.051
       242.000         207.000
  21651018.193   -17145826.15349 -13328397.62147  21651017.612    21651025.989
       239.000         200.000
  21965671.640   -15350142.23049 -11949033.48846  21965671.322    21965681.208
       232.000         187.000
  23589471.281    -6018632.52949  -4668771.42545  23589470.220    23589480.244
       217.000         159.000
  21454138.294   -17740642.64749 -13133465.83047  21454137.670    21454145.403
       241.000         205.000
  21062339.629   -19193903.85849 -14936512.96747  21062339.476    21062346.903
       240.000         205.000
  22994495.232    -9361737.89549  -7265499.85746  22994494.193    22994504.058
       220.000         165.000
  23578511.529    -4201889.44849  -3238433.52246  23578510.947    23578520.897
       225.000         172.000
 00  5 13  0 29 30.0000000  0  8G21G 3G17G31G23G29G15G 9
  21370078.709   -16672246.17249 -12972199.94547  21370078.143    21370085.916
       242.000         207.000
  21648189.099   -17160692.76749 -13339981.99847  21648189.131    21648196.878
       240.000         201.000
  21977482.832   -15288075.04149 -11900669.51046  21977481.466    21977490.629
       231.000         187.000
  23576100.734    -6088894.34049  -4723520.78245  23576099.596    23576109.502
       218.000         161.000
  21461427.878   -17702335.34349 -13103616.00147  21461427.213    21461434.772
       241.000         205.000
  21049844.943   -19259563.85649 -14987676.51847  21049844.486    21049852.009
       240.000         205.000
  22977236.777    -9452430.70949  -7336169.45046  22977235.321    22977245.204
       217.000         163.000
  23573467.110    -4228397.96749  -3259089.43646  23573467.118    23573476.202
       228.000         172.000
 00  5 13  0 30  0.0000000  0  8G21G 3G17G31G23G29G15G 9
  21365308.647   -16697313.00649 -12991732.51047  21365307.935    21365315.962
       242.000         208.000
  21645470.132   -17174981.67249 -13351116.20147  21645469.413    21645477.948
       238.000         200.000
  21989355.694   -15225682.57349 -11852052.09946  21989355.316    21989363.953
       231.000         186.000
  23562812.739    -6158722.65549  -4777932.35645  23562812.434    23562821.504
       221.000         162.000
  21468739.941   -17663910.36849 -13073674.48547  21468739.361    21468747.155
       241.000         205.000
  21037432.278   -19324792.50649 -15038503.94747  21037431.759    21037439.682
       239.000         205.000
  22959986.790    -9543079.13249  -7406804.44545  22959985.113    22959996.624
       217.000         162.000
  23568514.742    -4254422.86849  -3279368.55446  23568515.236    23568523.477
       231.000         173.000
 00  5 13  0 30 30.0000000  0  8G21G 3G17G31G23G29G15G 9
  21360571.388   -16722207.18149 -13011130.53547  21360570.645    21360578.472
       242.000         208.000
  21642860.765   -17188692.97149 -13361800.32847  21642860.290    21642868.539
       238.000         200.000
  22001290.454   -15162965.24049 -11803181.50647  22001290.833    22001300.157
       234.000         188.000
  23549607.734    -6228115.56249  -4832004.65645  23549607.356    23549617.080
       219.000         162.000
  21476074.171   -17625368.78549 -13043642.09647  21476073.873    21476081.235
       241.000         205.000
  21025101.910   -19389588.70649 -15088994.40947  21025101.505    21025109.149
       240.000         205.000
  22942745.499    -9633681.96749  -7477403.92246  22942743.929    22942754.461
       220.000         163.000
  23563654.682    -4279962.50949  -3299269.56146  23563654.312    23563664.488
       233.000         174.000
 00  5 13  0 31  0.0000000  0  8G21G 3G17G31G23G29G15G 9
  21355866.858   -16746929.51649 -13030394.65847  21355866.002    21355874.086
       241.000         208.000
  21640361.598   -17201826.28049 -13372034.07547  21640361.340    21640369.464
       239.000         200.000
  22013286.993   -15099922.95849 -11754057.72946  22013287.268    22013294.910
       232.000         186.000
  23536485.814    -6297070.79949  -4885735.91546  23536485.290    23536494.361
       221.000         163.000
  21483430.541   -17586711.39649 -13013519.47147  21483429.941    21483437.392
       240.000         205.000
  21012854.137   -19453950.79649 -15139146.60447  21012853.844    21012861.164
       240.000         206.000
  22925513.149    -9724237.73049  -7547966.72546  22925512.278    22925521.865
       221.000         165.000
  23558887.449    -4305014.99949  -3318790.96846  23558887.761    23558896.520
       232.000         176.000
 00  5 13  0 31 30.0000000  0  8G21G 3G17G31G23G29G15G 9
  21351195.095   -16771479.43649 -13049524.43247  21351194.336    21351202.481
       242.000         208.000
  21637972.513   -17214380.70249 -13381816.74147  21637972.144    21637980.588
       239.000         201.000
  22025345.478   -15036555.79349 -11704680.79546  22025346.060    22025354.854
       233.000         187.000
  23523447.761    -6365586.19849  -4939124.43446  23523446.747    23523456.113
       220.000         163.000
  21490808.769   -17547938.89349 -12983307.14947  21490808.163    21490815.512
       240.000         204.000
  21000689.125   -19517877.31649 -15188959.39547  21000688.806    21000696.455
       239.000         206.000
  22908290.197    -9814744.82049  -7618491.62646  22908289.981    22908298.506
       222.000         165.000
  23554213.230    -4329578.23249  -3337931.10346  23554212.948    23554222.292
       230.000         179.000
 00  5 13  0 32  0.0000000  0  8G21G 3G17G31G23G29G15G 9
  21346555.932   -16795858.12849 -13068520.79047  21346555.257    21346563.261
       242.000         208.000
  21635693.636   -17226356.68449 -13391148.67747  21635693.061    21635701.398
       236.000         200.000
  22037465.729   -14972864.14749 -11655051.03546  22037465.260    22037473.349
       233.000         187.000
  23510493.741    -6433659.86649  -4992168.77846  23510492.924    23510502.203
       222.000         163.000
  21498208.559   -17509052.59949 -12953006.15547  21498207.701    21498215.110
       240.000         204.000
  20988607.343   -19581367.02049 -15238431.81747  20988607.110    20988614.738
       240.000         206.000
  22891076.676    -9905202.00849  -7688977.62746  22891075.058    22891085.708
       220.000         165.000
  23549632.408    -4353650.67449  -3356688.77046  23549631.879    23549641.529
       226.000         180.000
 00  5 13  0 32 30.0000000  0  8G21G 3G17G31G23G29G15G 9
  21341949.304   -16820065.96149 -13087384.01047  21341948.676    21341956.446
       242.000         208.000
  21633524.662   -17237753.89449 -13400029.62447  21633524.213    21633532.589
       238.000         200.000
  22049647.647   -14908848.15249 -11605168.49146  22049646.877    22049656.546
       231.000         186.000
  23497624.241    -6501289.28349  -5044866.94546  23497623.404    23497632.704
       221.000         163.000
  21505629.837   -17470053.27349 -12922617.08647  21505629.363    21505636.783
       240.000         204.000
  20976609.059   -19644418.47749 -15287562.74647  20976608.966    20976616.188
       240.000         206.000
  22873872.828    -9995607.73249  -7759423.52546  22873870.599    22873882.334
       220.000         164.000
  23545145.275    -4377230.43149  -3375062.51346  23545144.975    23545154.623
       222.000         178.000
 00  5 13  0 33  0.0000000  0  8G21G 3G17G31G23G29G15G 9
  21337375.100   -16844103.47949 -13106114.51947  21337374.443    21337382.447
       243.000         208.000
  21631466.006   -17248571.77649 -13408459.16447  21631465.958    21631474.155
       239.000         201.000
  22061891.126   -14844507.62649 -11555033.12346  22061891.420    22061900.605
       233.000         187.000
  23484839.605    -6568472.25449  -5097217.22546  23484838.425    23484848.327
       217.000         163.000
  21513072.535   -17430941.45849 -12892140.36247  21513071.950    21513079.758
       240.000         204.000
  20964694.503   -19707029.81449 -15336350.72547  20964694.134    20964701.576
       241.000         206.000
  22856679.181   -10085960.18049  -7829827.92046  22856678.880    22856687.749
       221.000         166.000
  23540752.241    -4400315.20949  -3393050.56946  23540751.067    23540762.061
       223.000         175.000
 00  5 13  0 33 30.0000000  0  8G21G 3G17G31G23G29G15G 9
  21332833.199   -16867971.01749 -13124712.57147  21332832.647    21332840.311
       242.000         208.000
  21629517.740   -17258810.14049 -13416437.11647  21629517.397    21629525.503
       238.000         200.000
  22074196.546   -14779842.97349 -11504645.14146  22074195.113    22074204.556
       229.000         185.000
  23472140.323    -6635206.73949  -5149218.01746  23472139.456    23472149.461
       218.000         163.000
  21520536.580   -17391718.07749 -12861576.71047  21520536.093    21520543.626
       240.000         204.000
  20952863.888   -19769200.00449 -15384794.95447  20952863.604    20952870.922
       241.000         207.000
  22839496.118   -10176257.72049  -7900189.52946  22839495.466    22839505.917
       221.000         168.000
  23536453.710    -4422903.45249  -3410651.73946  23536453.512    23536463.439
       223.000         175.000
 00  5 13  0 34  0.0000000  0  8G21G 3G17G31G23G29G15G 9
  21328323.616   -16891669.00449 -13143178.50547  21328322.929    21328330.818
       242.000         208.000
  21627679.837   -17268468.75749 -13423963.31647  21627679.399    21627687.921
       237.000         200.000
  22086563.528   -14714854.25749 -11454004.67746  22086563.860    22086572.775
       234.000         187.000
  23459526.870    -6701490.64349  -5200867.72846  23459525.838    23459536.156
       218.000         163.000
  21528021.650   -17352383.85349 -12830926.67547  21528021.311    21528028.561
       240.000         204.000
  20941117.456   -19830927.52149 -15432894.24147  20941117.166    20941124.688
       241.000         207.000
  22822323.825   -10266498.79949  -7970507.14246  22822323.084    22822332.694
       223.000         168.000
  23532250.210    -4444993.02849  -3427864.35146  23532249.523    23532259.434
       224.000         173.000
 00  5 13  0 34 30.0000000  0  8G21G 3G17G31G23G29G15G 9
  21323846.057   -16915198.79849 -13161513.39547  21323845.379    21323853.215
       242.000         208.000
  21625951.919   -17277548.63049 -13431038.54547  21625951.665    21625960.063
       239.000         201.000
  22098991.978   -14649542.90149 -11403112.80846  22098991.247    22099000.234
       230.000         186.000
  23446999.261    -6767322.89749  -5252165.50946  23446998.411    23447008.296
       219.000         163.000
  21535527.425   -17312940.60249 -12800191.69047  21535526.915    21535534.457
       240.000         204.000
  20929455.378   -19892212.06749 -15480648.36347  20929455.030    20929462.566
       240.000         207.000
  22805162.344   -10356682.83649  -8040780.34546  22805160.986    22805171.017
       221.000         166.000
  23528141.587    -4466583.60249  -3444688.14846  23528140.507    23528151.324
       223.000         169.000
 00  5 13  0 35  0.0000000  0  8G21G 3G17G31G23G29G15G 9
  21319400.530   -16938560.20349 -13179717.06647  21319399.877    21319407.790
       243.000         208.000
  21624334.500   -17286048.48249 -13437661.81547  21624334.315    21624342.420
       238.000         200.000
  22111481.993   -14583907.67149 -11351968.54046  22111481.980    22111491.320
       233.000         187.000
  23434558.366    -6832700.22449  -5303108.78446  23434557.354    23434567.379
       217.000         165.000
  21543054.070   -17273387.78249 -12769371.32947  21543053.564    21543061.232
       240.000         203.000
  20917877.968   -19953051.11849 -15528055.34247  20917877.285    20917884.915
       240.000         207.000
  22788012.254   -10446807.09449  -8111006.94046  22788011.028    22788020.684
       218.000         164.000
  23524128.513    -4487672.12649  -3461120.73246  23524128.805    23524137.689
       225.000         168.000
 00  5 13  0 35 30.0000000  0  8G21G 3G17G31G23G29G15G 9
  21314986.917   -16961753.92349 -13197790.07747  21314986.362    21314994.049
       243.000         209.000
  21622827.335   -17293968.71649 -13443833.44747  21622826.838    21622835.188
       238.000         200.000
  22124033.576   -14517949.58349 -11300572.69746  22124031.232    22124042.361
       227.000         185.000
  23422204.308    -6897621.11249  -5353696.40746  23422202.966    23422213.086
       220.000         165.000
  21550601.343   -17233727.16349 -12738466.97847  21550600.750    21550608.359
       240.000         203.000
  20906385.475   -20013443.90549 -15575114.58847  20906385.281    20906392.543
       240.000         207.000
  22770873.463   -10536870.85749  -8181186.37346  22770872.553    22770881.922
       220.000         166.000
  23520211.264    -4508257.55849  -3477161.30046  23520211.566    23520221.117
       226.000         169.000
 00  5 13  0 36  0.0000000  0  8G21G 3G17G31G23G29G15G 9
  21310605.330   -16984779.33449 -13215731.93247  21310604.655    21310612.476
       243.000         209.000
  21621430.765   -17301308.12449 -13449552.47247  21621430.525    21621438.739
       239.000         200.000
  22136646.471   -14451667.68849 -11248924.55546  22136646.049    22136655.164
       231.000         185.000
  23409937.652    -6962082.27649  -5403925.83146  23409936.328    23409947.032
       221.000         165.000
  21558169.135   -17193958.08749 -12707478.10247  21558168.501    21558176.026
       240.000         203.000
  20894978.454   -20073387.99949 -15621824.20147  20894978.148    20894985.522
       240.000         207.000
  22753746.852   -10626870.87249  -8251316.13446  22753745.919    22753755.679
       223.000         169.000
  23516390.262    -4528336.90949  -3492807.51846  23516388.853    23516399.402
       219.000         166.000
 00  5 13  0 36 30.0000000  0  8G21G 3G17G31G23G29G15G 9
  21306255.395   -17007638.30449 -13233544.10247  21306254.697    21306262.330
       243.000         209.000
  21620144.466   -17308068.03549 -13454819.92747  21620143.846    21620152.235
       238.000         200.000
  22149320.837   -14385063.76149 -11197025.44346  22149319.595    22149329.809
       230.000         185.000
  23397758.608    -7026082.97749  -5453796.44846  23397758.189    23397767.031
       222.000         166.000
  21565757.217   -17154082.67549 -12676406.37147  21565756.727    21565764.079
       240.000         203.000
  20883656.816   -20132883.36949 -15668184.15247  20883656.485    20883663.811
       241.000         208.000
  22736632.505   -10716807.12349  -8321396.24146  22736632.207    22736641.204
       222.000         171.000
  23512665.561    -4547909.87449  -3508059.15346  23512664.621    23512674.714
       219.000         164.000
 00  5 13  0 37  0.0000000  0  8G21G 3G17G31G23G29G15G 9
  21301937.092   -17030330.99649 -13251226.70347  21301936.486    21301944.116
       242.000         209.000
  21618968.408   -17314248.38249 -13459635.80447  21618967.880    21618976.062
       238.000         200.000
  22162056.511   -14318137.55549 -11144875.22046  22162056.607    22162065.934
       231.000         185.000
  23385667.768    -7089621.07049  -5503306.59146  23385667.229    23385676.598
       223.000         168.000
  21573365.405   -17114101.30349 -12645252.07847  21573365.130    21573372.332
       240.000         203.000
  20872420.878   -20191928.56349 -15714193.33047  20872420.504    20872427.794
       241.000         208.000
  22719530.766   -10806677.49149  -8391425.00046  22719529.917    22719538.830
       225.000         170.000
  23509037.507    -4566974.49449  -3522914.64145  23509036.862    23509046.597
       216.000         162.000
 00  5 13  0 37 30.0000000  0  8G21G 3G17G31G23G29G15G 9
  21297650.310   -17052858.00149 -13268780.18847  21297649.814    21297657.721
       243.000         209.000
  21617902.562   -17319848.81549 -13463999.78447  21617902.118    21617910.738
       238.000         200.000
  22174853.432   -14250889.34849 -11092474.10846  22174853.219    22174862.640
       228.000         185.000
  23373665.406    -7152694.44349  -5552454.59146  23373663.450    23373673.660
       220.000         166.000
  21580993.631   -17074014.84949 -12614015.89147  21580992.989    21581000.411
       240.000         203.000
  20861270.771   -20250522.50449 -15759850.87547  20861270.473    20861277.655
       241.000         208.000
  22702441.841   -10896480.15949  -8461401.05746  22702440.398    22702449.737
       223.000         169.000
  23505506.458    -4585529.03849  -3537372.64345  23505504.978    23505515.993
       213.000         160.000
 00  5 13  0 38  0.0000000  0  8G21G 3G17G31G23G29G15G 9
  21293395.218   -17075218.53349 -13286203.96647  21293394.650    21293402.314
       242.000         209.000
  21616947.263   -17324868.70849 -13467911.39247  21616947.159    21616954.729
       239.000         200.000
  22187711.687   -14183318.57449 -11039821.62946  22187711.797    22187720.635
       230.000         182.000
  23361751.706    -7215300.55149  -5601238.50846  23361750.896    23361760.680
       220.000         164.000
  21588641.851   -17033823.08449 -12582697.64647  21588641.265    21588648.642
       240.000         203.000
  20850206.986   -20308662.81449 -15805154.94647  20850206.512    20850213.936
       241.000         208.000
  22685366.135   -10986212.84349  -8531322.52246  22685364.789    22685375.489
       223.000         169.000
  23502072.908    -4603571.07849  -3551431.31745  23502071.574    23502083.123
       212.000         159.000
 00  5 13  0 38 30.0000000  0  8G21G 3G17G31G23G29G15G 9
  21289171.357   -17097414.72049 -13303499.67047  21289170.634    21289178.740
       242.000         209.000
  21616102.407   -17329309.19949 -13471371.53147  21616102.014    21616110.476
       237.000         200.000
  22200631.387   -14115426.43649 -10986918.73346  22200630.363    22200640.602
       228.000         184.000
  23349927.037    -7277438.68149  -5649657.76646  23349926.362    23349936.622
       218.000         163.000
  21596309.774   -16993527.91249 -12551298.82847  21596309.206    21596316.556
       240.000         202.000
  20839229.557   -20366349.35949 -15850105.44247  20839229.372    20839236.429
       242.000         208.000
  22668304.081   -11075874.85549  -8601188.93746  22668303.120    22668313.394
       227.000         173.000
  23498737.041    -4621100.03649  -3565090.17245  23498736.024    23498746.827
       213.000         157.000
 00  5 13  0 39  0.0000000  0  8G21G 3G17G31G23G29G15G 9
  21284978.882   -17119446.17649 -13320667.02047  21284978.636    21284986.318
       243.000         209.000
  21615367.684   -17333169.68349 -13474379.70447  21615367.313    21615375.881
       239.000         200.000
  22213611.892   -14047212.99549 -10933765.50146  22213611.557    22213621.568
       229.000         183.000
  23338192.051    -7339106.15149  -5697710.25146  23338191.796    23338200.324
       221.000         164.000
  21603997.310   -16953129.80249 -12519819.79547  21603996.724    21604004.477
       240.000         202.000
  20828338.787   -20423580.51149 -15894701.07447  20828338.421    20828345.734
       243.000         208.000
  22651255.849   -11165464.27149  -8670998.79546  22651254.253    22651264.560
       225.000         175.000
  23495499.333    -4638114.08449  -3578347.80145  23495499.224    23495509.663
       213.000         154.000
 00  5 13  0 39 30.0000000  0  8G21G 3G17G31G23G29G15G 9
  21280817.643   -17141314.03649 -13337706.89547  21280817.217    21280824.762
       243.000         209.000
  21614743.439   -17336450.76649 -13476936.40447  21614742.965    21614750.958
       240.000         200.000
  22226653.634   -13978679.11549 -10880362.51846  22226652.858    22226662.853
       229.000         183.000
  23326547.014    -7400301.06949  -5745394.54946  23326547.287    23326555.683
       223.000         167.000
  21611704.247   -16912629.91549 -12488261.45747  21611703.969    21611711.231
       240.000         202.000
  20817534.788   -20480355.76949 -15938941.46947  20817534.261    20817541.570
       243.000         208.000
  22634221.425   -11254979.89949  -8740751.14346  22634219.686    22634230.318
       223.000         173.000
  23492359.989    -4654611.90849  -3591203.19745  23492359.468    23492370.209
       217.000         155.000
 00  5 13  0 40  0.0000000  0  8G21G 3G17G31G23G29G15G 9
  21276687.455   -17163017.97749 -13354619.03047  21276686.676    21276694.531
       242.000         209.000
  21614229.342   -17339152.43249 -13479041.60547  21614228.941    21614237.169
       238.000         200.000
  22239756.296   -13909824.57849 -10826709.75246  22239756.667    22239764.932
       228.000         182.000
  23314992.398    -7461021.32249  -5792708.98146  23314991.367    23315000.771
       221.000         167.000
  21619430.527   -16872028.52749 -12456624.03647  21619429.800    21619437.659
       239.000         203.000
  20806817.816   -20536673.39649 -15982825.27347  20806817.340    20806824.709
       242.000         209.000
  22617201.389   -11344419.66049  -8810444.36446  22617199.599    22617209.511
       222.000         171.000
  23489319.141    -4670591.78349  -3603654.99345  23489318.883    23489330.541
       220.000         152.000
 00  5 13  0 40 30.0000000  0  8G21G 3G17G31G23G29G15G 9
  21272588.168   -17184559.30649 -13371404.45147  21272587.434    21272595.297
       242.000         209.000
  21613825.448   -17341274.80749 -13480695.40747  21613824.820    21613833.022
       239.000         200.000
  22252919.836   -13840650.02849 -10772807.55746  22252919.894    22252929.016
       228.000         180.000
  23303528.220    -7521265.53149  -5839652.44146  23303527.663    23303537.400
       220.000         165.000
  21627175.861   -16831326.39849 -12424908.11147  21627175.298    21627182.836
       240.000         203.000
  20796188.134   -20592532.51849 -16026351.80247  20796187.779    20796194.872
       242.000         209.000
  22600196.172   -11433781.88849  -8880077.18146  22600195.130    22600204.860
       227.000         173.000
  23486377.263    -4686052.20949  -3615702.05245  23486376.360    23486385.230
       220.000         147.000
 00  5 13  0 41  0.0000000  0  8G21G 3G17G31G23G29G15G 9
  21268519.972   -17205937.77349 -13388062.97947  21268519.520    21268527.268
       243.000         209.000
  21613531.514   -17342818.28049 -13481898.13147  21613531.533    21613539.110
       238.000         200.000
  22266144.210   -13771155.80649 -10718656.31046  22266143.979    22266152.368
       227.000         179.000
  23292154.959    -7581031.44949  -5886223.22446  23292154.077    23292164.114
       220.000         166.000
  21634940.251   -16790524.31349 -12393114.30647  21634939.743    21634947.098
       239.000         203.000
  20785645.917   -20647931.90349 -16069520.09347  20785645.577    20785652.879
       242.000         209.000
  22583206.230   -11523064.99149  -8949648.34046  22583205.082    22583215.116
       227.000         177.000
  23483534.401    -4700991.73449  -3627343.23245  23483534.687    23483540.244
       221.000         141.000
 00  5 13  0 41 30.0000000  0  8G21G 3G17G31G23G29G15G 9
  21264482.839   -17227153.28549 -13404594.51947  21264482.215    21264490.000
       243.000         209.000
  21613348.105   -17343782.34249 -13482649.35847  21613347.881    21613356.693
       238.000         200.000
  22279429.619   -13701341.45149 -10664255.59246  22279428.742    22279438.553
       228.000         182.000
  23280873.306    -7640316.45449  -5932419.27446  23280872.977    23280882.095
       220.000         167.000
  21642723.656   -16749622.26449 -12361242.59947  21642723.105    21642730.905
       240.000         203.000
  20775191.541   -20702869.67949 -16112328.68847  20775191.364    20775198.373
       243.000         209.000
  22566231.709   -11612266.33549  -9019155.77446  22566229.844    22566240.525
       222.000         177.000
  23480791.054    -4715408.42449  -3638577.04745  23480790.117    23480797.239
       222.000         134.000
 00  5 13  0 42  0.0000000  0  8G21G 3G17G31G23G29G15G 9
  21260476.409   -17248206.85349 -13420999.86547  21260475.729    21260483.487
       242.000         209.000
  21613274.928   -17344167.55749 -13482949.53147  21613274.791    21613282.947
       240.000         200.000
  22292775.472   -13631207.56249 -10609605.86246  22292774.813    22292784.322
       227.000         179.000
  23269683.478    -7699119.14149  -5978239.47446  23269682.774    23269692.628
       219.000         166.000
  21650525.847   -16708621.36849 -12329293.86947  21650525.383    21650532.994
       239.000         202.000
  20764825.077   -20757345.37949 -16154777.21947  20764824.751    20764832.044
       243.000         209.000
  22549272.790   -11701384.86449  -9088598.65546  22549271.244    22549281.111
       222.000         173.000
  23478147.361    -4729301.11749  -3649402.58645  23478145.798    23478152.566
       222.000         134.000
 00  5 13  0 42 30.0000000  0  8G21G 3G17G31G23G29G15G 9
  21256500.671   -17269099.40149 -13437279.75247  21256500.331    21256507.945
       243.000         209.000
  21613311.688   -17343974.50349 -13482799.10447  21613311.546    21613319.386
       239.000         200.000
  22306182.091   -13560754.91349 -10554707.81246  22306183.091    22306192.510
       230.000         181.000
  23258585.674    -7757438.00049  -6023682.67846  23258584.847    23258594.690
       218.000         166.000
  21658346.695   -16667522.53549 -12297268.82347  21658346.069    21658353.719
       239.000         202.000
  20754546.762   -20811357.94249 -16196864.87647  20754546.546    20754553.693
       243.000         209.000
  22532330.085   -11790418.96449  -9157975.81146  22532330.003    22532338.855
       227.000         172.000
  23475603.687    -4742668.52249  -3659818.76445  23475603.468    23475611.827
       219.000         141.000
 00  5 13  0 43  0.0000000  0  8G21G 3G17G31G23G29G15G 9
  21252555.618   -17289831.14949 -13453434.33447  21252555.182    21252562.908
       244.000         210.000
  21613458.546   -17343203.51049 -13482198.34047  21613458.324    21613466.344
       237.000         200.000
  22319649.549   -13489983.94949 -10499561.68046  22319648.269    22319658.460
       227.000         180.000
  23247580.388    -7815271.13649  -6068747.40546  23247579.136    23247589.203
       219.000         166.000
  21666186.037   -16626326.68349 -12265168.18347  21666185.582    21666193.025
       240.000         202.000
  20744356.753   -20864906.61949 -16238591.05547  20744356.391    20744363.723
       243.000         210.000
  22515403.848   -11879367.00749  -9227285.89446  22515402.551    22515412.552
       226.000         176.000
  23473160.153    -4755509.36449  -3669824.55345  23473160.819    23473167.328
       219.000         146.000
 00  5 13  0 43 30.0000000  0  8G21G 3G17G31G23G29G15G 9
  21248641.027   -17310402.49249 -13469463.93247  21248640.372    21248648.414
       242.000         210.000
  21613715.234   -17341854.58549 -13481147.22947  21613715.216    21613723.322
       239.000         200.000
  22333177.394   -13418894.91649 -10444167.70546  22333176.554    22333186.883
       229.000         179.000
  23236667.842    -7872616.77749  -6113432.27246  23236666.990    23236677.112
       220.000         166.000
  21674043.713   -16585034.16349 -12232992.21947  21674042.872    21674050.710
       238.000         201.000
  20734255.279   -20917990.02349 -16279954.68747  20734254.944    20734262.147
       243.000         210.000
  22498494.198   -11968226.94349  -9296527.28546  22498492.937    22498502.749
       222.000         176.000
  23470817.047    -4767822.33149  -3679419.02345  23470816.622    23470824.482
       219.000         146.000
 00  5 13  0 44  0.0000000  0  8G21G 3G17G31G23G29G15G 9
  21244756.762   -17330813.91449 -13485368.90947  21244755.782    21244763.875
       243.000         210.000
  21614081.859   -17339928.04749 -13479646.03247  21614081.383    21614089.629
       240.000         200.000
  22346765.911   -13347488.00949 -10388526.04046  22346765.426    22346775.051
       227.000         180.000
  23225848.298    -7929472.79349  -6157735.59846  23225847.750    23225857.377
       219.000         166.000
  21681919.670   -16543645.50849 -12200741.34647  21681919.290    21681926.564
       239.000         201.000
  20724242.497   -20970607.23849 -16320955.05547  20724242.236    20724249.244
       244.000         210.000
  22481601.637   -12056997.20649  -9365698.79446  22481600.682    22481610.949
       222.000         175.000
  23468574.633    -4779605.82749  -3688600.92645  23468572.795    23468583.178
       219.000         147.000
 00  5 13  0 44 30.0000000  0  8G21G 3G17G31G23G29G15G 9
  21240902.917   -17351065.73349 -13501149.52747  21240902.669    21240909.888
       244.000         210.000
  21614558.217   -17337424.75649 -13477695.42847  21614557.543    21614565.883
       241.000         200.000
  22360414.458   -13275764.02049 -10332637.33646  22360415.756    22360423.132
       231.000         178.000
  23215122.369    -7985838.22349  -6201656.65446  23215121.566    23215130.811
       218.000         167.000
  21689813.868   -16502161.65849 -12168416.29247  21689813.065    21689820.681
       239.000         201.000
  20714318.631   -21022757.30749 -16361591.41447  20714318.296    20714325.421
       244.000         210.000
  22464726.597   -12145676.14349  -9434799.18946  22464725.724    22464734.601
       227.000         175.000
  23466433.270    -4790858.99749  -3697369.61345  23466432.847    23466440.698
       221.000         150.000
 00  5 13  0 45  0.0000000  0  8G21G 3G17G31G23G29G15G 9
  21237079.468   -17371158.70649 -13516806.37647  21237079.026    21237086.227
       244.000         210.000
  21615144.297   -17334344.86749 -13475295.52547  21615144.177    21615151.900
       239.000         200.000
  22374123.572   -13203723.38249 -10276501.84446  22374123.467    22374132.639
       230.000         179.000
  23204490.167    -8041710.84849  -6245193.70246  23204489.996    23204498.248
       218.000         166.000
  21697725.984   -16460583.16849 -12136017.49447  21697725.367    21697732.980
       238.000         201.000
  20704483.827   -21074439.36049 -16401863.08747  20704483.454    20704490.582
       244.000         211.000
  22447869.340   -12234261.90849  -9503827.00746  22447868.454    22447876.576
       227.000         174.000
  23464393.162    -4801580.17249  -3705723.76245  23464392.699    23464400.899
       222.000         153.000
 00  5 13  0 45 30.0000000  0  8G21G 3G17G31G23G29G15G 9
  21233286.224   -17391092.23749 -13532338.97347  21233285.392    21233292.859
       244.000         210.000
  21615840.087   -17330688.51849 -13472446.41947  21615839.336    21615847.793
       239.000         200.000
  22387892.949   -13131366.25349 -10220119.75546  22387891.285    22387902.466
       226.000         180.000
  23193951.900    -8097088.34349  -6288344.94846  23193951.871    23193960.529
       220.000         165.000
  21705655.970   -16418910.51249 -12103545.32547  21705655.567    21705663.273
       239.000         201.000
  20694738.365   -21125651.89249 -16441768.89947  20694737.951    20694745.181
       243.000         211.000
  22431030.101   -12322752.41449  -9572780.56646  22431028.212    22431038.057
       222.000         174.000
  23462454.483    -4811767.77749  -3713662.13445  23462453.761    23462463.172
       222.000         155.000
 00  5 13  0 46  0.0000000  0  8G21G 3G17G31G23G29G15G 9
  21229523.133   -17410867.11749 -13547747.95347  21229522.397    21229530.322
       243.000         210.000
  21616645.375   -17326455.98449 -13469148.36447  21616645.178    21616653.095
       237.000         200.000
  22401722.207   -13058692.73649 -10163491.15346  22401722.780    22401731.182
       231.000         181.000
  23183508.558    -8151969.13749  -6331109.15446  23183508.091    23183517.562
       221.000         166.000
  21713603.853   -16377144.17249 -12071000.15147  21713603.365    21713611.202
       238.000         201.000
  20685082.446   -21176393.94949 -16481308.11047  20685082.056    20685089.211
       244.000         211.000
  22414209.161   -12411145.66549  -9641658.30646  22414207.937    22414218.595
       225.000         174.000
  23460617.590    -4821420.63249  -3721183.82545  23460618.102    23460625.588
       221.000         157.000
 00  5 13  0 46 30.0000000  0  8G21G 3G17G31G23G29G15G 9
  21225790.171   -17430483.89949 -13563033.74047  21225789.322    21225797.172
       243.000         210.000
  21617560.217   -17321648.40749 -13465402.21847  21617559.875    21617568.138
       239.000         199.000
  22415611.666   -12985703.84749 -10106616.74446  22415609.796    22415620.826
       223.000         177.000
  23173159.876    -8206352.11449  -6373485.45746  23173159.226    23173167.949
       223.000         168.000
  21721569.418   -16335285.26249 -12038382.85047  21721568.971    21721576.486
       239.000         201.000
  20675516.109   -21226665.22949 -16520480.47947  20675515.708    20675522.857
       244.000         211.000
  22397407.257   -12499440.25949  -9710459.20946  22397406.458    22397415.971
       230.000         179.000
  23458882.562    -4830538.11249  -3728288.33745  23458882.484    23458891.932
       220.000         159.000
 00  5 13  0 47  0.0000000  0  8G21G 3G17G31G23G29G15G 9
  21222087.139   -17449942.97049 -13578196.63147  21222086.375    21222094.320
       244.000         210.000
  21618584.582   -17316265.61249 -13461207.83947  21618584.535    21618592.769
       240.000         200.000
  22429560.766   -12912399.55649 -10049496.64446  22429560.608    22429570.080
       225.000         177.000
  23162906.331    -8260234.62349  -6415471.77346  23162905.724    23162914.485
       222.000         169.000
  21729552.539   -16293333.84149 -12005693.44747  21729551.754    21729559.799
       238.000         201.000
  20666039.631   -21276464.07249 -16559284.71947  20666039.509    20666046.290
       244.000         211.000
  22380624.680   -12587633.94349  -9779181.48546  22380623.777    22380632.851
       228.000         178.000
  23457249.721    -4839118.10849  -3734973.98445  23457249.064    23457259.528
       216.000         159.000
 00  5 13  0 47 30.0000000  0  8G21G 3G17G31G23G29G15G 9
  21218414.133   -17469244.90849 -13593237.08147  21218413.708    21218421.174
       244.000         210.000
  21619718.262   -17310308.52049 -13456565.97047  21619717.721    21619726.382
       239.000         200.000
  22443570.067   -12838780.87649  -9992131.52846  22443569.340    22443579.135
       227.000         177.000
  23152748.207    -8313615.57349  -6457067.27246  23152747.766    23152755.968
       221.000         168.000
  21737553.074   -16251290.90449 -11972932.74647  21737552.795    21737560.055
       239.000         200.000
  20656653.201   -21325790.18449 -16597720.60047  20656652.917    20656659.954
       244.000         211.000
  22363861.453   -12675725.23649  -9847823.99646  22363860.522    22363869.675
       227.000         174.000
  23455719.218    -4847160.10549  -3741240.42145  23455717.665    23455727.840
       217.000         159.000
 00  5 13  0 48  0.0000000  0  8G21G 3G17G31G23G29G15G 9
  21214771.090   -17488389.92549 -13608155.26347  21214770.690    21214777.891
       244.000         210.000
  21620961.063   -17303777.32949 -13451476.75647  21620960.780    21620968.889
       238.000         200.000
  22457638.998   -12764847.90749  -9934521.51446  22457639.020    22457647.588
       226.000         173.000
  23142685.967    -8366493.41149  -6498270.73246  23142685.172    23142694.288
       223.000         169.000
  21745570.968   -16209156.73149 -11940100.95347  21745570.385    21745577.808
       239.000         200.000
  20647356.874   -21374642.34949 -16635787.16747  20647356.503    20647363.620
       244.000         211.000
  22347117.984   -12763712.06749  -9916385.09846  22347116.783    22347127.096
       228.000         175.000
  23454291.429    -4854662.64749  -3747086.49445  23454290.563    23454299.782
       218.000         161.000
 00  5 13  0 48 30.0000000  0  8G21G 3G17G31G23G29G15G 9
  21211157.679   -17507378.60149 -13622951.61947  21211156.812    21211164.402
       243.000         210.000
  21622313.120   -17296672.51949 -13445940.55347  21622313.114    21622321.076
       239.000         200.000
  22471767.931   -12690600.99349  -9876666.83846  22471768.538    22471777.456
       229.000         177.000
  23132719.679    -8418866.34949  -6539080.77446  23132719.621    23132727.993
       222.000         169.000
  21753606.148   -16166931.70949 -11907198.36347  21753605.692    21753613.287
       238.000         200.000
  20638150.968   -21423019.52549 -16673483.61747  20638150.596    20638157.646
       243.000         211.000
  22330394.848   -12851592.42249  -9984863.20446  22330393.820    22330403.198
       228.000         179.000
  23452966.436    -4861624.53649  -3752511.29245  23452965.390    23452975.276
       217.000         162.000
 00  5 13  0 49  0.0000000  0  8G21G 3G17G31G23G29G15G 9
  21207573.716   -17526211.86649 -13637626.87447  21207573.003    21207580.840
       243.000         210.000
  21623774.096   -17288995.48449 -13439958.46547  21623773.643    21623781.588
       238.000         200.000
  22485956.229   -12616041.73649  -9818568.82546  22485956.007    22485965.645
       226.000         178.000
  23122849.514    -8470733.51649  -6579496.72746  23122849.614    23122857.507
       220.000         168.000
  21761658.305   -16124617.45149 -11874226.24147  21761657.788    21761665.507
       238.000         200.000
  20629035.311   -21470922.07049 -16710810.22047  20629034.926    20629041.992
       242.000         212.000
  22313692.166   -12939365.70949 -10053257.89646  22313691.123    22313700.790
       229.000         179.000
  23451744.500    -4868045.74349  -3757514.79046  23451743.916    23451754.346
       217.000         163.000
 00  5 13  0 49 30.0000000  0  8G21G 3G17G31G23G29G15G 9
  21204019.583   -17544888.85149 -13652180.35347  21204018.993    21204026.509
       243.000         210.000
  21625343.660   -17280746.16049 -13433530.44447  21625343.476    21625351.772
       238.000         200.000
  22500203.788   -12541169.64549  -9760227.04546  22500202.774    22500213.620
       224.000         175.000
  23113076.461    -8522092.06749  -6619516.31846  23113075.751    23113084.756
       220.000         169.000
  21769727.498   -16082213.61849 -11841184.32947  21769726.822    21769734.832
       239.000         200.000
  20620010.441   -21518347.91949 -16747765.37447  20620010.154    20620016.965
       243.000         212.000
  22297010.329   -13027028.86349 -10121566.79446  22297008.782    22297017.628
       228.000         176.000
  23450625.913    -4873923.99349  -3762095.20746  23450626.019    23450635.776
       219.000         164.000
 00  5 13  0 50  0.0000000  0  8G21G 3G17G31G23G29G15G 9
  21200495.043   -17563410.39749 -13666612.71347  21200494.513    21200501.996
       244.000         210.000
  21627022.298   -17271925.14649 -13426656.94147  21627021.744    21627030.517
       238.000         200.000
  22514511.053   -12465985.47149  -9701642.04546  22514510.878    22514519.284
       226.000         177.000
  23103400.227    -8572940.48749  -6659138.39046  23103399.110    23103409.429
       221.000         171.000
  21777813.595   -16039721.08049 -11808073.30047  21777813.184    21777821.117
       238.000         200.000
  20611076.414   -21565296.37949 -16784348.53647  20611076.159    20611083.088
       243.000         212.000
  22280349.846   -13114579.88749 -10189788.31646  22280348.955    22280357.767
       229.000         177.000
  23449610.818    -4879258.07249  -3766251.60946  23449610.023    23449620.530
       218.000         165.000
 00  5 13  0 50 30.0000000  0  8G21G 3G17G31G23G29G15G 9
  21196999.925   -17581777.29249 -13680924.56447  21196999.233    21197006.732
       244.000         210.000
  21628809.347   -17262533.74249 -13419338.98447  21628809.047    21628816.938
       239.000         199.000
  22528877.333   -12390490.34549  -9642814.81246  22528876.573    22528887.464
       222.000         175.000
  23093821.225    -8623278.04449  -6698362.41046  23093820.321    23093829.983
       225.000         173.000
  21785916.429   -15997140.77649 -11774893.87147  21785915.824    21785923.435
       238.000         200.000
  20602233.272   -21611767.16949 -16820559.49447  20602232.881    20602239.816
       243.000         212.000
  22263711.040   -13202017.57349 -10257921.50246  22263710.894    22263719.433
       228.000         180.000
  23448699.297    -4884047.94549  -3769983.96346  23448698.534    23448708.895
       215.000         166.000
 00  5 13  0 51  0.0000000  0  8G21G 3G17G31G23G29G15G 9
  21193534.166   -17599989.64649 -13695115.99047  21193533.302    21193541.303
       243.000         211.000
  21630705.065   -17252572.13449 -13411576.70347  21630704.305    21630713.042
       237.000         199.000
  22543302.806   -12314684.24849  -9583745.21946  22543302.347    22543312.847
       225.000         174.000
  23084339.947    -8673102.54349  -6737186.65746  23084339.384    23084348.379
       224.000         174.000
  21794035.860   -15954472.64049 -11741645.98747  21794035.163    21794042.916
       237.000         199.000
  20593481.230   -21657759.27949 -16856397.44647  20593481.010    20593487.903
       243.000         212.000
  22247094.208   -13289339.37649 -10325964.36646  22247093.308    22247102.500
       227.000         180.000
  23447891.640    -4888292.00449  -3773290.98046  23447890.773    23447901.021
       215.000         164.000
 00  5 13  0 51 30.0000000  0  8G21G 3G17G31G23G29G15G 9
  21190097.754   -17618048.12049 -13709187.51447  21190097.501    21190104.952
       244.000         211.000
  21632708.940   -17242041.26249 -13403370.85147  21632708.567    21632717.199
       236.000         199.000
  22557787.463   -12238567.79349  -9524433.79746  22557786.999    22557796.072
       225.000         175.000
  23074956.501    -8722412.70249  -6775610.13246  23074955.251    23074965.365
       222.000         172.000
  21802171.919   -15911717.27349 -11708330.15347  21802171.591    21802179.098
       238.000         198.000
  20584820.462   -21703271.72249 -16891861.64947  20584820.216    20584826.967
       243.000         212.000
  22230499.644   -13376543.66249 -10393915.67446  22230498.806    22230507.488
       230.000         179.000
  23447188.049    -4891989.14449  -3776171.84546  23447187.430    23447198.243
       216.000         165.000
 00  5 13  0 52  0.0000000  0  8G21G 3G17G31G23G29G15G 9
  21186690.690   -17635952.80749 -13723139.20747  21186690.300    21186697.317
       244.000         211.000
  21634820.931   -17230942.33449 -13394722.37447  21634821.055    21634829.004
       238.000         199.000
  22572330.869   -12162141.80749  -9464881.18646  22572329.691    22572341.313
       221.000         173.000
  23065670.982    -8771207.51249  -6813632.01046  23065669.569    23065679.724
       222.000         170.000
  21810324.388   -15868875.71149 -11674947.14747  21810323.757    21810331.432
       237.000         198.000
  20576251.033   -21748304.42949 -16926952.01747  20576250.618    20576257.522
       243.000         212.000
  22213927.724   -13463629.04049 -10461774.35346  22213926.878    22213935.685
       230.000         179.000
  23446588.616    -4895139.02749  -3778626.28946  23446588.325    23446598.182
       217.000         166.000
 00  5 13  0 52 30.0000000  0  8G21G 3G17G31G23G29G15G 9
  21183312.756   -17653703.80249 -13736971.13447  21183311.728    21183319.674
       243.000         211.000
  21637041.313   -17219274.94849 -13385630.90947  21637040.868    21637049.579
       237.000         199.000
  22586933.252   -12085406.05349  -9405087.21646  22586931.053    22586942.225
       223.000         174.000
  23056484.184    -8819484.59849  -6851250.48146  23056483.239    23056492.360
       224.000         170.000
  21818493.381   -15825947.48849 -11641496.61047  21818492.922    21818500.058
       238.000         198.000
  20567773.105   -21792855.71449 -16961667.25547  20567772.787    20567779.562
       243.000         212.000
  22197379.006   -13550592.58649 -10529538.08046  22197377.555    22197387.431
       229.000         179.000
  23446093.744    -4897739.72449  -3780652.79046  23446093.877    23446104.273
       218.000         168.000
 00  5 13  0 53  0.0000000  0  8G21G 3G17G31G23G29G15G 9
  21179963.921   -17671301.55749 -13750683.65247  21179963.556    21179970.759
       244.000         211.000
  21639369.402   -17207040.81149 -13376097.84047  21639369.386    21639377.164
       238.000         199.000
  22601594.277   -12008361.91049  -9345052.89346  22601593.752    22601603.986
       223.000         172.000
  23047395.996    -8867243.20749  -6888464.95546  23047395.720    23047403.683
       227.000         173.000
  21826678.566   -15782934.14949 -11607979.74947  21826677.975    21826685.758
       237.000         198.000
  20559386.819   -21836925.72349 -16996007.47548  20559386.753    20559393.529
       243.000         213.000
  22180853.723   -13637433.11249 -10597205.91746  22180853.055    22180862.077
       230.000         181.000
  23445703.312    -4899791.43649  -3782251.49346  23445702.858    23445713.141
       217.000         168.000
 00  5 13  0 53 30.0000000  0  8G21G 3G17G31G23G29G15G 9
  21176644.296   -17688746.61249 -13764277.19547  21176643.685    21176651.057
       244.000         211.000
  21641805.223   -17194240.35849 -13366123.49047  21641804.870    21641813.489
       238.000         198.000
  22616313.877   -11931009.72349  -9284778.59046  22616314.491    22616322.812
       225.000         170.000
  23038407.047    -8914481.15449  -6925273.71646  23038406.803    23038415.461
       224.000         175.000
  21834879.982   -15739835.72749 -11574396.59047  21834879.817    21834886.945
       237.000         197.000
  20551092.371   -21880513.35449 -17029971.81448  20551092.065    20551098.770
       243.000         213.000
  22164352.310   -13724148.58849 -10664776.33346  22164351.129    22164360.736
       230.000         182.000
  23445417.519    -4901292.79149  -3783421.35646  23445417.185    23445427.054
       219.000         168.000
 00  5 13  0 54  0.0000000  0  8G21G 3G17G31G23G29G15G 9
  21173353.554   -17706039.46349 -13777752.13047  21173352.923    21173360.624
       244.000         211.000
  21644348.918   -17180874.40449 -13355708.47747  21644349.029    21644356.983
       239.000         198.000
  22631092.219   -11853350.54249  -9224265.03646  22631090.782    22631102.348
       224.000         174.000
  23029517.177    -8961197.37449  -6961675.92746  23029516.458    23029525.458
       224.000         174.000
  21843097.450   -15696652.80849 -11540747.59047  21843097.099    21843104.425
       237.000         198.000
  20542889.734   -21923618.31049 -17063560.04748  20542889.534    20542896.258
       243.000         213.000
  22147875.111   -13810736.90549 -10732247.66246  22147873.606    22147882.645
       229.000         180.000
  23445236.752    -4902242.98249  -3784161.74746  23445236.920    23445246.506
       221.000         169.000
 00  5 13  0 54 30.0000000  0  8G21G 3G17G31G23G29G15G 9
  21170091.603   -17723181.07949 -13791109.21747  21170091.181    21170098.522
       244.000         211.000
  21646999.770   -17166944.60849 -13344854.11247  21646999.284    21647007.800
       235.000         199.000
  22645928.590   -11775385.52349  -9163513.18346  22645928.920    22645937.491
       224.000         173.000
  23020726.726    -9007391.20449  -6997671.08846  23020725.493    23020735.080
       224.000         175.000
  21851330.792   -15653386.64849 -11507033.73747  21851330.059    21851337.549
       237.000         198.000
  20534778.947   -21966240.43549 -17096772.04648  20534778.709    20534785.487
       243.000         213.000
  22131422.273   -13897196.80549 -10799618.92846  22131421.596    22131429.993
       230.000         181.000
  23445160.912    -4902641.80049  -3784472.48946  23445160.353    23445169.953
       220.000         169.000
 00  5 13  0 55  0.0000000  0  8G21G 3G17G31G23G29G15G 9
  21166858.495   -17740171.04649 -13804348.13447  21166857.859    21166865.207
       244.000         211.000
  21649757.694   -17152451.06149 -13333560.45447  21649756.925    21649765.864
       237.000         199.000
  22660823.092   -11697114.49949  -9102522.91546  22660822.999    22660833.227
       224.000         172.000
  23012036.294    -9053060.63149  -7033257.61246  23012035.679    23012045.391
       223.000         175.000
  21859579.893   -15610037.00949 -11473254.81247  21859579.478    21859586.690
       236.000         197.000
  20526760.310   -22008378.53849 -17129606.88148  20526759.980    20526766.912
       243.000         213.000
  22114994.364   -13983525.63849 -10866888.04546  22114993.539    22115002.549
       229.000         183.000
  23445190.206    -4902487.82949  -3784352.47946  23445189.283    23445199.251
       222.000         167.000
 00  5 13  0 55 30.0000000  0  8G21G 3G17G31G23G29G15G 9
  21163654.241   -17757009.47049 -13817468.97747  21163653.917    21163660.976
       245.000         211.000
  21652622.916   -17137394.64549 -13321828.20647  21652622.341    21652630.288
       238.000         198.000
  22675775.994   -11618537.76249  -9041294.37846  22675776.227    22675785.225
       227.000         173.000
  23003445.792    -9098203.80949  -7068434.06646  23003444.587    23003454.209
       223.000         174.000
  21867844.952   -15566604.07649 -11439410.99647  21867844.636    21867852.036
       238.000         197.000
  20518833.943   -22050031.54649 -17162063.72548  20518833.677    20518840.589
       243.000         213.000
  22098591.823   -14069720.90849 -10934053.08746  22098591.144    22098599.671
       230.000         183.000
  23445324.978    -4901780.00749  -3783800.91346  23445325.389    23445333.885
       223.000         169.000
 00  5 13  0 56  0.0000000  0  8G21G 3G17G31G23G29G15G 9
  21160478.909   -17773696.42749 -13830471.78547  21160478.516    21160485.743
       245.000         212.000
  21655595.014   -17121776.13049 -13309657.95947  21655594.364    21655602.965
       239.000         198.000
  22690786.805   -11539655.82549  -8979828.04346  22690784.976    22690796.442
       220.000         172.000
  22994955.547    -9142819.03849  -7103199.14146  22994954.884    22994964.237
       223.000         175.000
  21876125.763   -15523088.30349 -11405502.62747  21876125.384    21876132.852
       238.000         197.000
  20511000.055   -22091198.71049 -17194141.99048  20510999.920    20511006.601
       243.000         213.000
  22082215.185   -14155780.61549 -11001112.50646  22082213.392    22082222.754
       229.000         183.000
  23445565.252    -4900517.47849  -3782817.09546  23445564.683    23445574.669
       222.000         168.000
 00  5 13  0 56 30.0000000  0  8G21G 3G17G31G23G29G15G 9
  21157332.275   -17790232.13249 -13843356.74147  21157331.444    21157338.976
       244.000         212.000
  21658673.970   -17105596.01949 -13297050.10647  21658674.012    21658682.191
       238.000         199.000
  22705855.377   -11460468.99449  -8918124.16846  22705854.224    22705865.286
       222.000         171.000
  22986566.192    -9186904.78549  -7137551.63446  22986565.042    22986574.541
       224.000         173.000
  21884422.287   -15479489.86149 -11371529.84347  21884421.810    21884429.391
       237.000         196.000
  20503258.762   -22131879.36949 -17225841.16048  20503258.559    20503265.384
       243.000         213.000
  22065864.538   -14241702.61449 -11068064.61146  22065863.311    22065872.381
       229.000         182.000
  23445911.231    -4898699.10049  -3781400.16046  23445911.243    23445920.854
       224.000         169.000
 00  5 13  0 57  0.0000000  0  8G21G 3G17G31G23G29G15G 9
  21154214.106   -17806617.84849 -13856124.81847  21154213.423    21154220.837
       244.000         211.000
  21661859.372   -17088856.55949 -13284006.39347  21661858.887    21661867.451
       237.000         199.000
  22720981.910   -11380979.22549  -8856184.16146  22720982.231    22720991.143
       226.000         171.000
  22978277.856    -9230461.02349  -7171491.53946  22978277.370    22978285.907
       224.000         174.000
  21892734.284   -15435810.15149 -11337493.73647  21892733.826    21892741.392
       236.000         196.000
  20495609.970   -22172073.89049 -17257161.52448  20495609.805    20495616.606
       243.000         213.000
  22049540.499   -14327485.93449 -11134908.67046  22049539.701    22049548.143
       232.000         183.000
  23446363.018    -4896325.14449  -3779550.31446  23446362.671    23446371.687
       223.000         169.000
 00  5 13  0 57 30.0000000  0  8G21G 3G17G31G23G29G15G 9
  21151124.349   -17822854.27849 -13868776.56747  21151123.612    21151131.212
       244.000         212.000
  21665150.966   -17071559.22049 -13270527.97347  21665150.458    21665158.581
       237.000         198.000
  22736165.928   -11301187.78349  -8794009.13946  22736164.861    22736176.281
       221.000         173.000
  22970090.225    -9273486.90749  -7205018.16546  22970089.678    22970098.830
       221.000         174.000
  21901061.486   -15392050.19849 -11303395.10447  21901061.071    21901068.565
       236.000         196.000
  20488053.672   -22211782.48049 -17288103.23748  20488053.416    20488059.949
       243.000         213.000
  22033243.174   -14413129.11749 -11201643.54146  22033242.324    22033250.844
       231.000         184.000
  23446920.497    -4893395.67549  -3777267.60546  23446919.595    23446929.563
       221.000         167.000
 00  5 13  0 58  0.0000000  0  8G21G 3G17G31G23G29G15G 9
  21148063.197   -17838940.72649 -13881311.45647  21148062.791    21148069.897
       245.000         212.000
  21668548.808   -17053703.51349 -13256614.47347  21668548.966    21668556.815
       239.000         198.000
  22751407.176   -11221093.83949  -8731598.38946  22751406.909    22751417.360
       221.000         170.000
  22962003.971    -9315979.53049  -7238129.24146  22962002.417    22962012.654
       222.000         174.000
  21909404.192   -15348208.89249 -11269233.07747  21909403.785    21909411.556
       236.000         196.000
  20480590.203   -22251003.02949 -17318664.66548  20480589.783    20480596.674
       243.000         214.000
  22016973.108   -14498628.70349 -11268266.49046  22016971.987    22016981.034
       231.000         186.000
  23447583.992    -4889908.51849  -3774550.33046  23447583.306    23447593.325
       222.000         165.000
 00  5 13  0 58 30.0000000  0  8G21G 3G17G31G23G29G15G 9
  21145030.692   -17854876.96849 -13893729.29447  21145030.210    21145037.315
       244.000         212.000
  21672052.651   -17035290.83549 -13242266.94747  21672052.250    21672060.445
       237.000         198.000
  22766706.021   -11140698.36949  -8668952.73346  22766706.217    22766715.767
       224.000         172.000
  22954019.406    -9357938.31749  -7270824.38446  22954020.292    22954027.660
       224.000         175.000
  21917762.291   -15304286.89649 -11235008.18047  21917761.729    21917769.494
       237.000         196.000
  20473219.673   -22289735.16049 -17348845.50248  20473219.415    20473226.174
       243.000         214.000
  22000730.632   -14583982.84349 -11334776.12546  22000729.262    22000738.023
       231.000         185.000
  23448353.790    -4885863.48149  -3771398.35346  23448353.533    23448362.558
       222.000         165.000
 00  5 13  0 59  0.0000000  0  8G21G 3G17G31G23G29G15G 9
  21142026.532   -17870664.12949 -13906030.97047  21142025.840    21142033.562
       244.000         212.000
  21675662.134   -17016322.69849 -13227486.62147  21675662.021    21675670.021
       237.000         198.000
  22782062.135   -11060002.69049  -8606073.04546  22782060.688    22782071.239
       222.000         171.000
  22946136.892    -9399362.18849  -7303102.68446  22946136.320    22946145.062
       223.000         175.000
  21926135.524   -15260285.39949 -11200721.33547  21926135.292    21926142.841
       237.000         197.000
  20465942.055   -22327979.21349 -17378646.02848  20465941.803    20465948.648
       243.000         214.000
  21984516.139   -14669190.22549 -11401171.42546  21984515.317    21984524.400
       231.000         184.000
  23449229.780    -4881260.23349  -3767811.40546  23449229.077    23449239.156
       225.000         168.000
 00  5 13  0 59 30.0000000  0  8G21G 3G17G31G23G29G15G 9
  21139050.544   -17886302.54949 -13918216.74347  21139049.800    21139057.486
       244.000         212.000
  21679377.252   -16996799.93949 -13212274.10947  21679376.750    21679385.619
       237.000         198.000
  22797475.073   -10979006.91049  -8542959.61446  22797474.457    22797485.683
       222.000         170.000
  22938356.080    -9440249.65049  -7334963.00046  22938355.297    22938364.996
       224.000         176.000
  21934524.050   -15216204.16549 -11166372.36147  21934523.455    21934531.263
       237.000         197.000
  20458757.462   -22365734.32349 -17408065.55748  20458757.217    20458764.032
       243.000         214.000
  21968330.095   -14754248.17649 -11467450.24346  21968328.563    21968338.408
       230.000         185.000
  23450212.282    -4876097.92849  -3763788.82746  23450212.126    23450220.990
       225.000         170.000
 00  5 13  1  0  0.0000000  0  8G21G 3G17G31G23G29G15G 9
  21136102.906   -17901792.48849 -13930286.81447  21136102.421    21136109.611
       245.000         212.000
  21683197.580   -16976724.09749 -13196630.62647  21683196.795    21683204.795
       238.000         198.000
  22812945.004   -10897712.20849  -8479613.18846  22812944.797    22812953.856
       223.000         169.000
  22930677.591    -9480599.94349  -7366404.74546  22930676.653    22930685.686
       221.000         175.000
  21942927.494   -15172043.98249 -11131961.86047  21942927.088    21942934.718
       237.000         197.000
  20451665.966   -22403000.13649 -17437103.81348  20451665.716    20451672.494
       244.000         214.000
  21952172.721   -14839154.83749 -11533611.17946  21952171.788    21952180.558
       232.000         186.000
  23451301.103    -4870376.18949  -3759330.31846  23451301.392    23451310.339
       223.000         169.000
 00  5 13  1  0 30.0000000  0  8G21G 3G17G31G23G29G15G 9
  21133183.440   -17917134.39949 -13942241.53947  21133182.562    21133190.244
       244.000         212.000
  21687122.953   -16956095.89249 -13180556.72847  21687122.278    21687131.710
       238.000         198.000
  22828471.853   -10816119.33649  -8416034.44446  22828471.348    22828481.099
       221.000         172.000
  22923101.635    -9520411.88849  -7397426.99846  22923101.167    22923110.035
       225.000         173.000
  21951345.830   -15127805.21049 -11097490.11947  21951345.650    21951352.774
       236.000         196.000
  20444667.645   -22439776.43849 -17465760.63048  20444667.121    20444674.209
       243.000         214.000
  21936044.750   -14923908.11749 -11599652.64646  21936043.973    21936052.347
       231.000         186.000
  23452496.530    -4864094.32549  -3754435.34746  23452495.705    23452504.890
       222.000         168.000
 00  5 13  1  1  0.0000000  0  8G21G 3G17G31G23G29G15G 9
  21130292.031   -17932328.22549 -13954080.87447  21130291.544    21130298.911
       245.000         212.000
  21691153.203   -16934916.78849 -13164053.56947  21691153.077    21691161.432
       236.000         198.000
  22844054.743   -10734229.30249  -8352224.13346  22844054.950    22844065.572
       219.000         168.000
  22915628.444    -9559684.39249  -7428028.91646  22915627.431    22915636.746
       223.000         174.000
  21959778.979   -15083488.40649 -11062957.57947  21959778.482    21959785.948
       236.000         196.000
  20437762.512   -22476062.89749 -17494035.75248  20437762.212    20437768.956
       243.000         214.000
  21919946.055   -15008506.30749 -11665573.22546  21919944.818    21919953.969
       230.000         186.000
  23453798.464    -4857252.29049  -3749103.87546  23453798.513    23453806.402
       223.000         167.000
 00  5 13  1  1 30.0000000  0  8G21G 3G17G31G23G29G15G 9
  21127429.031   -17947373.67249 -13965804.59347  21127428.526    21127435.895
       244.000         212.000
  21695288.189   -16913187.41349 -13147121.63047  21695288.205    21695296.013
       238.000         198.000
  22859694.522   -10652041.91149  -8288182.15946  22859694.283    22859706.169
       221.000         169.000
  22908258.056    -9598415.34849  -7458208.84246  22908257.933    22908266.596
       224.000         175.000
  21968227.131   -15039093.15249 -11028363.91547  21968226.873    21968234.046
       237.000         196.000
  20430950.791   -22511858.38649 -17521928.29948  20430950.537    20430957.370
       243.000         214.000
  21903877.479   -15092946.25249 -11731370.51146  21903876.812    21903885.492
       232.000         187.000
  23455207.359    -4849848.74549  -3743334.87246  23455207.358    23455216.246
       224.000         168.000
 00  5 13  1  2  0.0000000  0  8G21G 3G17G31G23G29G15G 9
  21124593.949   -17962271.71749 -13977413.45147  21124593.508    21124600.777
       244.000         212.000
  21699527.393   -16890910.09049 -13129762.71447  21699527.420    21699535.654
       237.000         197.000
  22875390.949   -10569558.79449  -8223909.70046  22875392.166    22875402.579
       227.000         173.000
  22900990.734    -9636604.28149  -7487966.42546  22900989.495    22900999.460
       222.000         174.000
  21976690.067   -14994620.61449 -10993710.01647  21976689.504    21976697.030
       236.000         196.000
  20424232.378   -22547163.43449 -17549438.68648  20424232.158    20424238.923
       243.000         214.000
  21887839.381   -15177226.87949 -11797043.64346  21887838.335    21887846.998
       231.000         187.000
  23456722.988    -4841884.11349  -3737128.63146  23456722.569    23456730.861
       224.000         168.000
 00  5 13  1  2 30.0000000  0  8G21G 3G17G31G23G29G15G 9
  21121786.828   -17977023.28849 -13988908.17147  21121786.312    21121793.615
       244.000         212.000
  21703870.789   -16868085.68249 -13111977.49047  21703870.663    21703878.625
       238.000         197.000
  22891143.292   -10486780.70749  -8159407.39446  22891140.833    22891154.701
       217.000         173.000
  22893826.774    -9674250.34649  -7517300.98546  22893825.924    22893835.661
       223.000         173.000
  21985167.613   -14950071.06949 -10958996.11447  21985167.215    21985174.694
       235.000         196.000
  20417607.453   -22581977.63849 -17576566.59648  20417607.405    20417613.991
       244.000         214.000
  21871831.988   -15261346.10149 -11862591.03446  21871830.917    21871839.485
       230.000         185.000
  23458345.480    -4833357.54449  -3730484.54146  23458346.215    23458353.429
       224.000         169.000
 00  5 13  1  3  0.0000000  0  8G21G 3G17G31G23G29G15G 9
  21119007.678   -17991627.94049 -14000288.40947  21119007.206    21119014.434
       244.000         212.000
  21708318.038   -16844714.79849 -13093766.44347  21708317.515    21708326.373
       238.000         197.000
  22906951.243   -10403708.05949  -8094675.66446  22906950.508    22906962.781
       219.000         169.000
  22886766.649    -9711352.11549  -7546211.40146  22886765.722    22886775.114
       223.000         174.000
  21993659.779   -14905444.49949 -10924222.19147  21993659.406    21993666.992
       236.000         195.000
  20411076.110   -22616299.95949 -17603311.22548  20411075.976    20411082.572
       243.000         215.000
  21855855.839   -15345301.10049 -11928010.44446  21855854.617    21855863.521
       232.000         186.000
  23460075.021    -4824268.54149  -3723402.18146  23460075.298    23460084.334
       223.000         169.000
 00  5 13  1  3 30.0000000  0  8G21G 3G17G31G23G29G15G 9
  21116256.453   -18006085.88749 -14011554.32747  21116255.740    21116263.369
       244.000         212.000
  21712869.075   -16820799.44349 -13075131.13147  21712868.574    21712877.399
       236.000         198.000
  22922815.475   -10320342.24849  -8029715.36746  22922816.574    22922827.234
       227.000         170.000
  22879810.146    -9747908.95749  -7574697.20446  22879809.607    22879818.417
       225.000         175.000
  22002166.397   -14860742.00749 -10889389.10047  22002165.898    22002173.806
       236.000         195.000
  20404638.293   -22650130.88049 -17629672.93748  20404638.203    20404644.642
       243.000         215.000
  21839911.181   -15429090.37249 -11993300.69847  21839910.575    21839919.166
       232.000         189.000
  23461911.513    -4814617.37349  -3715881.77646  23461911.736    23461920.741
       221.000         167.000
 00  5 13  1  4  0.0000000  0  8G21G 3G17G31G23G29G15G 9
  21113532.984   -18020397.62349 -14022706.31447  21113532.366    21113539.807
       245.000         212.000
  21717523.248   -16796341.19949 -13056072.79747  21717523.182    21717531.960
       237.000         198.000
  22938735.404   -10236684.09449  -7964527.29946  22938735.374    22938746.309
       224.000         171.000
  22872957.408    -9783920.05449  -7602757.76646  22872956.831    22872966.372
       224.000         175.000
  22010687.373   -14815963.91649 -10854497.10647  22010686.839    22010694.763
       236.000         195.000
  20398294.025   -22683470.12049 -17655651.52448  20398293.875    20398300.402
       243.000         215.000
  21823998.536   -15512711.56049 -12058459.99447  21823997.051    21824005.849
       232.000         188.000
  23463855.125    -4804403.39949  -3707922.80646  23463855.111    23463864.123
       221.000         166.000
 00  5 13  1  4 30.0000000  0  8G21G 3G17G31G23G29G15G 9
  21110837.371   -18034563.07049 -14033744.31247  21110836.572    21110844.044
       244.000         212.000
  21722280.681   -16771340.68249 -13036591.91847  21722281.308    21722289.071
       239.000         198.000
  22954710.510   -10152733.93249  -7899111.72746  22954709.485    22954722.271
       217.000         167.000
  22866208.883    -9819383.90949  -7630391.88346  22866207.364    22866216.966
       222.000         174.000
  22019222.833   -14771109.89649 -10819545.94647  22019222.230    22019230.604
       235.000         195.000
  20392043.424   -22716317.04349 -17681246.48848  20392043.172    20392049.823
       244.000         215.000
  21808118.329   -15596162.32849 -12123486.50747  21808118.094    21808126.526
       234.000         188.000
  23465905.982    -4793625.98249  -3699524.83246  23465904.972    23465914.935
       219.000         166.000
 00  5 13  1  5  0.0000000  0  8G21G 3G17G31G23G29G15G 9
  21108169.532   -18048582.18949 -14044668.28547  21108169.079    21108176.575
       245.000         212.000
  21727141.243   -16745799.35749 -13016689.60847  21727140.644    21727149.477
       237.000         197.000
  22970741.025   -10068492.49149  -7833469.20246  22970740.797    22970752.936
       222.000         168.000
  22859564.544    -9854299.40949  -7657598.73746  22859564.173    22859572.754
       226.000         174.000
  22027772.642   -14726180.31849 -10784535.91647  22027772.221    22027780.125
       235.000         195.000
  20385886.601   -22748671.24649 -17706457.51948  20385886.335    20385892.922
       243.000         215.000
  21792270.932   -15679440.63949 -12188378.61047  21792269.476    21792279.231
       233.000         190.000
  23468064.179    -4782284.67249  -3690687.43946  23468063.987    23468073.483
       219.000         166.000
 00  5 13  1  5 30.0000000  0  8G21G 3G17G31G23G29G15G 9
  21105529.579   -18062455.65949 -14055478.76648  21105529.226    21105536.326
       245.000         213.000
  21732104.220   -16719718.65549 -12996367.02147  21732103.828    21732112.330
       236.000         197.000
  22986827.237    -9983961.16549  -7767600.74846  22986827.391    22986837.378
       223.000         170.000
  22853024.863    -9888665.94249  -7684377.82746  22853024.560    22853033.035
       225.000         174.000
  22036336.835   -14681175.61349 -10749467.34047  22036336.482    22036344.001
       236.000         195.000
  20379823.535   -22780532.67149 -17731284.56748  20379823.392    20379830.000
       243.000         215.000
  21776456.718   -15762544.49949 -12253134.78247  21776455.723    21776464.167
       233.000         190.000
  23470329.500    -4770379.47949  -3681410.65946  23470327.870    23470339.244
       215.000         167.000
 00  5 13  1  6  0.0000000  0  8G21G 3G17G31G23G29G15G 9
  21102917.071   -18076184.33949 -14066176.42047  21102916.325    21102923.680
       244.000         212.000
  21737169.524   -16693100.29249 -12975625.49547  21737169.721    21737178.123
       237.000         197.000
  23002968.236    -9899141.10849  -7701507.32746  23002965.728    23002977.843
       214.000         166.000
  22846589.694    -9922483.05849  -7710728.76246  22846587.387    22846597.684
       221.000         173.000
  22044915.081   -14636096.73449 -10714340.95947  22044913.754    22044922.179
       235.000         195.000
  20373854.066   -22811901.95149 -17755728.12448  20373853.864    20373860.374
       244.000         215.000
  21760676.014   -15845472.38749 -12317753.85647  21760674.828    21760683.863
       233.000         189.000
  23472702.064    -4757910.87449  -3671694.86946  23472701.057    23472711.519
       213.000         166.000
 00  5 13  1  6 30.0000000  0  8G21G 3G17G31G23G29G15G 9
  21100332.449   -18089766.54649 -14076759.94447  21100331.934    21100339.445
       244.000         212.000
  21742337.224   -16665944.78649 -12954465.38347  21742336.973    21742344.695
       238.000         197.000
  23019163.824    -9814031.86649  -7635188.61846  23019165.583    23019174.486
       222.000         164.000
  22840259.273    -9955748.28149  -7736649.70146  22840259.787    22840267.407
       225.000         174.000
  22053507.612   -14590942.65749 -10679155.99847  22053507.005    22053514.934
       236.000         195.000
  20367978.716   -22842777.16349 -17779786.69548  20367978.472    20367985.450
       243.000         215.000
  21744929.444   -15928220.73249 -12382233.01647  21744928.829    21744937.435
       235.000         190.000
  23475182.119    -4744877.22049  -3661538.79746  23475181.090    23475192.276
       210.000         165.000
 00  5 13  1  7  0.0000000  0  8G21G 3G17G31G23G29G15G 9
  21097775.273   -18103204.40549 -14087230.98648  21097774.585    21097782.327
       244.000         213.000
  21747606.448   -16638254.59149 -12932888.64447  21747606.425    21747614.736
       239.000         197.000
  23035414.281    -9728635.60049  -7568646.21446  23035415.234    23035424.653
       221.000         164.000
  22834034.160    -9988462.35149  -7762141.13946  22834033.128    22834042.913
       221.000         174.000
  22062114.117   -14545714.91949 -10643913.63247  22062113.297    22062121.956
       235.000         194.000
  20362197.072   -22873159.74549 -17803461.40148  20362197.034    20362203.540
       244.000         215.000
  21729217.363   -16010788.52849 -12446571.46847  21729216.616    21729225.431
       234.000         191.000
  23477769.630    -4731279.63149  -3650943.30246  23477769.558    23477779.508
       213.000         165.000
 00  5 13  1  7 30.0000000  0  8G21G 3G17G31G23G29G15G 9
  21095245.695   -18116497.26549 -14097589.05148  21095245.026    21095252.602
       245.000         213.000
  21752977.440   -16610030.67349 -12910896.02147  21752976.428    21752985.529
       237.000         197.000
  23051719.326    -9642952.64549  -7501880.38446  23051716.779    23051730.961
       213.000         163.000
  22827914.060   -10020623.60849  -7787201.80846  22827913.344    22827922.808
       225.000         174.000
  22070734.736   -14500413.31349 -10608613.71447  22070734.249    22070742.306
       236.000         195.000
  20356509.309   -22903048.94749 -17826751.65848  20356509.132    20356515.706
       244.000         215.000
  21713540.214   -16093172.67949 -12510766.84047  21713539.419    21713547.727
       235.000         192.000
  23480464.659    -4717117.25149  -3639907.68246  23480464.303    23480474.098
       216.000         165.000
 00  5 13  1  8  0.0000000  0  8G21G 3G17G31G23G29G15G 9
  21092743.578   -18129645.71449 -14107834.57748  21092743.078    21092750.442
       245.000         213.000
  21758449.399   -16581275.17549 -12888489.19147  21758449.109    21758457.415
       239.000         197.000
  23068078.332    -9556984.11549  -7434892.10745  23068076.543    23068089.870
       212.000         158.000
  22821899.260   -10052231.40249  -7811831.22746  22821899.148    22821907.838
       226.000         174.000
  22079369.332   -14455038.54649 -10573256.78347  22079368.661    22079376.787
       234.000         194.000
  20350915.453   -22932444.84349 -17849657.51648  20350915.155    20350921.867
       244.000         215.000
  21697898.235   -16175371.55949 -12574817.86347  21697896.789    21697905.347
       233.000         191.000
  23483267.194    -4702390.24749  -3628432.08746  23483266.523    23483276.674
       214.000         166.000
 00  5 13  1  8 30.0000000  0  8G21G 3G17G31G23G29G15G 9
  21090269.187   -18142648.80149 -14117966.84048  21090268.711    21090276.129
       246.000         213.000
  21764022.427   -16551988.94649 -12865668.78647  21764022.041    21764030.607
       237.000         197.000
  23084491.809    -9470730.89949  -7367681.95045  23084492.518    23084503.915
       216.000         157.000
  22815990.069   -10083284.56149  -7836028.46446  22815988.920    22815998.488
       225.000         176.000
  22088017.767   -14409590.36749 -10537842.65047  22088017.374    22088025.300
       236.000         194.000
  20345415.518   -22961346.93949 -17872178.59748  20345415.372    20345421.971
       243.000         215.000
  21682291.825   -16257382.63749 -12638722.50647  21682291.062    21682300.088
       236.000         191.000
  23486177.201    -4687097.79449  -3616515.89146  23486176.608    23486186.489
       215.000         166.000
 00  5 13  1  9  0.0000000  0  8G21G 3G17G31G23G29G15G 9
  21087822.288   -18155507.59549 -14127986.66648  21087821.655    21087829.211
       245.000         213.000
  21769696.114   -16522173.47349 -12842436.00047  21769695.553    21769704.076
       235.000         197.000
  23100959.334    -9384193.77049  -7300250.52945  23100962.187    23100971.299
       220.000         161.000
  22810186.335   -10113782.34349  -7859792.93046  22810185.807    22810194.773
       225.000         176.000
  22096680.306   -14364068.68949 -10502371.24747  22096679.997    22096687.490
       236.000         194.000
  20340009.666   -22989754.72349 -17894314.49748  20340009.544    20340015.963
       244.000         216.000
  21666721.892   -16339203.47749 -12702478.93047  21666720.741    21666729.339
       235.000         192.000
  23489194.880    -4671239.76649  -3604158.96746  23489195.039    23489205.150
       216.000         166.000
 00  5 13  1  9 30.0000000  0  8G21G 3G17G31G23G29G15G 9
  21085402.716   -18168222.36049 -14137894.26148  21085401.910    21085409.297
       245.000         213.000
  21775470.027   -16491830.58049 -12818792.21947  21775470.066    21775478.104
       237.000         196.000
  23117480.845    -9297373.83449  -7232598.78545  23117479.282    23117493.811
       212.000         161.000
  22804488.519   -10143724.33549  -7883124.32846  22804487.892    22804497.003
       226.000         176.000
  22105356.625   -14318474.44549 -10466843.30047  22105356.380    22105363.996
       235.000         193.000
  20334697.709   -23017668.91749 -17916065.78548  20334697.432    20334704.044
       244.000         216.000
  21651188.287   -16420832.58149 -12766085.96647  21651187.445    21651196.303
       235.000         191.000
  23492320.049    -4654816.97049  -3591362.00046  23492320.135    23492329.412
       211.000         165.000
 00  5 13  1 10  0.0000000  0  8G21G 3G17G31G23G29G15G 9
  21083010.416   -18180793.73149 -14147690.12148  21083009.866    21083017.095
       246.000         213.000
  21781344.097   -16460962.59949 -12794739.29347  21781343.929    21781352.523
       238.000         196.000
  23134055.768    -9210272.62749  -7164727.88645  23134054.507    23134067.698
       215.000         161.000
  22798896.719   -10173110.16249  -7906022.32946  22798896.342    22798904.783
       225.000         174.000
  22114046.636   -14272808.33649 -10431259.35447  22114046.015    22114054.041
       234.000         193.000
  20329479.597   -23045090.13249 -17937432.93348  20329479.334    20329486.119
       243.000         216.000
  21635691.640   -16502268.08749 -12829542.13247  21635691.353    21635699.035
       235.000         193.000
  23495552.560    -4637829.84949  -3578125.32746  23495552.258    23495562.195
       212.000         163.000
 00  5 13  1 10 30.0000000  0  8G21G 3G17G31G23G29G15G 9
  21080645.531   -18193221.57249 -14157374.14548  21080644.983    21080652.351
       245.000         213.000
  21787318.028   -16429570.29349 -12770277.79547  21787317.534    21787326.142
       237.000         196.000
  23150684.225    -9122890.47949  -7096638.07946  23150684.774    23150695.002
       219.000         164.000
  22793410.907   -10201938.73649  -7928486.12046  22793410.081    22793420.180
       226.000         176.000
  22122750.360   -14227070.00149 -10395619.12747  22122749.859    22122757.650
       235.000         193.000
  20324355.453   -23072017.48649 -17958415.25248  20324355.282    20324361.908
       244.000         216.000
  21620232.248   -16583507.22249 -12892845.28247  21620231.145    21620239.576
       235.000         193.000
  23498892.740    -4620277.57249  -3564448.25545  23498892.305    23498902.312
       207.000         162.000
 00  5 13  1 11  0.0000000  0  8G21G 3G17G31G23G29G15G 9
  21078307.804   -18205506.40749 -14166946.72348  21078307.232    21078314.517
       246.000         213.000
  21793390.957   -16397656.23949 -12745409.75347  21793391.149    21793399.074
       237.000         195.000
  23167365.626    -9035229.30349  -7028330.81946  23167366.306    23167375.879
       219.000         163.000
  22788031.118   -10230209.78049  -7950515.48146  22788029.825    22788038.967
       226.000         177.000
  22131467.705   -14181260.42549 -10359923.38647  22131466.684    22131474.952
       235.000         192.000
  20319325.193   -23098451.64549 -17979013.26848  20319325.064    20319331.542
       244.000         216.000
  21604810.509   -16664548.45249 -12955994.22347  21604809.012    21604817.721
       235.000         192.000
  23502340.196    -4602160.90749  -3550331.40045  23502339.709    23502349.630
       209.000         160.000
 00  5 13  1 11 30.0000000  0  8G21G 3G17G31G23G29G15G 9
  21075997.507   -18217647.11249 -14176407.00348  21075996.881    21076004.429
       245.000         213.000
  21799563.219   -16365220.78349 -12720135.42447  21799563.756    21799571.627
       237.000         196.000
  23184100.398    -8947288.64349  -6959805.76645  23184099.462    23184110.843
       216.000         162.000
  22782757.722   -10257921.52649  -7972109.00346  22782756.206    22782765.209
       225.000         175.000
  22140198.759   -14135378.47049 -10324171.24847  22140198.470    22140206.000
       233.000         191.000
  20314389.014   -23124391.51349 -17999226.12348  20314388.681    20314395.235
       244.000         216.000
  21589427.112   -16745388.07849 -13018986.08247  21589426.361    21589434.556
       237.000         193.000
  23505895.210    -4583478.49149  -3535773.69245  23505895.037    23505905.113
       210.000         162.000
 00  5 13  1 12  0.0000000  0  8G21G 3G17G31G23G29G15G 9
  21073714.443   -18229644.21349 -14185755.37948  21073713.782    21073721.197
       245.000         213.000
  21805834.355   -16332265.85249 -12694456.30747  21805834.965    21805842.871
       237.000         196.000
  23200887.909    -8859069.63749  -6891063.88745  23200887.750    23200897.922
       217.000         160.000
  22777590.540   -10285073.66749  -7993266.50946  22777590.392    22777598.715
       227.000         175.000
  22148943.431   -14089424.73349 -10288363.17447  22148943.056    22148951.353
       235.000         192.000
  20309546.826   -23149837.15949 -18019053.87248  20309546.673    20309553.205
       244.000         216.000
  21574082.583   -16826024.23849 -13081819.39447  21574080.975    21574090.294
       234.000         192.000
  23509558.007    -4564230.77049  -3520775.47246  23509557.962    23509567.555
       211.000         163.000
 00  5 13  1 12 30.0000000  0  8G21G 3G17G31G23G29G15G 9
  21071458.693   -18241498.16849 -14194992.21848  21071458.173    21071465.349
       246.000         213.000
  21812203.946   -16298793.58449 -12668374.06047  21812203.875    21812212.199
       237.000         196.000
  23217728.390    -8770573.73649  -6822106.20745  23217727.572    23217738.807
       215.000         161.000
  22772530.293   -10311665.99449  -8013987.77346  22772529.866    22772539.237
       225.000         177.000
  22157701.786   -14043399.63449 -10252499.49447  22157701.283    22157709.194
       233.000         192.000
  20304798.592   -23174789.24649 -18038497.02348  20304798.321    20304804.956
       244.000         216.000
  21558776.897   -16906455.06949 -13144492.69547  21558776.749    21558784.355
       237.000         194.000
  23513328.192    -4544418.38949  -3505337.26646  23513327.762    23513338.427
       211.000         164.000
 00  5 13  1 13  0.0000000  0  8G21G 3G17G31G23G29G15G 9
  21069230.259   -18253208.85949 -14204117.42148  21069229.636    21069237.055
       246.000         213.000
  21818671.751   -16264804.89149 -12641889.41447  21818672.377    21818680.078
       237.000         195.000
  23234621.156    -8681801.52149  -6752933.23546  23234621.236    23234631.987
       219.000         163.000
  22767576.341   -10337697.41549  -8034271.97846  22767575.376    22767585.007
       222.000         176.000
  22166473.616   -13997303.10249 -10216580.14947  22166473.000    22166481.137
       233.000         191.000
  20300144.339   -23199247.41049 -18057555.30148  20300143.953    20300150.583
       244.000         216.000
  21543511.063   -16986677.86549 -13207003.91847  21543510.028    21543517.798
       235.000         194.000
  23517205.818    -4524040.88149  -3489458.69946  23517205.218    23517215.688
       212.000         164.000
 00  5 13  1 13 30.0000000  0  8G21G 3G17G31G23G29G15G 9
  21067029.169   -18264775.95849 -14213130.73548  21067028.410    21067035.800
       246.000         213.000
  21825237.612   -16230301.41449 -12615003.61947  21825237.862    21825246.226
       236.000         196.000
  23251566.704    -8592754.01349  -6683545.71646  23251565.506    23251578.792
       216.000         165.000
  22762729.660   -10363166.94949  -8054118.35946  22762730.100    22762738.132
       228.000         177.000
  22175259.152   -13951135.04549 -10180605.06447  22175259.048    22175266.938
       235.000         192.000
  20295584.118   -23223211.26849 -18076228.40848  20295583.780    20295590.283
       244.000         216.000
  21528285.047   -17066690.34349 -13269351.23947  21528284.679    21528292.382
       237.000         194.000
  23521191.131    -4503098.07349  -3473139.63746  23521190.988    23521200.234
       215.000         164.000
 00  5 13  1 14  0.0000000  0  8G21G 3G17G31G23G29G15G 9
  21064854.957   -18276201.11349 -14222033.44548  21064854.105    21064861.689
       245.000         213.000
  21831900.873   -16195286.71849 -12587719.49047  21831900.510    21831909.043
       235.000         196.000
  23268563.849    -8503433.58649  -6613945.53146  23268564.128    23268575.686
       220.000         166.000
  22757989.859   -10388075.90649  -8073527.92346  22757989.122    22757997.215
       226.000         177.000
  22184057.959   -13904897.25149 -10144575.65547  22184057.447    22184065.957
       233.000         192.000
  20291117.637   -23246682.61249 -18094517.74448  20291117.622    20291124.130
       244.000         216.000
  21513099.460   -17146491.51049 -13331533.91447  21513098.302    21513107.242
       236.000         195.000
  23525283.736    -4481591.75249  -3456381.48346  23525283.575    23525292.899
       217.000         166.000
 00  5 13  1 14 30.0000000  0  8G21G 3G17G31G23G29G15G 9
  21062707.792   -18287484.07549 -14230825.36348  21062707.171    21062714.580
       246.000         213.000
  21838661.045   -16159762.01149 -12560037.95247  21838659.900    21838669.638
       234.000         195.000
  23285612.993    -8413841.00449  -6544133.27946  23285612.456    23285624.884
       220.000         166.000
  22753356.817   -10412423.17149  -8092499.79646  22753355.979    22753365.258
       225.000         176.000
  22192869.977   -13858589.80049 -10108491.94247  22192870.056    22192877.366
       236.000         191.000
  20286744.905   -23269661.33249 -18112423.21548  20286744.639    20286751.343
       244.000         216.000
  21497954.383   -17226079.03049 -13393550.10547  21497952.997    21497961.834
       235.000         194.000
  23529483.597    -4459521.82649  -3439184.15246  23529483.817    23529493.183
       218.000         167.000
 00  5 13  1 15  0.0000000  0  8G21G 3G17G31G23G29G15G 9
  21060587.769   -18298624.88549 -14239506.50248  21060587.099    21060594.637
       245.000         213.000
  21845517.992   -16123728.47049 -12531959.90547  21845517.623    21845526.496
       236.000         194.000
  23302713.809    -8323976.50349  -6474109.18046  23302713.457    23302723.555
       216.000         165.000
  22748830.600   -10436207.45949  -8111032.98546  22748829.833    22748839.247
       223.000         175.000
  22201695.559   -13812211.92349 -10072353.35247  22201694.687    22201702.866
       234.000         191.000
  20282466.081   -23292146.67449 -18129944.22848  20282465.941    20282472.440
       244.000         216.000
  21482850.512   -17305449.72749 -13455397.35547  21482850.112    21482858.111
       238.000         195.000
  23533790.819    -4436887.52449  -3421547.04146  23533790.726    23533800.255
       219.000         167.000
 00  5 13  1 15 30.0000000  0  8G21G 3G17G31G23G29G15G 9
  21058494.791   -18309623.15049 -14248076.57148  21058494.278    21058501.650
       245.000         213.000
  21852471.436   -16087188.02049 -12503486.87547  21852470.979    21852479.533
       235.000         194.000
  23319865.976    -8233841.30249  -6403874.12846  23319864.254    23319877.177
       213.000         163.000
  22744411.490   -10459428.43049  -8129127.24946  22744410.502    22744420.073
       224.000         175.000
  22210534.265   -13765763.70549 -10036159.97447  22210533.588    22210542.217
       233.000         191.000
  20278281.054   -23314138.85749 -18147080.96848  20278280.898    20278287.387
       244.000         216.000
  21467788.499   -17384601.30049 -13517073.84547  21467787.280    21467795.990
       235.000         196.000
  23538205.308    -4413689.21749  -3403470.43546  23538204.810    23538214.400
       218.000         164.000
 00  5 13  1 16  0.0000000  0  8G21G 3G17G31G23G29G15G 9
  21056429.024   -18320478.80149 -14256535.51148  21056428.468    21056435.813
       245.000         213.000
  21859521.119   -16050142.00449 -12474619.88947  21859520.809    21859529.593
       237.000         194.000
  23337069.648    -8143435.77349  -6333428.44246  23337069.133    23337081.973
       216.000         163.000
  22740100.052   -10482084.89349  -8146781.63146  22740100.266    22740108.327
       228.000         176.000
  22219386.542   -13719244.81049  -9999911.50647  22219386.429    22219393.741
       234.000         190.000
  20274189.986   -23335637.63749 -18163833.23548  20274189.810    20274196.362
       244.000         217.000
  21452768.515   -17463530.97449 -13578577.43247  21452768.397    21452775.398
       238.000         195.000
  23542727.107    -4389926.75849  -3384954.24645  23542727.089    23542735.726
       216.000         161.000
 00  5 13  1 16 30.0000000  0  8G21G 3G17G31G23G29G15G 9
  21054390.079   -18331193.40149 -14264884.54648  21054389.609    21054397.016
       245.000         213.000
  21866666.257   -16012593.78049 -12445361.58047  21866666.392    21866675.770
       238.000         194.000
  23354324.479    -8052762.60849  -6262774.22645  23354323.568    23354335.933
       216.000         162.000
  22735895.971   -10504178.27049  -8163997.23946  22735896.217    22735904.529
       227.000         178.000
  22228251.894   -13672657.17849  -9963609.46847  22228250.902    22228259.524
       232.000         189.000
  20270192.394   -23356644.87249 -18180202.48448  20270192.228    20270198.614
       244.000         217.000
  21437791.110   -17542238.10449 -13639907.60547  21437789.507    21437798.892
       235.000         195.000
  23547356.000    -4365602.17149  -3366000.02145  23547356.095    23547365.143
       215.000         158.000
 00  5 13  1 17  0.0000000  0  8G21G 3G17G31G23G29G15G 9
  21052378.102   -18341766.27449 -14273123.13348  21052377.552    21052384.850
       246.000         213.000
  21873906.847   -15974544.59449 -12415712.91147  21873906.769    21873915.039
       237.000         194.000
  23371629.982    -7961822.48449  -6191911.93145  23371629.388    23371641.850
       214.000         162.000
  22731799.099   -10525707.58149  -8180773.30746  22731798.923    22731807.315
       226.000         177.000
  22237130.260   -13626000.48849  -9927253.63247  22237130.215    22237138.053
       233.000         190.000
  20266288.474   -23377160.09249 -18196188.33948  20266288.271    20266294.720
       244.000         217.000
  21422856.463   -17620719.63049 -13701061.98447  21422856.335    21422863.762
       238.000         197.000
  23552091.777    -4340715.31649  -3346607.67245  23552091.167    23552101.341
       214.000         156.000
 00  5 13  1 17 30.0000000  0  8G21G 3G17G31G23G29G15G 9
  21050393.401   -18352196.25049 -14281250.38348  21050393.226    21050400.155
       246.000         213.000
  21881242.434   -15935995.48749 -12385674.70347  21881241.881    21881250.738
       234.000         194.000
  23388986.082    -7870615.65249  -6120841.83445  23388985.902    23388998.330
       215.000         161.000
  22727809.919   -10546671.32249  -8197108.67646  22727808.775    22727818.911
       227.000         177.000
  22246022.142   -13579273.71949  -9890843.17547  22246021.820    22246029.269
       234.000         190.000
  20262478.319   -23397182.40449 -18211790.11448  20262478.088    20262484.604
       244.000         217.000
  21407965.436   -17698972.45349 -13762038.15047  21407964.235    21407972.307
       237.000         196.000
  23556934.653    -4315265.34549  -3326776.54245  23556934.194    23556944.362
       215.000         156.000
 00  5 13  1 18  0.0000000  0  8G21G 3G17G31G23G29G15G 9
  21048435.664   -18362484.31249 -14289267.04148  21048434.922    21048442.248
       246.000         213.000
  21888672.794   -15896948.70849 -12355248.67447  21888671.908    21888681.100
       233.000         193.000
  23406392.776    -7779143.57549  -6049565.04245  23406391.282    23406405.413
       214.000         159.000
  22723928.263   -10567069.27249  -8213003.18446  22723926.883    22723937.140
       228.000         177.000
  22254927.070   -13532477.49849  -9854378.60947  22254926.165    22254934.538
       232.000         188.000
  20258761.754   -23416712.85949 -18227008.62348  20258761.621    20258768.181
       244.000         217.000
  21393118.340   -17776994.58249 -13822834.56547  21393117.763    21393125.644
       238.000         198.000
  23561884.570    -4289253.01649  -3306507.19245  23561884.757    23561894.523
       214.000         156.000
 00  5 13  1 18 30.0000000  0  8G21G 3G17G31G23G29G15G 9
  21046504.860   -18372630.67749 -14297173.29748  21046504.438    21046511.557
       246.000         213.000
  21896197.396   -15857406.60149 -12324436.68247  21896197.268    21896205.774
       236.000         194.000
  23423849.548    -7687407.62849  -5978082.68445  23423851.105    23423858.746
       217.000         158.000
  22720154.303   -10586901.99749  -8228457.26146  22720153.905    22720162.580
       230.000         177.000
  22263845.310   -13485612.31649  -9817860.30447  22263845.111    22263853.560
       235.000         191.000
  20255138.735   -23435751.93749 -18241844.24148  20255138.479    20255145.039
       244.000         217.000
  21378315.444   -17854784.02749 -13883449.64847  21378314.491    21378322.665
       238.000         197.000
  23566941.469    -4262679.14549  -3285800.28745  23566940.636    23566950.583
       215.000         159.000
 00  5 13  1 19  0.0000000  0  8G21G 3G17G31G23G29G15G 9
  21044600.964   -18382635.66949 -14304969.38248  21044600.186    21044607.680
       245.000         213.000
  21903815.843   -15817371.54549 -12293240.57247  21903815.504    21903825.136
       235.000         194.000
  23441356.449    -7595409.22649  -5906395.86945  23441357.876    23441367.259
       217.000         158.000
  22716487.904   -10606169.35149  -8243470.79446  22716487.683    22716495.684
       227.000         177.000
  22272776.610   -13438678.76049  -9781288.73147  22272775.658    22272784.328
       233.000         191.000
  20251609.117   -23454300.12149 -18256297.34548  20251608.783    20251615.331
       244.000         217.000
  21363557.308   -17932338.91649 -13943881.98347  21363556.188    21363564.852
       237.000         198.000
  23572105.060    -4235544.32849  -3264656.29245  23572105.461    23572114.693
       215.000         159.000
 00  5 13  1 19 30.0000000  0  8G21G 3G17G31G23G29G15G 9
  21042723.924   -18392499.26449 -14312655.28948  21042723.426    21042730.549
       245.000         213.000
  21911528.043   -15776844.68349 -12261661.24147  21911527.185    21911536.784
       235.000         194.000
  23458913.163    -7503148.98249  -5834504.88845  23458913.182    23458924.847
       215.000         157.000
  22712929.375   -10624870.66949  -8258043.22846  22712928.547    22712937.270
       230.000         179.000
  22281720.776   -13391676.15749  -9744663.37347  22281720.536    22281728.710
       233.000         189.000
  20248172.903   -23472357.20049 -18270367.76648  20248172.712    20248178.987
       245.000         217.000
  21348844.125   -18009656.45149 -14004129.34947  21348843.483    21348851.220
       239.000         198.000
  23577375.482    -4207848.74449  -3243075.32445  23577375.603    23577384.725
       217.000         160.000
 00  5 13  1 20  0.0000000  0  8G21G 3G17G31G23G29G15G 9
  21040873.836   -18402221.35449 -14320230.93148  21040873.257    21040880.700
       245.000         213.000
  21919333.269   -15735828.21149 -12229700.38747  21919332.702    21919342.496
       235.000         194.000
  23476519.274    -7410627.95449  -5762410.76245  23476519.754    23476531.609
       213.000         154.000
  22709478.458   -10643005.64749  -8272174.36046  22709477.756    22709486.361
       227.000         180.000
  22290678.328   -13344604.78749  -9707984.40347  22290677.855    22290686.289
       234.000         190.000
  20244830.078   -23489923.68049 -18284055.91048  20244829.966    20244836.435
       243.000         217.000
  21334176.683   -18086734.29749 -14064189.95047  21334175.628    21334184.373
       237.000         199.000
  23582752.451    -4179592.84349  -3221057.76745  23582753.040    23582762.119
       218.000         162.000
 00  5 13  1 20 30.0000000  0  8G21G 3G17G31G23G29G15G 9
  21039050.741   -18411801.72949 -14327696.15048  21039050.428    21039057.682
       246.000         213.000
  21927231.243   -15694324.16349 -12197359.61447  21927230.314    21927239.725
       234.000         194.000
  23494175.083    -7317847.59449  -5690114.52145  23494174.801    23494185.825
       211.000         154.000
  22706135.066   -10660573.59249  -8285863.69146  22706134.650    22706142.497
       226.000         179.000
  22299648.901   -13297464.64849  -9671251.85847  22299647.705    22299656.767
       231.000         190.000
  20241580.575   -23506999.77149 -18297361.92548  20241580.395    20241586.796
       245.000         217.000
  21319555.305   -18163569.72049 -14124061.65247  21319554.779    21319562.474
       240.000         200.000
  23588235.965    -4150776.96049  -3198603.84746  23588235.794    23588245.543
       217.000         163.000
 00  5 13  1 21  0.0000000  0  8G21G 3G17G31G23G29G15G 9
  21037254.658   -18421240.53249 -14335051.05348  21037254.192    21037261.686
       246.000         213.000
  21935221.567   -15652334.39449 -12164640.36847  21935220.653    21935230.023
       233.000         193.000
  23511879.841    -7224808.74249  -5617616.86345  23511878.595    23511893.153
       209.000         152.000
  22702899.869   -10677574.64649  -8299111.27246  22702899.859    22702908.393
       227.000         179.000
  22308632.341   -13250255.74149  -9634465.74847  22308632.275    22308639.163
       233.000         188.000
  20238424.360   -23523585.64849 -18310285.96048  20238424.210    20238430.695
       244.000         217.000
  21304980.551   -18240160.46449 -14183742.68647  21304979.350    21304987.946
       238.000         199.000
  23593825.964    -4121401.40049  -3175713.83046  23593826.264    23593834.208
       216.000         163.000
 00  5 13  1 21 30.0000000  0  8G21G 3G17G31G23G29G15G 9
  21035485.503   -18430537.62649 -14342295.53848  21035484.937    21035492.264
       245.000         213.000
  21943304.192   -15609860.81749 -12131544.10247  21943303.357    21943312.554
       235.000         193.000
  23529633.595    -7131512.59149  -5544918.73045  23529632.934    23529644.898
       212.000         151.000
  22699772.596   -10694008.27749  -8311916.67246  22699772.455    22699781.079
       227.000         179.000
  22317629.064   -13202978.16649  -9597626.09046  22317629.167    22317635.885
       233.000         187.000
  20235361.384   -23539681.85149 -18322828.43448  20235361.261    20235367.651
       244.000         217.000
  21290452.851   -18316503.90349 -14243231.02247  21290451.857    21290460.018
       238.000         200.000
  23599522.328    -4091466.86549  -3152388.23145  23599522.201    23599531.721
       215.000         162.000
 00  5 13  1 22  0.0000000  0  8G21G 3G17G31G23G29G15G 9
  21033743.205   -18439693.35649 -14349429.86748  21033742.753    21033750.074
       246.000         213.000
  21951478.273   -15566906.09049 -12098072.92447  21951477.468    21951486.429
       234.000         193.000
  23547436.078    -7037960.89149  -5472021.52045  23547437.158    23547446.792
       214.000         150.000
  22696753.306   -10709875.08849  -8324280.42046  22696752.765    22696763.130
       230.000         181.000
  22326638.527   -13155632.55649  -9560733.44446  22326637.331    22326646.151
       230.000         187.000
  20232391.387   -23555289.10649 -18334989.90648  20232391.277    20232397.591
       244.000         217.000
  21275972.406   -18392598.58649 -14302525.52347  21275971.581    21275979.447
       241.000         199.000
  23605324.795    -4060974.34849  -3128627.83445  23605324.054    23605334.152
       213.000         161.000
 00  5 13  1 22 30.0000000  0  8G21G 3G17G31G23G29G15G 9
  21032027.805   -18448707.63249 -14356453.96548  21032026.951    21032034.341
       245.000         213.000
  21959743.425   -15523471.90949 -12064228.16947  21959743.736    21959752.784
       236.000         193.000
  23565286.893    -6944154.55349  -5398925.80345  23565288.031    23565300.199
       216.000         150.000
  22693842.165   -10725174.36549  -8336201.92046  22693840.551    22693849.288
       228.000         180.000
  22335661.010   -13108218.64649  -9523787.58447  22335660.274    22335668.760
       234.000         188.000
  20229514.431   -23570407.63149 -18346770.54948  20229514.109    20229520.509
       244.000         217.000
  21261539.932   -18468441.72049 -14361624.00547  21261538.763    21261547.536
       239.000         201.000
  23611233.453    -4029924.13549  -3104432.87645  23611233.203    23611243.036
       214.000         162.000
 00  5 13  1 23  0.0000000  0  8G21G 3G17G31G23G29G15G 9
  21030339.191   -18457580.65949 -14363368.01148  21030338.729    21030346.100
       245.000         213.000
  21968099.323   -15479560.80049 -12030011.75447  21968099.221    21968107.871
       235.000         192.000
  23583186.125    -6850094.76949  -5325632.63545  23583186.869    23583199.220
       213.000         150.000
  22691038.447   -10739905.91549  -8347681.07146  22691038.181    22691047.049
       228.000         181.000
  22344696.582   -13060736.55049  -9486788.56647  22344696.768    22344704.057
       235.000         188.000
  20226730.282   -23585037.92849 -18358170.75848  20226730.056    20226736.642
       244.000         217.000
  21247155.608   -18544031.12049 -14420524.78247  21247154.961    21247162.914
       240.000         201.000
  23617248.014    -3998316.96649  -3079803.93245  23617247.820    23617257.295
       210.000         160.000
 00  5 13  1 23 30.0000000  0  8G21G 3G17G31G23G29G15G 9
  21028677.640   -18466312.19849 -14370171.81048  21028677.190    21028684.608
       245.000         213.000
  21976545.794   -15435174.62149 -11995425.17347  21976546.294    21976555.218
       237.000         193.000
  23601133.243    -6755782.50749  -5252142.79845  23601132.656    23601144.704
       212.000         150.000
  22688343.303   -10754069.74449  -8358717.82546  22688341.638    22688352.500
       227.000         181.000
  22353745.182   -13013185.97749  -9449736.21346  22353744.235    22353752.939
       230.000         186.000
  20224039.016   -23599180.37549 -18369190.83248  20224038.819    20224045.408
       244.000         217.000
  21232820.139   -18619364.17249 -14479225.80747  21232819.785    21232827.523
       241.000         201.000
  23623368.448    -3966153.28149  -3054741.35945  23623368.382    23623378.298
       207.000         157.000
 00  5 13  1 24  0.0000000  0  8G21G 3G17G31G23G29G15G 9
  21027042.984   -18474902.39049 -14376865.45048  21027042.182    21027050.086
       245.000         213.000
  21985082.338   -15390315.55749 -11960470.08447  21985082.044    21985091.848
       237.000         193.000
  23619128.233    -6661219.18249  -5178457.22745  23619127.218    23619141.668
       210.000         153.000
  22685755.797   -10767665.92249  -8369312.23546  22685754.939    22685763.293
       227.000         179.000
  22362806.626   -12965567.36549  -9412630.83547  22362806.002    22362814.936
       233.000         188.000
  20221440.537   -23612835.43049 -18379831.10348  20221440.038    20221446.936
       244.000         217.000
  21218533.990   -18694438.59549 -14537725.29247  21218532.516    21218541.261
       241.000         202.000
  23629594.622    -3933433.68849  -3029245.60545  23629594.262    23629604.121
       206.000         154.000
 00  5 13  1 24 30.0000000  0  8G21G 3G17G31G23G29G15G 9
  21025435.061   -18483351.48449 -14383449.15948  21025434.365    21025442.117
       245.000         213.000
  21993708.444   -15344985.55949 -11925148.04847  21993707.313    21993717.140
       234.000         192.000
  23637170.559    -6566405.82149  -5104576.89645  23637170.647    23637181.598
       210.000         151.000
  22683276.284   -10780694.42249  -8379464.31946  22683276.764    22683285.721
       228.000         179.000
  22371881.170   -12917880.56849  -9375472.32047  22371880.449    22371889.066
       233.000         189.000
  20218934.635   -23626003.31549 -18390091.77148  20218934.253    20218941.074
       244.000         217.000
  21204297.347   -18769251.76249 -14596021.21847  21204296.751    21204304.523
       242.000         201.000
  23635926.518    -3900159.07549  -3003317.40045  23635926.329    23635935.932
       205.000         152.000
 00  5 13  1 25  0.0000000  0  8G21G 3G17G31G23G29G15G 9
  21023854.187   -18491658.87449 -14389922.44148  21023853.229    21023861.314
       245.000         213.000
  22002423.427   -15299186.94249 -11889460.87847  22002423.809    22002433.077
       237.000         192.000
  23655260.210    -6471343.89749  -5030502.91245  23655261.233    23655271.616
       215.000         154.000
  22680905.099   -10793155.40149  -8389174.16146  22680903.457    22680914.398
       225.000         180.000
  22380968.531   -12870125.81149  -9338260.84746  22380967.159    22380975.906
       231.000         187.000
  20216521.332   -23638684.95949 -18399973.54548  20216521.134    20216527.819
       244.000         217.000
  21190110.988   -18843801.44049 -14654111.81847  21190109.912    21190118.388
       240.000         202.000
  23642363.874    -3866330.38149  -2976957.41745  23642364.192    23642373.647
       208.000         152.000
 00  5 13  1 25 30.0000000  0  8G21G 3G17G31G23G29G15G 9
  21022300.166   -18499825.05849 -14396285.70048  21022299.825    21022307.395
       246.000         214.000
  22011227.451   -15252922.07149 -11853410.36947  22011227.244    22011236.846
       235.000         193.000
  23673397.109    -6376034.68549  -4956236.17745  23673398.287    23673410.612
       215.000         154.000
  22678641.683   -10805048.59649  -8398441.60046  22678642.093    22678650.327
       227.000         180.000
  22390068.801   -12822303.11749  -9300996.44546  22390068.528    22390077.251
       232.000         187.000
  20214200.431   -23650880.90349 -18409476.85548  20214200.170    20214207.018
       244.000         217.000
  21175975.033   -18918085.57549 -14711995.50347  21175974.728    21175982.196
       243.000         202.000
  23648906.673    -3831948.22249  -2950166.15845  23648906.653    23648916.250
       209.000         153.000
 00  5 13  1 26  0.0000000  0  8G21G 3G17G31G23G29G15G 9
  21020773.145   -18507849.93149 -14402538.85848  21020772.562    21020780.120
       245.000         214.000
  22020119.677   -15206193.37149 -11816998.44747  22020119.419    22020129.513
       233.000         193.000
  23691580.850    -6280479.78949  -4881778.06045  23691580.880    23691592.917
       215.000         156.000
  22676486.720   -10816374.24149  -8407266.76846  22676485.536    22676494.641
       227.000         180.000
  22399182.115   -12774412.65749  -9263679.24047  22399181.889    22399190.303
       233.000         188.000
  20211971.959   -23662591.79349 -18418602.21448  20211971.933    20211978.373
       244.000         217.000
  21161890.223   -18992101.95749 -14769670.56247  21161888.979    21161897.486
       240.000         202.000
  23655554.597    -3797013.63149  -2922944.41645  23655554.880    23655564.386
       214.000         154.000
 00  5 13  1 26 30.0000000  0  8G21G 3G17G31G23G29G15G 9
  21019272.055   -18515738.00249 -14408685.41048  21019271.741    21019279.078
       246.000         213.000
  22029098.673   -15159007.60449 -11780230.37147  22029100.121    22029106.545
       239.000         193.000
  23709810.190    -6184684.88249  -4807132.88345  23709809.161    23709822.491
       212.000         156.000
  22674438.544   -10827137.22149  -8415653.52046  22674438.523    22674448.119
       229.000         180.000
  22408307.451   -12726458.95249  -9226312.76746  22408307.422    22408316.436
       232.000         187.000
  20209834.812   -23673822.73949 -18427353.58548  20209834.982    20209841.083
       244.000         217.000
  21147855.946   -19065852.46849 -14827138.45747  21147855.484    21147863.257
       241.000         203.000
  23662306.726    -3761531.83049  -2895296.27845  23662307.345    23662315.798
       218.000         154.000
 00  5 13  1 27  0.0000000  0  8G21G 3G17G31G23G29G15G 9
  21017798.342   -18523483.14349 -14414720.58948  21017798.111    21017805.260
       246.000         213.000
  22038165.863   -15111360.37749 -11743102.72447  22038166.835    22038174.190
       236.000         192.000
  23728086.212    -6088644.77649  -4732296.60445  23728086.098    23728099.368
       211.000         154.000
  22672499.124   -10837330.84149  -8423596.60146  22672499.135    22672507.206
       227.000         179.000
  22417446.094   -12678435.60849  -9188892.00446  22417446.924    22417453.555
       234.000         187.000
  20207790.171   -23684567.75349 -18435726.30748  20207790.308    20207796.559
       244.000         217.000
  21133873.914   -19139328.28849 -14884392.28347  21133873.254    21133880.778
       241.000         203.000
  23669164.117    -3725497.43049  -2867217.51845  23669163.719    23669173.427
       219.000         155.000
 00  5 13  1 27 30.0000000  0  8G21G 3G17G31G23G29G15G 9
  21016351.620   -18531086.03949 -14420644.91548  21016350.983    21016358.466
       245.000         213.000
  22047320.370   -15063254.70449 -11705617.83847  22047320.008    22047329.375
       232.000         192.000
  23746408.540    -5992361.54449  -4657270.96945  23746409.683    23746421.458
       214.000         153.000
  22670667.475   -10846955.91149  -8431096.65646  22670667.374    22670676.755
       228.000         179.000
  22426597.951   -12630343.25549  -9151417.44946  22426597.879    22426605.643
       231.000         187.000
  20205837.670   -23694828.33149 -18443721.54048  20205837.640    20205844.079
       244.000         217.000
  21119944.576   -19212527.72749 -14941430.76847  21119943.727    21119951.972
       241.000         203.000
  23676126.215    -3688911.55349  -2838709.01245  23676125.649    23676135.229
       219.000         155.000
 00  5 13  1 28  0.0000000  0  8G21G 3G17G31G23G29G15G 9
  21014931.909   -18538546.72349 -14426458.43848  21014931.586    21014938.663
       246.000         213.000
  22056561.340   -15014693.26649 -11667777.80247  22056560.211    22056570.269
       232.000         192.000
  23764776.792    -5895836.89049  -4582057.17445  23764777.277    23764789.744
       216.000         152.000
  22668944.068   -10856013.20049  -8438154.30246  22668944.406    22668952.337
       229.000         179.000
  22435762.652   -12582182.63649  -9113889.72646  22435762.235    22435770.630
       231.000         186.000
  20203977.100   -23704605.56249 -18451340.14548  20203976.948    20203983.255
       244.000         217.000
  21106068.080   -19285448.93249 -14998252.43547  21106067.324    21106075.033
       242.000         203.000
  23683192.963    -3651775.67249  -2809771.96545  23683193.316    23683201.744
       219.000         155.000
 00  5 13  1 28 30.0000000  0  8G21G 3G17G31G23G29G15G 9
  21013539.253   -18545865.28849 -14432161.21648  21013538.600    21013546.106
       245.000         213.000
  22065888.510   -14965678.61849 -11629584.60847  22065887.324    22065897.849
       231.000         192.000
  23783190.667    -5799072.04049  -4506656.21845  23783190.230    23783202.329
       211.000         149.000
  22667328.553   -10864502.83849  -8444769.58246  22667327.865    22667336.318
       229.000         179.000
  22444940.354   -12533953.58349  -9076308.68346  22444940.561    22444947.796
       231.000         186.000
  20202208.472   -23713900.03849 -18458582.57548  20202208.352    20202214.683
       243.000         217.000
  21092245.016   -19358089.69249 -15054855.58747  21092244.433    21092251.999
       241.000         203.000
  23690364.260    -3614090.67549  -2780407.04945  23690365.042    23690372.536
       220.000         157.000
 00  5 13  1 29  0.0000000  0  8G21G 3G17G31G23G29G15G 9
  21012173.604   -18553041.58749 -14437753.14348  21012173.075    21012180.538
       245.000         213.000
  22075301.460   -14916212.89749 -11591039.96147  22075300.717    22075309.990
       233.000         191.000
  23801650.051    -5702068.48849  -4431069.21345  23801649.591    23801661.912
       207.000         146.000
  22665820.960   -10872425.44949  -8450943.03546  22665819.400    22665828.766
       227.000         180.000
  22454131.181   -12485656.35149  -9038674.48846  22454130.279    22454138.182
       230.000         186.000
  20200531.467   -23722712.59749 -18465449.49248  20200531.373    20200537.701
       244.000         217.000
  21078475.802   -19430447.53149 -15111238.27147  21078474.786    21078482.801
       241.000         204.000
  23697639.814    -3575857.57649  -2750615.04745  23697639.625    23697648.204
       218.000         157.000
 00  5 13  1 29 30.0000000  0  8G21G 3G17G31G23G29G15G 9
  21010835.044   -18560075.81149 -14443234.35448  21010834.412    21010841.851
       245.000         213.000
  22084799.810   -14866298.39849 -11552145.60247  22084799.042    22084808.840
       231.000         190.000
  23820154.554    -5604827.38349  -4355297.12445  23820155.599    23820166.630
       207.000         146.000
  22664421.115   -10879780.98749  -8456674.63046  22664421.468    22664429.783
       229.000         180.000
  22463334.723   -12437290.69149  -9000986.97446  22463334.327    22463342.774
       229.000         185.000
  20198946.174   -23731043.44549 -18471941.04548  20198946.250    20198952.202
       244.000         218.000
  21064760.923   -19502519.77849 -15167398.40647  21064760.420    21064768.139
       243.000         204.000
  23705019.431    -3537077.31049  -2720396.66345  23705019.586    23705028.721
       219.000         158.000
 00  5 13  1 30  0.0000000  0  8G21G 3G17G31G23G29G15G 9
  21009523.543   -18566967.80449 -14448604.74348  21009523.030    21009530.306
       246.000         213.000
  22094382.951   -14815937.89149 -11512903.70747  22094382.477    22094390.742
       231.000         189.000
  23838703.806    -5507350.43449  -4279341.37945  23838704.748    23838716.811
       205.000         145.000
  22663129.161   -10886569.89549  -8461964.69846  22663128.193    22663137.551
       225.000         179.000
  22472551.333   -12388856.97849  -8963246.46246  22472551.266    22472559.081
       231.000         185.000
  20197452.323   -23738893.89649 -18478058.26548  20197452.085    20197458.365
       244.000         218.000
  21051100.720   -19574304.40849 -15223334.43747  21051099.267    21051107.378
       239.000         204.000
  23712502.947    -3497751.20549  -2689752.96745  23712502.586    23712512.565
       218.000         158.000
 00  5 13  1 30 30.0000000  0  8G21G 3G17G31G23G29G15G 9
  21008239.070   -18573717.81149 -14453864.48848  21008238.509    21008245.939
       246.000         213.000
  22104050.706   -14765133.09649 -11473315.62447  22104051.713    22104060.429
       234.000         190.000
  23857297.950    -5409638.83749  -4203202.70445  23857297.127    23857312.172
       203.000         144.000
  22661944.992   -10892792.16149  -8466813.22346  22661944.762    22661952.774
       227.000         178.000
  22481781.202   -12340354.93049  -8925452.66446  22481781.367    22481788.775
       232.000         186.000
  20196049.730   -23746264.50249 -18483801.57648  20196049.536    20196055.771
       244.000         218.000
  21037495.677   -19645798.78949 -15279044.30647  21037495.105    21037502.730
       242.000         204.000
  23720090.142    -3457879.93249  -2658684.45945  23720089.913    23720099.433
       216.000         158.000
 00  5 13  1 31  0.0000000  0  8G21G 3G17G31G23G29G15G 9
  21006981.507   -18580326.45549 -14459014.08848  21006980.910    21006988.518
       246.000         213.000
  22113802.519   -14713887.84249 -11433384.32047  22113802.943    22113813.073
       233.000         190.000
  23875936.239    -5311695.07849  -4126883.12545  23875936.003    23875949.154
       212.000         149.000
  22660868.540   -10898449.15549  -8471221.25246  22660867.998    22660876.818
       227.000         179.000
  22491023.650   -12291785.42549  -8887606.31446  22491022.409    22491031.656
       228.000         184.000
  20194738.127   -23753156.65949 -18489172.07848  20194738.034    20194744.306
       245.000         218.000
  21023946.189   -19717001.60249 -15334526.96547  21023945.385    21023953.016
       242.000         204.000
  23727780.770    -3417465.38649  -2627192.63745  23727780.969    23727789.188
       216.000         156.000
 00  5 13  1 31 30.0000000  0  8G21G 3G17G31G23G29G15G 9
  21005750.915   -18586793.17849 -14464053.09548  21005750.591    21005757.866
       246.000         213.000
  22123637.625   -14662204.26449 -11393111.47047  22123637.544    22123645.243
       231.000         190.000
  23894618.586    -5213519.98449  -4050383.28945  23894619.249    23894631.793
       214.000         154.000
  22659899.704   -10903540.93649  -8475188.87646  22659899.518    22659908.608
       229.000         180.000
  22500278.744   -12243148.31549  -8849707.29446  22500278.561    22500286.412
       230.000         183.000
  20193517.536   -23759571.16949 -18494170.38048  20193517.309    20193523.784
       244.000         218.000
  21010452.759   -19787910.22949 -15389780.39947  21010451.787    21010460.208
       241.000         205.000
  23735574.688    -3376508.43149  -2595278.14945  23735574.194    23735583.802
       215.000         154.000
 00  5 13  1 32  0.0000000  0  8G21G 3G17G31G23G29G15G 9
  21004547.449   -18593117.61049 -14468981.23248  21004546.865    21004554.318
       246.000         213.000
  22133555.802   -14610084.53349 -11352498.75747  22133556.328    22133564.417
       235.000         190.000
  23913344.811    -5115114.61849  -3973704.02545  23913344.676    23913357.397
       213.000         155.000
  22659038.477   -10908067.57549  -8478716.11446  22659038.034    22659046.195
       229.000         179.000
  22509547.131   -12194443.14449  -8811755.24046  22509546.825    22509555.793
       232.000         185.000
  20192387.757   -23765508.26649 -18498796.67848  20192387.721    20192393.951
       245.000         218.000
  20997015.807   -19858521.75149 -15444802.31247  20997015.269    20997022.637
       243.000         206.000
  23743471.639    -3335009.84449  -2562941.59645  23743471.267    23743481.053
       215.000         152.000
 00  5 13  1 32 30.0000000  0  8G21G 3G17G31G23G29G15G 9
  21003370.961   -18599300.03549 -14473798.70748  21003370.479    21003377.772
       246.000         213.000
  22143556.575   -14557531.19149 -11311548.14147  22143555.935    22143564.262
       232.000         190.000
  23932114.340    -5016480.87249  -3896846.83145  23932114.112    23932127.244
       215.000         156.000
  22658284.315   -10912029.67449  -8481803.48046  22658283.457    22658291.431
       225.000         178.000
  22518828.440   -12145670.44049  -8773750.55346  22518826.931    22518835.333
       228.000         185.000
  20191348.533   -23770969.24649 -18503051.97648  20191348.400    20191354.745
       245.000         218.000
  20983635.796   -19928834.13649 -15499591.15047  20983635.022    20983642.619
       241.000         205.000
  23751471.335    -3292971.31449  -2530184.32145  23751470.839    23751479.365
       214.000         150.000
 00  5 13  1 33  0.0000000  0  8G21G 3G17G31G23G29G15G 9
  21002221.630   -18605340.15349 -14478505.29848  21002221.135    21002228.417
       245.000         213.000
  22153639.383   -14504545.82249 -11270260.91347  22153639.694    22153646.874
       233.000         190.000
  23950927.204    -4917619.38449  -3819812.09045  23950926.778    23950939.900
       213.000         155.000
  22657637.926   -10915426.57849  -8484450.43146  22657638.273    22657645.558
       229.000         179.000
  22528122.442   -12096829.18949  -8735692.47146  22528120.886    22528130.290
       228.000         183.000
  20190399.996   -23775953.80849 -18506936.03848  20190399.767    20190405.970
       244.000         218.000
  20970313.238   -19998844.38449 -15554144.54347  20970312.035    20970320.309
       241.000         205.000
  23759573.773    -3250392.88349  -2497006.34745  23759573.929    23759582.077
       214.000         149.000
 00  5 13  1 33 30.0000000  0  8G21G 3G17G31G23G29G15G 9
  21001099.204   -18611238.13149 -14483101.11648  21001098.682    21001106.168
       245.000         213.000
  22163803.923   -14451131.63649 -11228639.52247  22163803.528    22163811.999
       233.000         190.000
  23969783.058    -4818532.13149  -3742601.49445  23969783.035    23969795.343
       210.000         150.000
  22657099.066   -10918259.51349  -8486657.90446  22657097.838    22657107.792
       226.000         179.000
  22537429.628   -12047919.97149  -8697581.40246  22537428.693    22537436.907
       231.000         184.000
  20189541.754   -23780463.78249 -18510450.29148  20189541.641    20189547.830
       244.000         218.000
  20957048.517   -20068550.46849 -15608460.95047  20957048.257    20957055.660
       243.000         205.000
  23767778.630    -3207276.23249  -2463408.98145  23767778.080    23767787.734
       214.000         150.000
 00  5 13  1 34  0.0000000  0  8G21G 3G17G31G23G29G15G 9
  21000004.019   -18616993.56849 -14487585.87248  21000003.480    21000010.870
       244.000         213.000
  22174049.443   -14397290.79649 -11186685.69447  22174050.135    22174058.106
       234.000         189.000
  23988681.453    -4719220.13949  -3665215.74045  23988680.902    23988693.590
       204.000         142.000
  22656667.204   -10920528.82149  -8488426.20846  22656667.575    22656675.395
       230.000         179.000
  22546749.865   -11998942.50749  -8659417.15346  22546750.050    22546757.813
       234.000         186.000
  20188773.826   -23784499.35049 -18513594.87648  20188773.543    20188779.872
       245.000         218.000
  20943842.276   -20137949.75949 -15662538.26247  20943841.320    20943849.422
       242.000         206.000
  23776085.673    -3163622.25949  -2429392.90045  23776085.119    23776094.691
       215.000         151.000
 00  5 13  1 34 30.0000000  0  8G21G 3G17G31G23G29G15G 9
  20998935.885   -18622606.52549 -14491959.59848  20998935.439    20998942.862
       244.000         213.000
  22184375.706   -14343026.12649 -11144401.61347  22184375.347    22184383.236
       231.000         188.000
  24007622.546    -4619685.32049  -3587656.36745  24007621.789    24007635.862
       205.000         142.000
  22656342.650   -10922235.31349  -8489755.93546  22656342.331    22656352.235
       229.000         180.000
  22556082.762   -11949897.15249  -8621200.05246  22556082.919    22556090.402
       232.000         185.000
  20188095.860   -23788061.93849 -18516370.90848  20188095.592    20188101.698
       244.000         218.000
  20930694.785   -20207040.30749 -15716375.04147  20930693.682    20930701.375
       241.000         206.000
  23784494.682    -3119432.58349  -2394959.40445  23784494.507    23784504.151
       216.000         152.000
 00  5 13  1 35  0.0000000  0  8G21G 3G17G31G23G29G15G 9
  20997895.041   -18628076.36449 -14496221.80548  20997894.470    20997902.049
       244.000         214.000
  22194782.326   -14288339.45449 -11101788.69247  22194781.862    22194791.366
       231.000         189.000
  24026605.921    -4519928.06749  -3509923.67745  24026605.277    24026619.819
       203.000         133.000
  22656124.958   -10923378.67249  -8490646.88346  22656124.651    22656133.451
       229.000         180.000
  22565428.928   -11900783.01449  -8582929.32046  22565428.349    22565436.963
       228.000         183.000
  20187507.865   -23791151.70349 -18518778.50848  20187507.729    20187513.838
       244.000         218.000
  20917606.545   -20275818.88149 -15769968.68847  20917606.183    20917613.710
       243.000         206.000
  23793005.631    -3074707.44449  -2360108.66045  23793006.125    23793014.982
       218.000         154.000
 00  5 13  1 35 30.0000000  0  8G21G 3G17G31G23G29G15G 9
  20996881.407   -18633402.89049 -14500372.33948  20996881.142    20996888.150
       245.000         214.000
  22205268.625   -14233233.81249 -11058849.28647  22205267.343    22205279.112
       229.000         188.000
  24045631.243    -4419950.40949  -3432019.20044  24045630.287    24045645.654
       206.000         131.000
  22656014.498   -10923959.96249  -8491099.84146  22656013.039    22656022.084
       228.000         179.000
  22574788.126   -11851600.35449  -8544605.16146  22574787.750    22574795.294
       232.000         183.000
  20187009.725   -23793769.65849 -18520818.46348  20187009.744    20187015.802
       244.000         218.000
  20904578.175   -20344283.57749 -15823317.76947  20904576.843    20904584.697
       241.000         206.000
  23801618.093    -3029448.54849  -2324842.02945  23801618.263    23801627.043
       217.000         157.000
 00  5 13  1 36  0.0000000  0  8G21G 3G17G31G23G29G15G 9
  20995894.988   -18638586.58049 -14504411.57648  20995894.195    20995901.680
       244.000         213.000
  22215834.173   -14177711.79549 -11015585.44247  22215832.719    22215843.054
       230.000         188.000
  24064698.197    -4319754.04349  -3353944.26745  24064697.716    24064711.985
       207.000         134.000
  22656010.733   -10923979.65049  -8491115.19946  22656010.071    22656018.603
       229.000         179.000
  22584160.472   -11802349.18649  -8506227.65246  22584159.652    22584168.265
       230.000         184.000
  20186601.039   -23795917.11549 -18522491.79748  20186600.947    20186607.047
       244.000         218.000
  20891609.904   -20412432.25549 -15876420.60347  20891608.840    20891616.796
       241.000         207.000
  23810331.803    -2983657.45049  -2289160.69245  23810332.000    23810341.499
       220.000         158.000
 00  5 13  1 36 30.0000000  0  8G21G 3G17G31G23G29G15G 9
  20994935.847   -18643626.95849 -14508339.13848  20994935.399    20994942.774
       245.000         213.000
  22226478.431   -14121775.84649 -10971999.06447  22226477.900    22226487.200
       232.000         188.000
  24083806.396    -4219340.16549  -3275699.89645  24083806.068    24083820.475
       212.000         142.000
  22656113.674   -10923438.67149  -8490693.65446  22656113.079    22656122.794
       229.000         179.000
  22593545.639   -11753029.38549  -8467796.66546  22593544.175    22593553.712
       226.000         182.000
  20186281.793   -23797594.75649 -18523799.03548  20186281.698    20186287.912
       244.000         218.000
  20878702.221   -20480262.06549 -15929274.96647  20878701.666    20878709.301
       243.000         207.000
  23819146.639    -2937335.37449  -2253065.58245  23819147.188    23819157.067
       222.000         159.000
 00  5 13  1 37  0.0000000  0  8G21G 3G17G31G23G29G15G 9
  20994003.997   -18648523.73449 -14512154.79448  20994003.374    20994010.807
       244.000         213.000
  22237201.120   -14065428.06649 -10928091.77746  22237201.506    22237212.552
       232.000         187.000
  24102956.010    -4118709.78149  -3197286.85845  24102955.581    24102968.962
       213.000         146.000
  22656323.180   -10922337.02449  -8489835.25346  22656322.244    22656331.313
       228.000         180.000
  22602943.973   -11703640.75849  -8429312.07446  22602942.998    22602951.689
       229.000         183.000
  20186051.803   -23798803.14949 -18524740.62348  20186051.697    20186058.087
       244.000         218.000
  20865855.853   -20547770.18449 -15981878.65047  20865854.809    20865862.799
       242.000         207.000
  23828062.317    -2890483.31449  -2216557.50145  23828062.116    23828071.471
       222.000         160.000
 00  5 13  1 37 30.0000000  0  8G21G 3G17G31G23G29G15G 9
  20993099.510   -18653276.58749 -14515858.32248  20993098.750    20993106.198
       244.000         213.000
  22248001.535   -14008671.23549 -10883865.75846  22248003.118    22248010.348
       236.000         186.000
  24122146.280    -4017864.52349  -3118706.28845  24122145.266    24122160.831
       211.000         148.000
  22656639.446   -10920675.17449  -8488540.33546  22656638.585    22656648.262
       228.000         180.000
  22612355.565   -11654183.26049  -8390773.76846  22612354.952    22612363.190
       231.000         182.000
  20185910.981   -23799543.22749 -18525317.30548  20185910.705    20185916.947
       244.000         218.000
  20853071.055   -20614954.44249 -16034230.00747  20853070.100    20853078.179
       243.000         207.000
  23837078.619    -2843102.60749  -2179637.50345  23837077.834    23837088.004
       223.000         159.000
 00  5 13  1 38  0.0000000  0  8G21G 3G17G31G23G29G15G 9
  20992222.406   -18657885.67449 -14519449.81048  20992221.737    20992228.983
       244.000         213.000
  22258879.417   -13951508.04449 -10839323.11346  22258879.678    22258888.097
       231.000         187.000
  24141377.221    -3916805.98349  -3039959.61145  24141377.612    24141390.729
       214.000         150.000
  22657061.901   -10918453.97549  -8486809.52346  22657061.113    22657069.897
       228.000         179.000
  22621780.031   -11604656.87649  -8352181.78946  22621778.389    22621786.381
       228.000         180.000
  20185858.952   -23799816.33149 -18525530.09948  20185858.721    20185865.049
       244.000         218.000
  20840348.361   -20681812.43849 -16086327.10547  20840347.837    20840355.113
       244.000         208.000
  23846195.306    -2795194.28549  -2142306.35845  23846195.003    23846204.947
       223.000         157.000
 00  5 13  1 38 30.0000000  0  8G21G 3G17G31G23G29G15G 9
  20991372.718   -18662350.94649 -14522929.24448  20991372.155    20991379.185
       244.000         213.000
  22269834.369   -13893940.74049 -10794465.51346  22269833.615    22269844.547
       230.000         186.000
  24160648.423    -3815535.79649  -2961047.93645  24160648.361    24160662.513
       210.000         146.000
  22657590.728   -10915674.27749  -8484643.53546  22657590.487    22657598.376
       229.000         180.000
  22631217.633   -11555061.22949  -8313535.86646  22631216.965    22631225.471
       228.000         181.000
  20185895.711   -23799623.19949 -18525379.59848  20185895.475    20185901.643
       244.000         218.000
  20827688.339   -20748341.76249 -16138168.11547  20827687.512    20827695.326
       243.000         208.000
  23855412.073    -2746759.97849  -2104565.32645  23855413.381    23855420.207
       223.000         153.000
 00  5 13  1 39  0.0000000  0  8G21G 3G17G31G23G29G15G 9
  20990550.393   -18666671.94449 -14526296.25448  20990549.975    20990557.279
       244.000         213.000
  22280865.281   -13835972.29849 -10749295.40346  22280864.838    22280871.593
       229.000         185.000
  24179959.702    -3714055.60149  -2881972.70345  24179959.702    24179973.322
       210.000         149.000
  22658226.177   -10912336.83349  -8482042.92246  22658225.597    22658236.140
       230.000         182.000
  22640668.657   -11505396.37649  -8274836.00046  22640668.911    22640676.468
       233.000         183.000
  20186020.992   -23798964.83249 -18524866.57648  20186020.819    20186026.986
       244.000         218.000
  20815091.112   -20814540.37649 -16189751.41247  20815090.233    20815097.487
       243.000         209.000
  23864728.628    -2697801.09649  -2066415.53745  23864728.472    23864738.733
       221.000         150.000
 00  5 13  1 39 30.0000000  0  8G21G 3G17G31G23G29G15G 9
  20989755.519   -18670849.03649 -14529551.11348  20989755.165    20989762.154
       245.000         213.000
  22291972.355   -13777605.58749 -10703814.92146  22291970.980    22291981.176
       229.000         187.000
  24199310.309    -3612366.96949  -2802735.03945  24199308.517    24199325.665
       199.000         143.000
  22658967.348   -10908442.22549  -8479008.17746  22658966.624    22658975.577
       229.000         181.000
  22650132.755   -11455662.65249  -8236082.47346  22650132.639    22650140.399
       233.000         185.000
  20186234.462   -23797842.94149 -18523992.36348  20186234.301    20186240.608
       244.000         218.000
  20802557.240   -20880405.88949 -16241075.16547  20802556.600    20802564.205
       243.000         209.000
  23874144.649    -2648319.23549  -2027858.20345  23874143.544    23874152.179
       220.000         148.000
 00  5 13  1 40  0.0000000  0  9G21G 3G17G31G23G29G15G25G 9
  20988987.197   -18674886.80649 -14532697.41448  20988986.617    20988993.855
       244.000         213.000
  22303153.631   -13718848.39049 -10658030.12546  22303151.799    22303164.576
       230.000         186.000
  24218699.626    -3510476.35649  -2723340.02745  24218699.543    24218713.215
       202.000         142.000
  22659813.284   -10903996.67249  -8475544.14546  22659813.448    22659822.775
       229.000         180.000
  22659608.951   -11405864.92949  -8197279.06546  22659608.180    22659615.961
       229.000         182.000
  20186535.067   -23796263.10649 -18522761.31048  20186534.873    20186541.058
       244.000         218.000
  20790086.378   -20945940.85949 -16292141.33947  20790085.174    20790093.074
       243.000         209.000
  24647732.792    -4993851.94949  -3330332.96245  24647730.791    24647749.125
       202.000         140.000
  23883658.972    -2598321.19249  -1988898.71845  23883658.627    23883667.980
       218.000         150.000
 00  5 13  1 40 30.0000000  0  9G21G 3G17G31G23G29G15G25G 9
  20988246.809   -18678777.51249 -14535729.12248  20988246.429    20988253.552
       245.000         213.000
  22314409.986   -13659694.99049 -10611936.67646  22314410.025    22314417.464
       232.000         185.000
  24238128.551    -3408377.38649  -2643782.63745  24238128.073    24238143.353
       207.000         141.000
  22660765.496   -10898992.77949  -8471645.01146  22660765.409    22660774.807
       231.000         180.000
  22669098.843   -11355994.85049  -8158419.29446  22669097.750    22669106.559
       230.000         181.000
  20186924.044   -23794218.68849 -18521168.24648  20186923.913    20186930.133
       244.000         218.000
  20777680.316   -21011134.73349 -16342941.73247  20777679.552    20777687.149
       244.000         209.000
  24629059.734    -5091976.50749  -3406793.11045  24629058.697    24629075.034
       211.000         141.000
  23893272.757    -2547800.18649  -1949531.71445  23893272.552    23893282.860
       217.000         153.000
 00  5 13  1 41  0.0000000  0  9G21G 3G17G31G23G29G15G25G 9
  20987534.236   -18682521.83949 -14538646.77148  20987533.943    20987540.933
       244.000         213.000
  22325741.016   -13600149.64449 -10565537.82346  22325742.780    22325750.518
       233.000         186.000
  24257596.570    -3306072.96449  -2564065.07445  24257596.565    24257609.776
       210.000         141.000
  22661823.732   -10893432.34649  -8467312.21546  22661823.886    22661830.380
       230.000         180.000
  22678602.341   -11306053.67249  -8119504.11146  22678602.850    22678610.593
       233.000         181.000
  20187401.143   -23791711.56249 -18519214.63348  20187401.183    20187407.367
       244.000         218.000
  20765339.427   -21075986.34449 -16393475.42947  20765338.985    20765346.234
       244.000         210.000
  24610373.915    -5190168.76649  -3483306.10645  24610371.794    24610389.860
       199.000         139.000
  23902985.659    -2496758.95849  -1909759.36945  23902985.078    23902995.946
       214.000         156.000
 00  5 13  1 41 30.0000000  0  9G21G 3G17G31G23G29G15G25G 9
  20986849.522   -18686120.18549 -14541450.66648  20986848.947    20986856.386
       244.000         213.000
  22337146.198   -13540215.24049 -10518835.77246  22337148.024    22337155.819
       234.000         184.000
  24277103.408    -3203564.90449  -2484188.85445  24277102.861    24277118.380
       202.000         140.000
  22662987.480   -10887316.76849  -8462546.83546  22662987.170    22662994.792
       229.000         180.000
  22688119.485   -11256041.71549  -8080533.78146  22688118.502    22688127.486
       229.000         183.000
  20187965.965   -23788743.56849 -18516901.89848  20187965.842    20187972.099
       244.000         218.000
  20753064.066   -21140493.90349 -16443741.03347  20753063.233    20753070.937
       244.000         210.000
  24591675.641    -5288426.72149  -3559870.21845  24591675.447    24591692.428
       206.000         145.000
  23912797.267    -2445199.36149  -1869583.09645  23912795.996    23912807.650
       214.000         159.000
 00  5 13  1 42  0.0000000  0  9G21G 3G17G31G23G29G15G25G 9
  20986192.553   -18689572.76849 -14544140.98948  20986192.191    20986199.163
       244.000         214.000
  22348624.901   -13479895.37649 -10471833.37046  22348624.619    22348631.935
       228.000         183.000
  24296648.533    -3100855.53349  -2404155.89445  24296649.390    24296663.138
       209.000         141.000
  22664256.477   -10880647.93849  -8457350.34946  22664256.792    22664267.066
       230.000         181.000
  22697649.789   -11205959.56549  -8041508.75646  22697649.564    22697658.305
       230.000         183.000
  20188618.148   -23785316.40149 -18514231.36348  20188617.981    20188624.200
       245.000         218.000
  20740854.429   -21204655.74249 -16493737.24247  20740853.766    20740861.047
       245.000         210.000
  24572965.544    -5386748.93149  -3636484.38745  24572964.711    24572981.964
       206.000         145.000
  23922706.951    -2393123.57549  -1829004.61445  23922706.385    23922715.957
       211.000         160.000
 00  5 13  1 42 30.0000000  0  9G21G 3G17G31G23G29G15G25G 9
  20985563.311   -18692879.37249 -14546717.55948  20985562.747    20985570.069
       244.000         213.000
  22360176.310   -13419192.74249 -10424532.69346  22360175.203    22360185.081
       228.000         183.000
  24316231.787    -2997946.14749  -2323967.00345  24316232.223    24316246.192
       212.000         143.000
  22665630.794   -10873426.58349  -8451723.33346  22665630.650    22665639.334
       230.000         181.000
  22707193.414   -11155806.98149  -8002428.88146  22707193.097    22707200.446
       228.000         179.000
  20189357.444   -23781431.24349 -18511203.95948  20189357.299    20189363.403
       244.000         218.000
  20728711.131   -21268469.21949 -16543462.00247  20728710.522    20728718.058
       245.000         211.000
  24554243.315    -5485132.82149  -3713146.71745  24554241.592    24554259.109
       210.000         147.000
  23932714.559    -2340533.04749  -1788025.03145  23932714.417    23932724.234
       210.000         161.000
 00  5 13  1 43  0.0000000  0  9G21G 3G17G31G23G29G15G25G 9
  20984961.866   -18696040.04949 -14549180.42348  20984961.364    20984968.574
       245.000         213.000
  22371800.121   -13358109.90549 -10376935.73546  22371797.977    22371810.113
       227.000         184.000
  24335852.753    -2894838.50649  -2243623.60145  24335852.080    24335865.625
       212.000         141.000
  22667109.903   -10865653.63949  -8445666.48046  22667109.257    22667118.274
       228.000         181.000
  22716750.491   -11105584.08149  -7963294.17046  22716750.601    22716758.090
       230.000         178.000
  20190183.732   -23777089.12149 -18507820.47248  20190183.647    20190189.765
       244.000         218.000
  20716634.482   -21331932.20849 -16592913.65547  20716633.743    20716640.792
       245.000         211.000
  24535509.818    -5583575.55249  -3789854.83445  24535508.971    24535526.595
       204.000         146.000
  23942819.863    -2287429.46149  -1746645.65945  23942819.131    23942829.628
       206.000         161.000
 00  5 13  1 43 30.0000000  0  9G21G 3G17G31G23G29G15G25G 9
  20984388.203   -18699054.45549 -14551529.30048  20984387.801    20984394.982
       245.000         214.000
  22383495.490   -13296649.63049 -10329044.71646  22383494.919    22383504.731
       230.000         183.000
  24355511.171    -2791534.12249  -2163126.86745  24355510.761    24355524.820
       214.000         140.000
  22668693.809   -10857329.75549  -8439180.33646  22668692.311    22668702.230
       228.000         180.000
  22726321.235   -11055290.51649  -7924104.37746  22726320.456    22726328.677
       229.000         180.000
  20191096.779   -23772290.91749 -18504081.59748  20191096.425    20191102.769
       245.000         218.000
  20704625.137   -21395041.98249 -16642090.07247  20704624.087    20704632.170
       245.000         211.000
  24516765.549    -5682074.85249  -3866607.02145  24516765.137    24516781.449
       218.000         153.000
  23953022.404    -2233814.34249  -1704867.69145  23953022.208    23953031.855
       204.000         159.000
 00  5 13  1 44  0.0000000  0  9G21G 3G17G31G23G29G15G25G 9
  20983842.436   -18701922.40549 -14553764.05648  20983841.998    20983849.381
       244.000         214.000
  22395262.316   -13234815.05949 -10280862.00246  22395261.683    22395270.970
       229.000         182.000
  24375206.716    -2688034.78049  -2082478.20145  24375206.316    24375221.388
       206.000         139.000
  22670382.463   -10848456.46249  -8432266.07946  22670382.451    22670389.997
       231.000         180.000
  22735905.103   -11004926.20449  -7884859.49046  22735904.971    22735912.523
       229.000         179.000
  20192096.286   -23767038.17649 -18499988.53748  20192096.233    20192102.302
       244.000         218.000
  20692683.334   -21457796.54149 -16690989.69647  20692682.664    20692689.624
       245.000         211.000
  24498011.180    -5780628.70949  -3943401.76445  24498010.420    24498026.411
       217.000         147.000
  23963322.186    -2179689.39549  -1662692.45245  23963321.518    23963331.487
       198.000         155.000
 00  5 13  1 44 30.0000000  0  9G21G 3G17G31G23G29G15G25G 9
  20983324.546   -18704643.89849 -14555884.68948  20983324.197    20983331.529
       245.000         214.000
  22407099.919   -13172608.38749 -10232389.36146  22407100.817    22407108.388
       232.000         183.000
  24394938.812    -2584341.94049  -2001678.85245  24394939.045    24394954.807
       205.000         138.000
  22672175.358   -10839034.70549  -8424924.47246  22672173.801    22672183.456
       228.000         180.000
  22745502.555   -10954490.96449  -7845559.35546  22745501.447    22745510.452
       225.000         178.000
  20193182.187   -23761331.92949 -18495542.09748  20193182.201    20193188.157
       244.000         218.000
  20680809.588   -21520193.45349 -16739610.62647  20680808.994    20680816.391
       246.000         212.000
  24479246.901    -5879234.34949  -4020236.86445  24479244.222    24479261.336
       209.000         150.000
  23973718.388    -2125056.27448  -1620121.28245  23973717.331    23973728.250
       191.000         148.000
 00  5 13  1 45  0.0000000  0  9G21G 3G17G31G23G29G15G25G 9
  20982834.715   -18707217.93049 -14557890.42148  20982834.096    20982841.630
       244.000         214.000
  22419007.889   -13110031.86149 -10183628.51846  22419009.173    22419016.852
       232.000         184.000
  24414707.728    -2480456.61549  -1920729.48345  24414707.540    24414722.046
       211.000         149.000
  22674072.571   -10829064.59049  -8417155.56146  22674070.707    22674080.262
       226.000         180.000
  22755113.708   -10903983.91749  -7806203.25746  22755113.663    22755121.450
       229.000         179.000
  20194354.263   -23755172.73649 -18490742.71548  20194354.060    20194360.266
       244.000         218.000
  20669004.588   -21582229.31649 -16787950.24347  20669003.647    20669010.947
       244.000         211.000
  24460473.251    -5977888.60449  -4097109.92045  24460472.747    24460488.248
       217.000         146.000
  23984210.981    -2069915.71348  -1577154.72245  23984210.876    23984221.215
       187.000         141.000
 00  5 13  1 45 30.0000000  0  9G21G 3G17G31G23G29G15G25G 9
  20982372.951   -18709644.62749 -14559781.35148  20982372.476    20982379.745
       244.000         214.000
  22430985.598   -13047089.40349 -10134582.52246  22430987.321    22430994.767
       234.000         184.000
  24434512.854    -2376381.35649  -1839632.09045  24434512.489    24434527.472
       206.000         152.000
  22676073.532   -10818548.25549  -8408961.02546  22676072.991    22676082.749
       230.000         181.000
  22764738.523   -10853405.96949  -7766791.87946  22764738.469    22764744.970
       231.000         178.000
  20195612.019   -23748562.97149 -18485592.24348  20195611.899    20195617.853
       244.000         218.000
  20657268.370   -21643903.05949 -16836007.67047  20657267.581    20657275.066
       245.000         212.000
  24441690.718    -6076590.25649  -4174019.66345  24441690.240    24441705.850
       218.000         147.000
  23994799.891    -2014270.55248  -1533794.98545  23994799.186    23994809.783
       194.000         142.000
 00  5 13  1 46  0.0000000  0  9G21G 3G17G31G23G29G15G25G 9
  20981939.096   -18711924.41049 -14561557.79848  20981938.676    20981945.861
       245.000         214.000
  22443032.351   -12983783.41249 -10085253.27946  22443032.742    22443041.864
       232.000         183.000
  24454353.824    -2272117.49249  -1758387.79345  24454353.563    24454367.816
       205.000         147.000
  22678178.680   -10807486.19649  -8400341.23746  22678178.644    22678186.186
       231.000         181.000
  22774376.807   -10802756.71149  -7727324.92946  22774376.947    22774384.725
       230.000         178.000
  20196955.444   -23741503.24749 -18480091.15248  20196955.269    20196961.502
       245.000         218.000
  20645601.602   -21705212.01649 -16883780.85447  20645600.858    20645608.602
       245.000         212.000
  24422899.740    -6175336.48249  -4250964.50545  24422898.020    24422913.102
       214.000         141.000
  24005484.774    -1958122.24549  -1490043.11845  24005484.809    24005494.244
       203.000         148.000
 00  5 13  1 46 30.0000000  0  9G21G 3G17G31G23G29G15G25G 9
  20981533.323   -18714056.71449 -14563219.32448  20981532.847    20981540.099
       245.000         214.000
  22455147.920   -12920116.86549 -10035643.07746  22455147.565    22455156.261
       230.000         181.000
  24474230.450    -2167666.89749  -1676997.93845  24474230.433    24474245.070
       203.000         146.000
  22680387.342   -10795879.64749  -8391297.19046  22680386.255    22680396.313
       228.000         181.000
  22784028.793   -10752036.10449  -7687802.39346  22784027.656    22784036.391
       227.000         177.000
  20198384.148   -23733995.20349 -18474240.72148  20198384.020    20198390.213
       244.000         218.000
  20634004.742   -21766153.79549 -16931267.92647  20634003.896    20634011.043
       245.000         212.000
  24404100.409    -6274125.16049  -4327942.20045  24404098.604    24404115.247
       211.000         133.000
  24016264.943    -1901472.44549  -1445900.44245  24016265.136    24016274.876
       212.000         152.000
 00  5 13  1 47  0.0000000  0  9G21G 3G17G31G23G29G15G25G 9
  20981155.845   -18716040.49849 -14564765.13348  20981155.109    20981162.594
       244.000         214.000
  22467331.343   -12856092.35549  -9985753.93346  22467331.100    22467339.475
       229.000         180.000
  24494142.189    -2063030.35048  -1595463.21145  24494142.048    24494157.613
       182.000         138.000
  22682699.497   -10783729.36249  -8381829.47146  22682699.334    22682707.785
       229.000         181.000
  22793694.118   -10701243.38949  -7648223.73346  22793693.504    22793702.461
       227.000         178.000
  20199898.070   -23726039.18949 -18468041.23648  20199897.822    20199904.063
       245.000         218.000
  20622478.277   -21826725.63849 -16978466.74847  20622477.386    20622485.168
       244.000         212.000
  24385293.854    -6372952.86649  -4404950.44945  24385290.854    24385306.212
       206.000         136.000
  24027140.375    -1844322.35549  -1401367.94645  24027139.957    24027149.891
       216.000         155.000
 00  5 13  1 47 30.0000000  0  8G21G 3G31G23G29G15G25G 9
  20980806.376   -18717876.56049 -14566195.81748  20980805.790    20980813.305
       245.000         214.000
  22479582.249   -12791713.13249  -9935588.40046  22479582.749    22479592.115
       231.000         182.000
  22685114.660   -10771037.24049  -8371939.49146  22685114.732    22685123.420
       232.000         181.000
  22803373.239   -10650379.61849  -7608589.66346  22803373.473    22803381.171
       231.000         181.000
  20201496.823   -23717637.49849 -18461494.45648  20201496.585    20201502.808
       244.000         218.000
  20611022.441   -21886926.03449 -17025376.11947  20611021.627    20611029.171
       244.000         212.000
  24366479.927    -6471818.31149  -4481988.06445  24366479.597    24366491.807
       208.000         132.000
  24038110.272    -1786674.79449  -1356447.78345  24038110.233    24038120.110
       218.000         156.000
 00  5 13  1 48  0.0000000  0  8G21G 3G31G23G29G15G25G 9
  20980485.347   -18719563.53849 -14567510.33948  20980484.773    20980492.214
       243.000         214.000
  22491900.450   -12726980.64749  -9885147.59246  22491901.670    22491911.060
       233.000         184.000
  22687632.820   -10757803.52349  -8361627.54646  22687632.059    22687642.267
       228.000         180.000
  22813066.220   -10599443.19749  -7568898.96546  22813066.213    22813074.523
       231.000         181.000
  20203180.321   -23708790.22549 -18454600.47248  20203180.219    20203186.280
       244.000         218.000
  20599638.001   -21946751.28349 -17071993.15947  20599637.008    20599645.027
       244.000         212.000
  24347659.728    -6570718.08349  -4559052.37144  24347659.256    24347672.468
       207.000         130.000
  24049174.917    -1728530.00749  -1311140.16045  24049174.913    24049185.322
       218.000         157.000
 00  5 13  1 48 30.0000000  0  8G21G 3G31G23G29G15G25G 9
  20980192.725   -18721101.08549 -14568708.42248  20980192.175    20980199.562
       244.000         214.000
  22504285.447   -12661897.87049  -9834433.85346  22504286.307    22504294.413
       230.000         183.000
  22690254.014   -10744028.78649  -8350893.99046  22690253.954    22690261.829
       229.000         180.000
  22822773.024   -10548433.65349  -7529151.29346  22822771.994    22822780.416
       227.000         178.000
  20204948.490   -23699498.40149 -18447360.08548  20204948.335    20204954.638
       244.000         218.000
  20588325.440   -22006198.77449 -17118315.85848  20588324.669    20588332.341
       245.000         213.000
  24328833.451    -6669649.16549  -4636140.99145  24328832.050    24328844.647
       203.000         133.000
  24060333.756    -1669889.76849  -1265446.48745  24060333.907    24060343.468
       217.000         158.000
 00  5 13  1 49  0.0000000  0  8G21G 3G31G23G29G15G25G 9
  20979928.433   -18722489.53249 -14569790.31748  20979927.908    20979935.237
       244.000         213.000
  22516736.284   -12596468.26349  -9783449.85246  22516736.238    22516746.516
       228.000         182.000
  22692977.963   -10729715.06249  -8339740.47846  22692978.108    22692986.268
       230.000         180.000
  22832493.502   -10497351.48449  -7489347.04646  22832492.764    22832500.337
       224.000         174.000
  20206800.806   -23689764.29249 -18439775.05948  20206800.663    20206807.067
       244.000         218.000
  20577085.072   -22065267.04449 -17164343.04548  20577084.281    20577091.937
       245.000         213.000
  24310001.492    -6768609.55249  -4713252.55445  24310000.227    24310014.868
       206.000         139.000
  24071586.494    -1610756.63349  -1219368.75045  24071586.707    24071596.522
       218.000         159.000
 00  5 13  1 49 30.0000000  0  8G21G 3G31G23G29G15G25G 9
  20979692.736   -18723728.09849 -14570755.42048  20979692.271    20979699.420
       245.000         213.000
  22529252.728   -12530694.08249  -9732197.35046  22529253.472    22529262.436
       229.000         181.000
  22695804.116   -10714863.04049  -8328167.49246  22695804.402    22695813.227
       231.000         180.000
  22842228.009   -10446196.01549  -7449485.65646  22842226.755    22842236.388
       225.000         176.000
  20208737.241   -23679588.14849 -18431845.58848  20208737.052    20208743.565
       245.000         218.000
  20565917.415   -22123953.06049 -17210072.38248  20565916.502    20565924.407
       245.000         213.000
  24291164.429    -6867596.20249  -4790384.63545  24291162.498    24291179.034
       214.000         143.000
  24082932.810    -1551131.69449  -1172907.80245  24082933.222    24082942.276
       216.000         159.000
 00  5 13  1 50  0.0000000  0  8G21G 3G31G23G29G15G25G 9
  20979485.454   -18724817.11549 -14571604.00048  20979484.965    20979492.000
       244.000         213.000
  22541834.208   -12464578.94949  -9680679.15246  22541834.203    22541842.953
       229.000         181.000
  22698732.512   -10699474.79949  -8316176.68946  22698731.875    22698740.459
       228.000         180.000
  22851976.389   -10394967.69849  -7409567.55746  22851976.936    22851985.004
       229.000         179.000
  20210757.360   -23668972.21849 -18423573.43148  20210757.264    20210763.536
       244.000         218.000
  20554822.833   -22182255.32549 -17255502.68748  20554822.233    20554829.706
       245.000         213.000
  24272322.682    -6966607.55349  -4867535.84145  24272320.452    24272336.687
       213.000         151.000
  24094372.142    -1491017.51849  -1126065.65445  24094372.193    24094381.595
       210.000         158.000
 00  5 13  1 50 30.0000000  0  8G21G 3G31G23G29G15G25G 9
  20979306.896   -18725755.29549 -14572335.04548  20979306.408    20979313.865
       243.000         213.000
  22554479.949   -12398125.07949  -9628897.01546  22554481.367    22554489.409
       230.000         181.000
  22701762.716   -10683550.57749  -8303768.23146  22701763.196    22701769.738
       230.000         179.000
  22861739.083   -10343665.62749  -7369591.95046  22861738.418    22861746.563
       226.000         180.000
  20212861.060   -23657917.13049 -18414959.06848  20212860.938    20212867.188
       244.000         218.000
  20543802.027   -22240170.37949 -17300631.26348  20543801.292    20543808.753
       245.000         213.000
  24253477.187    -7065640.13949  -4944703.70045  24253476.458    24253491.919
       212.000         158.000
  24105904.421    -1430415.18249  -1078843.09845  24105904.430    24105914.371
       210.000         157.000
 00  5 13  1 51  0.0000000  0  8G21G 3G31G23G29G15G25G 9
  20979156.839   -18726543.54549 -14572949.26248  20979156.272    20979163.907
       244.000         213.000
  22567189.686   -12331335.77249  -9576853.50146  22567189.720    22567200.342
       227.000         180.000
  22704894.640   -10667092.73449  -8290943.96746  22704893.899    22704903.923
       229.000         181.000
  22871515.503   -10292290.39749  -7329559.32546  22871514.800    22871523.490
       226.000         179.000
  20215047.919   -23646424.77049 -18406003.97648  20215047.774    20215054.264
       244.000         218.000
  20532855.057   -22297696.91349 -17345457.09948  20532854.101    20532861.810
       245.000         213.000
  24234627.829    -7164692.49049  -5021886.91645  24234625.988    24234641.470
       210.000         159.000
  24117528.987    -1369327.23249  -1031242.17445  24117529.332    24117539.195
       209.000         154.000
 00  5 13  1 51 30.0000000  0  8G21G 3G31G23G29G15G25G 9
  20979035.474   -18727181.31149 -14573446.22048  20979034.856    20979042.443
       243.000         213.000
  22579962.622   -12264214.08949  -9524551.00246  22579961.988    22579973.703
       224.000         181.000
  22708127.960   -10650102.32749  -8277704.72646  22708126.591    22708135.481
       227.000         180.000
  22881305.749   -10240841.49049  -7289469.33046  22881305.182    22881313.390
       224.000         173.000
  20217317.783   -23634496.52649 -18396709.23148  20217317.712    20217324.036
       244.000         218.000
  20521982.468   -22354832.38849 -17389978.21048  20521981.708    20521989.152
       245.000         213.000
  24215775.275    -7263761.84349  -5099083.34245  24215773.419    24215789.250
       219.000         161.000
  24129245.746    -1307755.17449   -983264.00745  24129245.641    24129255.977
       208.000         154.000
 00  5 13  1 52  0.0000000  0  8G21G 3G31G23G29G15G25G 9
  20978943.025   -18727667.06649 -14573824.73948  20978942.700    20978949.982
       244.000         213.000
  22592798.365   -12196762.00449  -9471991.01746  22592797.302    22592810.263
       224.000         181.000
  22711462.349   -10632579.83849  -8264050.87546  22711463.281    22711472.038
       231.000         180.000
  22891110.420   -10189318.03349  -7249321.20446  22891109.924    22891118.262
       224.000         175.000
  20219670.546   -23622132.79349 -18387075.14148  20219670.423    20219676.805
       244.000         218.000
  20511185.016   -22411573.45249 -17434191.99548  20511184.502    20511191.793
       246.000         213.000
  24196920.127    -7362844.48249  -5176290.10446  24196920.161    24196934.510
       217.000         164.000
  24141054.421    -1245700.35549   -934909.66645  24141055.065    24141064.505
       211.000         154.000
 00  5 13  1 52 30.0000000  0  8G21G 3G31G23G29G15G25G 9
  20978879.422   -18728001.10149 -14574085.02848  20978878.994    20978886.298
       244.000         213.000
  22605696.106   -12128982.92649  -9419176.27446  22605696.082    22605707.383
       228.000         181.000
  22714897.689   -10614527.23349  -8249983.93146  22714898.153    22714906.410
       232.000         181.000
  22900928.974   -10137720.02949  -7209115.00046  22900930.136    22900936.270
       227.000         172.000
  20222105.753   -23609335.64049 -18377103.31848  20222105.817    20222111.927
       244.000         218.000
  20500462.840   -22467918.46549 -17478097.15148  20500462.095    20500469.605
       246.000         214.000
  24178062.683    -7461938.75349  -5253505.96346  24178061.596    24178077.034
       215.000         163.000
  24152954.503    -1183165.30849   -886181.11145  24152955.207    24152964.596
       214.000         155.000
 00  5 13  1 53  0.0000000  0  8G21G 3G31G23G29G15G25G 9
  20978844.861   -18728183.23549 -14574226.96848  20978844.398    20978851.805
       244.000         213.000
  22618655.940   -12060879.97649  -9366109.11246  22618655.601    22618664.837
       226.000         179.000
  22718433.456   -10595946.16249  -8235505.21646  22718433.126    22718441.381
       231.000         181.000
  22910762.180   -10086047.80249  -7168850.94246  22910761.920    22910771.224
       227.000         178.000
  20224623.187   -23596106.44249 -18366794.85148  20224623.025    20224629.263
       244.000         218.000
  20489816.564   -22523865.10549 -17521691.90448  20489815.626    20489823.404
       245.000         214.000
  24159203.655    -7561042.26749  -5330729.00145  24159200.783    24159217.140
       213.000         160.000
  24164945.720    -1120152.04949   -837079.93445  24164945.916    24164955.398
       215.000         156.000
 00  5 13  1 53 30.0000000  0  8G21G 3G31G23G29G15G25G 9
  20978839.163   -18728212.91649 -14574250.10948  20978838.642    20978846.353
       244.000         213.000
  22631676.581   -11992455.78849  -9312791.67246  22631676.396    22631686.154
       226.000         179.000
  22722069.855   -10576837.50449  -8220615.39746  22722069.219    22722078.288
       228.000         180.000
  22920609.379   -10034300.88449  -7128528.71846  22920608.993    22920618.173
       226.000         179.000
  20227222.559   -23582446.71649 -18356150.91248  20227222.315    20227228.822
       244.000         218.000
  20479246.488   -22579410.95149 -17564974.34848  20479245.573    20479253.173
       246.000         214.000
  24140343.344    -7660152.17549  -5407957.00945  24140342.039    24140355.842
       212.000         158.000
  24177027.379    -1056662.64449   -787607.71245  24177027.252    24177037.388
       215.000         155.000
 00  5 13  1 54  0.0000000  0  8G21G 3G31G23G29G15G25G 9
  20978862.534   -18728090.17049 -14574154.47848  20978862.146    20978869.553
       244.000         213.000
  22644757.942   -11923713.05749  -9259225.94546  22644757.690    22644769.488
       228.000         178.000
  22725806.172   -10557202.69049  -8205315.59446  22725806.162    22725814.208
       229.000         180.000
  22930470.622    -9982478.71849  -7088147.88046  22930467.937    22930479.368
       218.000         175.000
  20229903.600   -23568357.42249 -18345172.22748  20229903.509    20229909.760
       244.000         218.000
  20468753.154   -22634553.61949 -17607942.62648  20468752.388    20468760.014
       245.000         214.000
  24121482.377    -7759265.99749  -5485188.08445  24121477.748    24121491.909
       203.000         156.000
  24189199.339     -992698.52549   -737765.57745  24189198.916    24189209.300
       216.000         154.000
 00  5 13  1 54 30.0000000  0  8G21G 3G31G23G29G15G25G 9
  20978915.195   -18727813.30249 -14573938.74148  20978914.879    20978922.082
       244.000         213.000
  22657899.429   -11854654.05849  -9205413.85046  22657899.573    22657909.552
       228.000         179.000
  22729642.607   -10537042.75149  -8189606.58246  22729641.407    22729650.549
       228.000         180.000
  22940346.265    -9930580.47749  -7047707.71746  22940347.538    22940354.844
       227.000         174.000
  20232666.258   -23553839.48249 -18333859.52348  20232666.097    20232672.481
       244.000         218.000
  20458337.109   -22689290.04049 -17650594.34748  20458336.338    20458343.996
       245.000         214.000
  24102621.224    -7858380.20849  -5562419.50645  24102619.873    24102634.353
       213.000         155.000
  24201461.346     -928260.96449   -687554.52345  24201461.417    24201471.844
       217.000         151.000
 00  5 13  1 55  0.0000000  0  8G21G 3G31G23G29G15G25G 9
  20978997.086   -18727383.11649 -14573603.53648  20978996.573    20979004.211
       244.000         213.000
  22671100.397   -11785282.68249  -9151358.29946  22671100.724    22671111.346
       226.000         177.000
  22733578.370   -10516359.58149  -8173489.85846  22733578.611    22733585.932
       231.000         180.000
  22950236.829    -9878606.88449  -7007208.84546  22950234.663    22950244.690
       221.000         173.000
  20235510.089   -23538895.03649 -18322214.48448  20235510.018    20235516.385
       244.000         218.000
  20447998.618   -22743618.83149 -17692928.43848  20447997.636    20448005.300
       245.000         215.000
  24083760.111    -7957493.56249  -5639650.23245  24083757.172    24083774.213
       211.000         152.000
  24213812.889     -863352.90449   -636976.84345  24213813.436    24213822.989
       215.000         148.000
 00  5 13  1 55 30.0000000  0  8G21G 3G31G23G29G15G25G 9
  20979108.284   -18726798.79249 -14573148.22048  20979107.766    20979115.147
       244.000         213.000
  22684360.404   -11715601.73849  -9097061.55846  22684361.923    22684367.139
       231.000         180.000
  22737613.793   -10495154.72149  -8156966.60446  22737613.188    22737622.657
       231.000         181.000
  22960141.557    -9826557.41349  -6966650.79646  22960142.174    22960149.981
       228.000         175.000
  20238434.827   -23523525.29949 -18310238.04848  20238434.733    20238441.082
       244.000         218.000
  20437738.195   -22797537.43549 -17734942.90048  20437737.359    20437745.097
       245.000         215.000
  24064899.817    -8056602.82449  -5716877.75345  24064897.258    24064911.497
       210.000         149.000
  24226253.634     -797975.98749   -586033.81445  24226253.234    24226264.022
       215.000         145.000
 00  5 13  1 56  0.0000000  0  8G21G 3G31G23G29G15G25G 9
  20979248.760   -18726060.55449 -14572572.97648  20979248.249    20979255.651
       244.000         213.000
  22697678.509   -11645614.74749  -9042526.34146  22697680.143    22697689.920
       230.000         179.000
  22741747.806   -10473429.85749  -8140038.20346  22741746.636    22741757.308
       226.000         181.000
  22970060.692    -9774432.14949  -6926033.76546  22970059.399    22970068.007
       220.000         172.000
  20241440.126   -23507732.20249 -18297931.72648  20241439.973    20241446.349
       244.000         218.000
  20427556.192   -22851043.79649 -17776636.14048  20427555.807    20427563.067
       246.000         215.000
  24046040.732    -8155705.94449  -5794100.54345  24046039.773    24046052.395
       211.000         149.000
  24238783.144     -732132.83049   -534727.46045  24238782.310    24238793.292
       213.000         145.000
 00  5 13  1 56 30.0000000  0  9G21G 3G31G23G29G15G25G11G 9
  20979418.149   -18725170.51849 -14571879.43948  20979417.661    20979425.078
       244.000         213.000
  22711053.939   -11575326.40549  -8987756.29746  22711055.174    22711061.345
       229.000         177.000
  22745980.112   -10451188.82449  -8122707.53746  22745979.076    22745988.581
       228.000         180.000
  22979993.803    -9722233.06049  -6885359.14746  22979993.591    22980002.154
       221.000         173.000
  20244525.311   -23491519.27949 -18285298.26848  20244525.287    20244531.530
       244.000         218.000
  20417452.680   -22904137.82649 -17818008.07648  20417451.842    20417459.466
       245.000         215.000
  24027182.713    -8254802.81449  -5871318.40945  24027180.099    24027194.287
       210.000         148.000
                  -1277581.94459   -692709.10743
       206.000          74.000
  24251400.614     -665827.70549   -483061.16045  24251401.684    24251411.077
       215.000         145.000
 00  5 13  1 57  0.0000000  0  9G21G 3G31G23G29G15G25G11G 9
  20979616.880   -18724126.12749 -14571065.63348  20979616.514    20979623.740
       244.000         213.000
  22724486.615   -11504738.50149  -8932752.80946  22724484.617    22724497.814
       222.000         178.000
  22750310.600   -10428431.73349  -8104974.81446  22750310.688    22750318.549
       230.000         181.000
  22989941.055    -9669958.42249  -6844625.77046  22989941.605    22989950.506
       223.000         173.000
  20247690.382   -23474886.72249 -18272337.82848  20247690.466    20247696.578
       244.000         218.000
  20407428.337   -22956815.97849 -17859055.95848  20407427.652    20407435.386
       246.000         215.000
  24008326.886    -8353889.42749  -5948528.29145  24008323.034    24008339.419
       213.000         150.000
                  -1380321.13149   -772765.51644                  24585318.893
       208.000         128.000
  24264106.015     -599061.05549   -431035.23845  24264105.749    24264115.872
       214.000         146.000
 00  5 13  1 57 30.0000000  0  9G21G 3G31G23G29G15G25G11G 9
  20979845.183   -18722926.21149 -14570130.62748  20979844.716    20979852.352
       244.000         213.000
  22737975.634   -11433852.92249  -8877517.36146  22737975.067    22737983.494
       227.000         177.000
  22754739.334   -10405159.15049  -8086840.33646  22754738.442    22754747.778
       227.000         180.000
  22999903.342    -9617606.75149  -6803832.28846  22999903.588    22999911.900
       225.000         175.000
  20250935.266   -23457834.69849 -18259050.52948  20250935.209    20250941.258
       244.000         218.000
  20397483.792   -23009074.70649 -17899777.01148  20397483.086    20397490.616
       245.000         215.000
  23989473.681    -8452961.75549  -6025727.04945  23989472.144    23989484.969
       218.000         152.000
  24565768.656    -1483007.89749   -852781.08945  24565769.332    24565778.747
       209.000         137.000
  24276899.117     -531833.64049   -378650.28245  24276899.872    24276909.586
       214.000         148.000
 00  5 13  1 58  0.0000000  0  9G21G 3G31G23G29G15G25G11G 9
  20980103.398   -18721569.16449 -14569073.18348  20980102.927    20980110.398
       244.000         213.000
  22751521.282   -11362670.82049  -8822050.87646  22751521.849    22751530.767
       230.000         177.000
  22759265.660   -10381371.13549  -8068304.25746  22759265.638    22759276.171
       226.000         178.000
  23009880.632    -9565176.47049  -6762977.54346  23009879.752    23009889.487
       224.000         175.000
  20254259.968   -23440363.45949 -18245436.57348  20254259.908    20254266.089
       244.000         218.000
  20387619.747   -23060910.53449 -17940168.53948  20387618.985    20387626.623
       246.000         216.000
  23970624.069    -8552015.73849  -6102911.56345  23970622.693    23970635.675
       213.000         153.000
  24546238.637    -1585639.28649   -932753.53345  24546238.902    24546248.039
       213.000         141.000
  24289779.622     -464146.67149   -325907.22045  24289779.286    24289788.992
       216.000         149.000
 00  5 13  1 58 30.0000000  0  9G21G 3G31G23G29G15G25G11G 9
  20980391.699   -18720054.42349 -14567892.86148  20980391.177    20980398.717
       244.000         213.000
  22765122.547   -11291195.26849  -8766355.70646  22765124.602    22765132.942
       232.000         177.000
  22763890.360   -10357069.08349  -8049367.62546  22763889.787    22763898.232
       229.000         180.000
  23019873.029    -9512666.90149  -6722061.02746  23019873.453    23019880.923
       232.000         177.000
  20257664.184   -23422474.18049 -18231496.87748  20257664.111    20257670.311
       244.000         218.000
  20377836.623   -23112320.99149 -17980228.60548  20377835.828    20377843.703
       247.000         216.000
  23951778.471    -8651048.82349  -6180079.76645  23951776.480    23951791.011
       209.000         154.000
  24526719.683    -1688212.95349  -1012680.99445  24526719.955    24526728.934
       213.000         144.000
  24302747.216     -396001.66349   -272807.26345  24302746.719    24302757.214
       215.000         151.000
 00  5 13  1 59  0.0000000  0  9G21G 3G31G23G29G15G25G11G 9
  20980709.847   -18718382.39249 -14566589.96948  20980709.737    20980716.930
       244.000         213.000
  22778778.979   -11219430.62949  -8710435.32046  22778779.219    22778788.145
       227.000         176.000
  22768612.366   -10332255.82349  -8030032.64546  22768611.278    22768621.954
       227.000         180.000
  23029880.483    -9460079.18249  -6681083.54746  23029878.457    23029888.344
       221.000         175.000
  20261147.407   -23404169.54149 -18217233.52248  20261147.250    20261153.548
       244.000         218.000
  20368134.793   -23163304.62249 -18019956.08648  20368134.004    20368141.371
       246.000         216.000
  23932937.032    -8750059.68449  -6257230.58545  23932936.713    23932947.882
       211.000         153.000
  24507211.746    -1790727.99849  -1092562.75845  24507211.411    24507219.942
       212.000         146.000
  24315801.462     -327401.76449   -219352.84945  24315801.571    24315811.858
       216.000         152.000
 00  5 13  1 59 30.0000000  0  9G21G 3G31G23G29G15G25G11G 9
  20981058.188   -18716551.77549 -14565163.50148  20981057.436    20981065.259
       244.000         213.000
  22792490.086   -11147378.95249  -8654291.27346  22792489.598    22792498.280
       223.000         176.000
  22773431.188   -10306932.21149  -8010299.98946  22773431.312    22773441.391
       230.000         181.000
  23039902.239    -9407411.94049  -6640044.22046  23039902.617    23039910.536
       224.000         172.000
  20264709.531   -23385450.22049 -18202647.03648  20264709.384    20264715.632
       244.000         218.000
  20358514.738   -23213858.39749 -18059348.61348  20358514.234    20358521.821
       247.000         216.000
  23914100.429    -8849044.96649  -6334361.53445  23914097.755    23914111.644
       215.000         152.000
  24487715.439    -1893181.44949  -1172396.53145  24487715.427    24487725.445
       217.000         148.000
  24328941.897     -258348.32949   -165545.02845  24328941.954    24328952.029
       217.000         153.000
 00  5 13  2  0  0.0000000  0  9G21G 3G31G23G29G15G25G11G 9
  20981436.588   -18714563.46149 -14563614.15048  20981435.894    20981443.493
       244.000         213.000
  22806255.166   -11075044.15549  -8597926.57446  22806252.500    22806264.660
       222.000         176.000
  22778346.735   -10281100.92749  -7990171.77046  22778346.559    22778354.143
       228.000         179.000
  23049939.692    -9354666.30749  -6598943.66846  23049937.540    23049948.557
       220.000         172.000
  20268350.105   -23366318.83349 -18187739.46348  20268350.003    20268356.238
       244.000         218.000
  20348976.714   -23263981.23549 -18098405.34248  20348976.007    20348983.464
       247.000         216.000
  23895269.055    -8948002.77849  -6411471.11545  23895269.109    23895282.167
       214.000         153.000
  24468231.251    -1995572.41849  -1252181.61345  24468230.596    24468240.440
       217.000         150.000
  24342167.910     -188844.95649   -111386.59545  24342167.988    24342177.726
       217.000         154.000
 00  5 13  2  0 30.0000000  0  9G21G 3G31G23G29G15G25G11G 9
  20981845.127   -18712416.23549 -14561940.97848  20981844.481    20981852.132
       244.000         213.000
  22820073.552   -11002428.27849  -8541342.87146  22820072.602    22820082.967
       227.000         176.000
  22783358.763   -10254762.98049  -7969648.70046  22783358.249    22783366.916
       229.000         180.000
  23059991.791    -9301840.82549  -6557781.09646  23059993.359    23060001.476
       230.000         179.000
  20272068.936   -23346776.27249 -18172511.50148  20272068.869    20272075.115
       244.000         218.000
  20339521.236   -23313670.08049 -18137123.90148  20339520.373    20339527.983
       246.000         217.000
  23876443.500    -9046929.70349  -6488556.61345  23876438.006    23876453.895
       211.000         152.000
  24448759.185    -2097898.12949  -1331915.84045  24448758.447    24448768.154
       218.000         152.000
  24355479.365     -118892.74949    -56878.42145  24355479.582    24355489.813
       217.000         156.000
 00  5 13  2  1  0.0000000  0  9G21G 3G31G23G29G15G25G11G 9
  20982283.908   -18710110.18249 -14560144.03848  20982283.647    20982290.895
       244.000         213.000
  22833944.556   -10929535.31349  -8484543.23746  22833944.779    22833955.444
       227.000         174.000
  22788466.545   -10227920.77149  -7948732.73246  22788465.604    22788475.696
       228.000         180.000
  23070059.640    -9248936.60649  -6516556.95746  23070058.051    23070066.501
       223.000         178.000
  20275865.616   -23326824.56349 -18156964.71548  20275865.560    20275871.716
       244.000         218.000
  20330148.548   -23362923.60049 -18175503.23648  20330147.812    20330155.058
       246.000         217.000
  23857624.090    -9145824.07449  -6565616.73645  23857622.731    23857635.083
       217.000         154.000
  24429299.986    -2200157.14849  -1411598.11045  24429299.128    24429308.640
       217.000         153.000
  24368875.743      -48494.53649     -2022.71345  24368875.568    24368885.472
       217.000         156.000
 00  5 13  2  1 30.0000000  0  9G21G 3G31G23G29G15G25G11G 9
  20982753.031   -18707644.98049 -14558223.08548  20982752.763    20982759.791
       244.000         213.000
  22847867.883   -10856368.33449  -8427530.14346  22847866.601    22847876.249
       223.000         174.000
  22793670.258   -10200576.22449  -7927425.33346  22793668.622    22793679.024
       226.000         179.000
  23080141.745    -9195952.84849  -6475271.00446  23080143.249    23080151.653
       231.000         180.000
  20279739.783   -23306465.44949 -18141100.47848  20279739.688    20279746.164
       244.000         218.000
  20320859.193   -23411739.53049 -18213541.59648  20320858.412    20320866.147
       246.000         217.000
  23838811.589    -9244683.26849  -6642649.47045  23838810.185    23838822.355
       216.000         157.000
  24409853.672    -2302347.68149  -1491227.00345  24409852.791    24409862.624
       217.000         154.000
  24382356.468       22347.20249     53178.57445  24382356.666    24382367.045
       217.000         156.000
 00  5 13  2  2  0.0000000  0  9G21G 3G31G23G29G15G25G11G 9
  20983252.744   -18705019.14949 -14556176.96848  20983252.247    20983259.650
       244.000         213.000
  22861842.782   -10782929.31749  -8370305.00346  22861841.816    22861855.008
       223.000         174.000
  22798969.043   -10172729.97549  -7905726.98746  22798968.443    22798977.791
       227.000         178.000
  23090240.078    -9142888.65749  -6433922.29446  23090238.401    23090246.496
       221.000         180.000
  20283691.411   -23285699.66849 -18124919.35348  20283691.493    20283697.527
       245.000         218.000
  20311653.656   -23460114.50349 -18251236.35648  20311652.925    20311660.305
       247.000         217.000
  23820006.338    -9343503.73549  -6719651.95245  23820006.513    23820019.761
       215.000         158.000
  24390420.900    -2404466.71349  -1570800.18345  24390420.004    24390430.025
       215.000         154.000
  24395921.428       93631.73349    108724.93245  24395921.855    24395931.033
       217.000         155.000
 00  5 13  2  2 30.0000000  0  9G21G 3G31G23G29G15G25G11G 9
  20983782.842   -18702233.34849 -14554006.19848  20983782.340    20983789.626
       244.000         213.000
  22875868.760   -10709221.95049  -8312870.78546  22875869.255    22875879.424
       225.000         173.000
  22804362.889   -10144384.84649  -7883639.90246  22804363.238    22804371.803
       229.000         177.000
  23100352.615    -9089744.21349  -6392511.02946  23100353.188    23100361.139
       227.000         169.000
  20287720.015   -23264529.50249 -18108423.11848  20287719.894    20287726.105
       244.000         218.000
  20302532.302   -23508047.36249 -18288586.60348  20302531.680    20302538.978
       247.000         217.000
  23801208.681    -9442284.27949  -6796623.35645  23801208.536    23801220.500
       220.000         157.000
  24371002.027    -2506513.09949  -1650316.75245  24371001.577    24371011.236
       214.000         154.000
  24409570.091      165355.56549    164613.62445  24409570.176    24409580.141
       215.000         154.000
 00  5 13  2  3  0.0000000  0  9G21G 3G31G23G29G15G25G11G 9
  20984343.576   -18699286.68849 -14551710.09148  20984343.162    20984350.516
       244.000         213.000
  22889945.357   -10635249.42649  -8255230.00146  22889946.730    22889955.025
       228.000         173.000
  22809851.474   -10115542.65049  -7861165.48946  22809851.358    22809861.408
       228.000         178.000
  23110481.391    -9036519.40849  -6351037.22746  23110479.938    23110490.415
       218.000         175.000
  20291825.218   -23242956.39049 -18091612.90648  20291825.222    20291831.456
       244.000         218.000
  20293495.610   -23555535.65949 -18325590.45048  20293495.036    20293502.555
       247.000         217.000
  23782419.228    -9541021.62949  -6873561.16345  23782416.616    23782432.650
       213.000         157.000
  24351597.547    -2608484.41849  -1729774.83145  24351596.850    24351606.763
       214.000         153.000
  24423301.945      237516.75649    220843.09845  24423302.110    24423312.961
       217.000         153.000
 00  5 13  2  3 30.0000000  0  9G21G 3G31G23G29G15G25G11G 9
  20984935.071   -18696178.49449 -14549288.11548  20984934.682    20984941.992
       244.000         213.000
  22904071.932   -10561014.66149  -8197384.87246  22904073.430    22904082.874
       227.000         174.000
  22815434.490   -10086204.52349  -7838304.64546  22815434.214    22815444.015
       228.000         178.000
  23120624.745    -8983213.41749  -6309500.15146  23120626.264    23120629.160
       227.000         166.000
  20296006.852   -23220981.82949 -18074489.86948  20296006.697    20296013.019
       244.000         218.000
  20284543.887   -23602577.03749 -18362246.03848  20284543.143    20284550.700
       246.000         217.000
  23763638.522    -9639712.66749  -6950462.83145  23763636.057    23763648.299
       216.000         157.000
  24332207.694    -2710378.11949  -1809172.42445  24332206.754    24332216.877
       209.000         151.000
  24437116.751      310113.31549    277411.82345  24437116.456    24437127.164
       214.000         151.000
 00  5 13  2  4  0.0000000  0  9G21G 3G31G23G29G15G25G11G 9
  20985557.145   -18692909.32649 -14546740.70948  20985556.751    20985563.956
       244.000         213.000
  22918247.967   -10486521.00149  -8139337.92246  22918246.418    22918258.461
       223.000         173.000
  22821111.129   -10056372.89949  -7815059.27846  22821109.555    22821120.684
       224.000         177.000
  23130784.412    -8929826.58949  -6267899.96546  23130783.772    23130794.199
       227.000         173.000
  20300264.485   -23198607.77349 -18057055.54048  20300264.409    20300270.643
       244.000         218.000
  20275677.559   -23649169.64749 -18398551.94248  20275676.631    20275684.018
       246.000         217.000
  23744867.073    -9738355.46749  -7027326.97945  23744865.512    23744874.904
       214.000         158.000
  24312832.781    -2812192.96249  -1888508.57145  24312832.127    24312841.694
       204.000         148.000
  24451013.679      383142.34149    334317.50545  24451013.246    24451023.513
       212.000         149.000
 00  5 13  2  4 30.0000000  0  9G21G 3G31G23G29G15G25G11G 9
  20986210.126   -18689477.74749 -14544066.74648  20986209.460    20986217.063
       244.000         213.000
  22932472.330   -10411770.41449  -8081090.85446  22932472.260    22932481.304
       224.000         175.000
  22826881.346   -10026048.77349  -7791430.10546  22826881.399    22826891.171
       226.000         177.000
  23140959.110    -8876357.52949  -6226235.88446  23140958.967    23140966.669
       227.000         175.000
  20304597.988   -23175835.05949 -18039310.56948  20304597.819    20304604.284
       245.000         218.000
  20266897.205   -23695310.55849 -18434505.87148  20266896.579    20266903.935
       247.000         217.000
  23726105.329    -9836946.64049  -7104150.80845  23726105.519    23726118.328
       219.000         161.000
  24293473.409    -2913925.84249  -1967780.83145  24293472.459    24293482.627
       204.000         144.000
  24464992.741      456602.55849    391559.19845  24464993.557    24465003.639
       212.000         147.000
 00  5 13  2  5  0.0000000  0  9G21G 3G31G23G29G15G25G11G 9
  20986894.085   -18685883.36649 -14541265.92948  20986893.526    20986900.826
       243.000         213.000
  22946745.172   -10336766.36849  -8022646.22646  22946746.308    22946757.249
       228.000         173.000
  22832744.976    -9995234.78149  -7767419.24046  22832746.718    22832752.919
       230.000         176.000
  23151149.724    -8822806.57649  -6184507.78246  23151149.183    23151156.357
       228.000         173.000
  20309006.965   -23152665.68949 -18021256.51448  20309006.927    20309013.090
       244.000         218.000
  20258203.082   -23740998.25849 -18470106.65148  20258202.238    20258209.690
       246.000         217.000
  23707353.878    -9935484.05749  -7180932.85145  23707357.488    23707364.057
       223.000         162.000
  24274130.113    -3015575.04349  -2046987.90345  24274130.029    24274140.034
       204.000         142.000
  24479053.332      530491.26549    449134.78945  24479053.644    24479063.238
       211.000         144.000
 00  5 13  2  5 30.0000000  0  9G21G 3G31G23G29G15G25G11G 9
  20987609.129   -18682125.57149 -14538337.78147  20987608.861    20987616.104
       244.000         212.000
  22961065.729   -10261512.15149  -7964006.73346  22961064.936    22961075.926
       223.000         173.000
  22838701.672    -9963933.04749  -7743028.30346  22838702.545    22838710.065
       230.000         177.000
  23161355.796    -8769173.39649  -6142715.79346  23161355.167    23161365.962
       223.000         177.000
  20313491.128   -23129101.41349 -18002894.74148  20313490.923    20313497.382
       244.000         218.000
  20249595.593   -23786230.48349 -18505352.51148  20249594.987    20249602.142
       246.000         217.000
  23688613.262   -10033965.25649  -7257671.06146  23688612.485    23688626.420
       222.000         163.000
  24254802.956    -3117138.74049  -2126128.36245  24254801.450    24254812.216
       203.000         140.000
  24493194.922      604805.77549    507042.15045  24493195.334    24493205.652
       206.000         140.000
 00  5 13  2  6  0.0000000  0  9G21G 3G31G23G29G15G25G11G 9
  20988355.391   -18678203.98449 -14535281.99847  20988354.894    20988362.202
       244.000         212.000
  22975433.362   -10186010.62849  -7905174.44246  22975432.699    22975444.685
       223.000         172.000
  22844750.997    -9932144.89949  -7718258.35846  22844750.768    22844761.401
       227.000         178.000
  23171577.558    -8715457.60149  -6100859.38146  23171576.801    23171584.504
       220.000         174.000
  20318050.109   -23105143.69849 -17984226.39348  20318050.077    20318056.330
       244.000         218.000
  20241075.341   -23831004.82549 -18540241.58348  20241074.586    20241081.977
       246.000         217.000
  23669883.942   -10132387.26649  -7334363.17946  23669881.002    23669893.355
       217.000         163.000
  24235492.546    -3218614.43749  -2205200.23445  24235492.658    24235501.636
       206.000         141.000
  24507417.250      679544.26149    565279.89545  24507417.698    24507427.904
       208.000         137.000
 00  5 13  2  6 30.0000000  0  8G21G 3G31G23G29G15G25G11
  20989133.118   -18674117.09249 -14532097.41247  20989132.646    20989139.722
       244.000         212.000
  22989847.516   -10110263.90849  -7846151.09746  22989847.260    22989858.418
       226.000         173.000
  22850892.607    -9899871.01049  -7693109.92146  22850893.246    22850901.731
       229.000         178.000
  23181815.026    -8661657.55049  -6058937.28846  23181815.283    23181823.422
       223.000         163.000
  20322683.910   -23080792.82549 -17965251.68348  20322683.789    20322690.142
       244.000         218.000
  20232642.777   -23875318.07849 -18574771.37048  20232642.173    20232649.636
       246.000         218.000
  23651166.619   -10230745.98849  -7411006.01246  23651162.981    23651177.421
       219.000         163.000
  24216199.853    -3319998.60149  -2284200.80145  24216199.424    24216208.282
       210.000         143.000
 00  5 13  2  7  0.0000000  0  8G21G 3G31G23G29G15G25G11
  20989942.279   -18669864.85549 -14528783.98447  20989941.606    20989948.959
       243.000         212.000
  23004307.734   -10034274.97349  -7786939.10946  23004308.409    23004316.217
       223.000         172.000
  22857126.341    -9867113.85649  -7667584.89546  22857125.361    22857135.185
       228.000         177.000
  23192069.104    -8607773.63049  -6016949.83746  23192068.815    23192077.140
       226.000         171.000
  20327392.163   -23056050.98549 -17945972.32348  20327391.999    20327398.091
       245.000         218.000
  20224298.254   -23919168.50749 -18608940.50848  20224297.600    20224304.796
       247.000         218.000
  23632461.732   -10329039.21149  -7487597.84445  23632461.268    23632471.498
       214.000         162.000
  24196924.849    -3421289.69049  -2363128.86245  24196924.778    24196933.727
       212.000         147.000
 00  5 13  2  7 30.0000000  0  8G21G 3G31G23G29G15G25G11
  20990782.646   -18665448.53849 -14525342.70548  20990782.224    20990789.632
       244.000         213.000
  23018813.416    -9958049.06549  -7727542.36246  23018813.927    23018824.391
       225.000         176.000
  22863450.787    -9833877.57049  -7641686.51946  22863450.023    22863460.880
       228.000         177.000
  23202338.387    -8553807.22749  -5974898.13146  23202337.546    23202344.084
       222.000         165.000
  20332174.015   -23030921.91249 -17926391.22748  20332173.989    20332180.183
       244.000         218.000
  20216041.861   -23962555.96449 -18642748.89248  20216041.226    20216048.660
       247.000         218.000
  23613769.404   -10427266.63549  -7564138.37345  23613771.366    23613780.155
       213.000         160.000
  24177667.629    -3522487.65149  -2441984.35445  24177667.339    24177676.682
       215.000         152.000
 00  5 13  2  8  0.0000000  0  8G21G 3G31G23G29G15G25G11
  20991654.822   -18660865.34549 -14521771.39548  20991654.350    20991661.664
       244.000         213.000
  23033363.322    -9881587.24249  -7667961.87346  23033366.692    23033377.172
       230.000         172.000
  22869866.697    -9800162.21549  -7615414.86146  22869866.031    22869875.645
       229.000         177.000
  23212624.089    -8499756.50549  -5932780.61546  23212624.714    23212632.581
       229.000         172.000
  20337029.625   -23005405.37049 -17906508.20848  20337029.517    20337035.917
       244.000         218.000
  20207874.319   -24005476.51949 -18676193.46348  20207873.860    20207880.935
       248.000         218.000
  23595090.193   -10525423.95049  -7640624.28945  23595091.268    23595103.008
       212.000         161.000
  24158428.779    -3623588.64249  -2520764.27345  24158428.668    24158437.965
       218.000         155.000
 00  5 13  2  8 30.0000000  0  8G21G 3G31G23G29G15G25G11
  20992558.247   -18656117.78149 -14518072.00448  20992557.955    20992565.393
       243.000         213.000
  23047957.752    -9804895.21149  -7608202.05146  23047952.794    23047969.718
       207.000         173.000
  22876373.031    -9765971.96749  -7588773.17346  22876372.127    22876381.603
       226.000         176.000
  23222925.427    -8445623.10949  -5890598.83646  23222922.885    23222935.151
       217.000         172.000
  20341958.183   -22979505.30249 -17886326.34148  20341958.105    20341964.466
       244.000         218.000
  20199795.632   -24047930.34249 -18709274.34248  20199794.963    20199802.302
       247.000         218.000
  23576424.562   -10623510.55349  -7717055.05446  23576425.590    23576435.316
       220.000         163.000
  24139208.407    -3724592.53149  -2599468.52945  24139207.624    24139217.000
       216.000         157.000
 00  5 13  2  9  0.0000000  0  8G21G 3G31G23G29G15G25G11
  20993493.716   -18651201.65449 -14514241.26047  20993493.187    20993500.833
       244.000         212.000
  23062595.592    -9727972.89049  -7548262.57046  23062595.797    23062605.643
       223.000         171.000
  22882969.780    -9731305.94649  -7561760.72046  22882969.480    22882979.901
       227.000         176.000
  23233242.661    -8391403.78649  -5848350.06246  23233242.011    23233248.114
       222.000         167.000
  20346960.020   -22953220.56549 -17865844.73248  20346960.113    20346966.335
       244.000         218.000
  20191806.696   -24089912.48049 -18741987.67548  20191806.034    20191813.526
       247.000         218.000
  23557773.760   -10721520.42649  -7793426.06446  23557774.602    23557785.204
       221.000         166.000
  24120007.266    -3825494.01149  -2678092.97345  24120006.637    24120016.636
       216.000         158.000
 00  5 13  2  9 30.0000000  0  8G21G 3G31G23G29G15G25G11
  20994461.097   -18646117.92749 -14510279.91847  20994461.007    20994468.039
       244.000         212.000
  23077276.272    -9650824.13249  -7488146.85646  23077276.844    23077286.503
       223.000         173.000
  22889656.398    -9696167.53749  -7534380.18546  22889655.721    22889664.390
       227.000         175.000
  23243576.552    -8337099.27849  -5806034.83445  23243573.549    23243585.094
       209.000         162.000
  20352034.589   -22926553.52849 -17845065.22148  20352034.460    20352040.850
       244.000         218.000
  20183907.633   -24131421.87749 -18774332.63848  20183906.772    20183914.246
       246.000         218.000
  23539137.704   -10819452.51149  -7869736.52646  23539138.753    23539148.127
       222.000         167.000
  24100826.050    -3926292.15549  -2756636.89745  24100825.406    24100834.777
       216.000         158.000
 00  5 13  2 10  0.0000000  0  8G21G 3G31G23G29G15G25G11
  20995460.599   -18640865.63149 -14506187.21847  20995460.245    20995467.773
       244.000         212.000
  23091999.918    -9573452.39249  -7427857.24246  23091997.553    23092012.344
       217.000         169.000
  22896432.516    -9660558.67949  -7506633.07046  22896431.450    22896441.900
       227.000         176.000
  23253926.165    -8282709.00149  -5763652.93446  23253926.941    23253936.620
       224.000         166.000
  20357181.528   -22899505.97949 -17823989.21448  20357181.566    20357187.888
       245.000         218.000
  20176099.074   -24172455.87449 -18806307.16848  20176098.438    20176105.972
       247.000         218.000
  23520517.001   -10917303.74349  -7945983.94546  23520515.766    23520528.297
       219.000         167.000
  24081664.858    -4026984.61149  -2835098.46345  24081664.650    24081674.071
       215.000         158.000
 00  5 13  2 10 30.0000000  0  8G21G 3G31G23G29G15G25G11
  20996492.189   -18635444.40749 -14501962.88847  20996491.651    20996499.275
       244.000         212.000
  23106765.125    -9495860.83249  -7367396.43646  23106766.768    23106773.935
       226.000         171.000
  22903297.667    -9624481.33149  -7478520.89146  22903296.878    22903305.917
       228.000         175.000
  23264293.062    -8228233.12649  -5721204.12746  23264291.846    23264301.124
       217.000         166.000
  20362400.561   -22872079.86549 -17802618.22148  20362400.384    20362406.945
       246.000         218.000
  20168381.305   -24213013.01749 -18837910.11448  20168380.581    20168388.018
       248.000         218.000
  23501912.259   -11015071.70749  -8022166.49546  23501911.875    23501922.127
       220.000         166.000
  24062524.136    -4127569.25549  -2913476.00445  24062523.891    24062533.897
       218.000         157.000
 00  5 13  2 11  0.0000000  0  8G21G 3G31G23G29G15G25G11
  20997555.878   -18629854.78449 -14497607.34247  20997555.375    20997563.059
       244.000         212.000
  23121571.541    -9418052.96849  -7306767.08146  23121573.518    23121582.935
       227.000         170.000
  22910251.751    -9587938.63449  -7450046.10546  22910251.913    22910261.358
       230.000         178.000
  23274675.247    -8173671.57249  -5678688.75745  23274675.128    23274684.121
       215.000         159.000
  20367691.189   -22844277.42249 -17780953.98848  20367691.211    20367697.471
       245.000         218.000
  20160754.501   -24253092.16349 -18869140.60248  20160753.980    20160761.456
       247.000         219.000
  23483323.718   -11112754.22549  -8098282.47846  23483321.655    23483332.735
       220.000         164.000
  24043404.551    -4228044.59949  -2991768.39245  24043403.668    24043412.964
       215.000         156.000
 00  5 13  2 11 30.0000000  0  8G21G 3G31G23G29G15G25G11
  20998651.922   -18624094.91849 -14493119.13747  20998651.506    20998658.904
       244.000         212.000
  23136418.862    -9340030.62949  -7245970.61846  23136418.791    23136429.751
       222.000         170.000
  22917294.123    -9550931.02949  -7421209.06746  22917293.798    22917302.233
       227.000         176.000
  23285075.035    -8119022.96949  -5636105.42346  23285076.097    23285083.833
       230.000         172.000
  20373053.357   -22816099.28849 -17758997.00748  20373053.389    20373059.356
       245.000         218.000
  20153219.313   -24292689.69549 -18899995.80748  20153218.637    20153225.908
       247.000         219.000
  23464752.032   -11210347.69749  -8174329.10845  23464752.480    23464761.910
       220.000         162.000
  24024306.028    -4328407.23549  -3069972.95345  24024306.109    24024315.047
       214.000         156.000
 00  5 13  2 12  0.0000000  0  8G21G 3G31G23G29G15G25G11
  20999780.288   -18618165.42849 -14488498.76147  20999779.805    20999787.211
       243.000         212.000
  23151305.991    -9261798.19249  -7185010.37946  23151306.754    23151315.488
       226.000         169.000
  22924424.112    -9513462.03649  -7392012.50546  22924424.961    22924434.148
       228.000         177.000
  23295491.169    -8064288.27949  -5593454.94846  23295490.468    23295497.230
       216.000         164.000
  20378486.416   -22787548.28749 -17736749.47548  20378486.347    20378492.481
       244.000         218.000
  20145775.890   -24331805.09049 -18930475.31948  20145775.240    20145782.553
       247.000         219.000
  23446197.547   -11307850.66249  -8250305.15145  23446198.984    23446208.369
       224.000         162.000
  24005229.031    -4428656.33449  -3148089.03545  24005227.587    24005237.306
       217.000         155.000
 00  5 13  2 12 30.0000000  0  8G21G 3G31G23G29G15G25G11
  21000941.135   -18612064.92349 -14483745.11847  21000940.841    21000948.197
       244.000         212.000
  23166233.028    -9183357.82249  -7123888.14246  23166230.033    23166243.304
       217.000         170.000
  22931641.926    -9475532.78149  -7362457.28246  22931640.426    22931650.818
       226.000         176.000
  23305922.899    -8009466.16249  -5550736.49645  23305922.166    23305932.460
       214.000         160.000
  20383990.224   -22758625.50649 -17714212.24748  20383990.237    20383996.472
       245.000         218.000
  20138424.735   -24370435.41349 -18960576.85248  20138424.179    20138431.762
       247.000         219.000
  23427660.909   -11405259.64349  -8326208.02846  23427660.088    23427670.822
       220.000         164.000
  23986174.546    -4528788.66249  -3226114.17145  23986174.397    23986182.933
       218.000         154.000
 00  5 13  2 13  0.0000000  0  8G21G 3G31G23G29G15G25G11
  21002134.871   -18605792.03749 -14478857.15147  21002134.195    21002141.854
       243.000         212.000
  23181199.126    -9104711.80749  -7062605.61846  23181197.231    23181209.901
       217.000         169.000
  22938946.875    -9437144.79449  -7332544.60646  22938945.678    22938956.465
       226.000         177.000
  23316372.267    -7954555.59249  -5507949.11146  23316373.830    23316382.268
       228.000         174.000
  20389564.665   -22729331.60649 -17691385.83948  20389564.668    20389570.913
       245.000         218.000
  20131166.439   -24408577.87949 -18990298.23748  20131165.784    20131173.120
       247.000         219.000
  23409143.077   -11502571.05449  -8402034.85246  23409141.489    23409153.964
       219.000         166.000
  23967142.759    -4628801.15149  -3304045.90945  23967141.443    23967150.773
       216.000         153.000
 00  5 13  2 13 30.0000000  0  8G21G 3G31G23G29G15G25G11
  21003361.280   -18599347.27049 -14473835.26447  21003361.126    21003368.249
       244.000         212.000
  23196203.136    -9025864.88949  -7001166.62546  23196203.762    23196212.519
       224.000         168.000
  22946338.259    -9398301.71649  -7302277.34646  22946338.560    22946347.099
       227.000         176.000
  23326838.249    -7899557.78249  -5465093.66746  23326831.910    23326845.127
       202.000         166.000
  20395209.044   -22699670.15849 -17668273.02848  20395209.041    20395215.415
       245.000         218.000
  20124001.109   -24446232.15249 -19019639.21348  20124000.564    20124007.873
       247.000         219.000
  23390643.953   -11599783.82649  -8477784.82046  23390644.114    23390653.930
       222.000         168.000
  23948133.805    -4728693.35149  -3381883.91545  23948132.833    23948142.287
       216.000         151.000
 00  5 13  2 14  0.0000000  0  8G21G 3G31G23G29G15G25G11
  21004620.725   -18592728.66649 -14468677.90447  21004620.614    21004627.547
       244.000         212.000
  23211245.227    -8946818.35249  -6939572.10246  23211246.029    23211255.256
       224.000         167.000
  22953816.505    -9359004.07249  -7271655.87146  22953816.673    22953826.113
       227.000         177.000
  23337320.487    -7844470.37449  -5422168.43545  23337322.638    23337329.288
       224.000         158.000
  20400923.435   -22669640.80649 -17644873.53548  20400923.445    20400929.800
       244.000         218.000
  20116929.402   -24483394.05549 -19048596.52448  20116929.060    20116936.259
       248.000         219.000
  23372164.447   -11696893.12149  -8553454.13046  23372163.918    23372175.005
       223.000         169.000
  23929148.672    -4828461.00349  -3459624.86045  23929147.876    23929156.307
       214.000         151.000
 00  5 13  2 14 30.0000000  0  8G21G 3G31G23G29G15G25G11
  21005913.081   -18585937.53849 -14463386.11647  21005912.599    21005919.879
       243.000         212.000
  23226324.465    -8867576.80549  -6877825.55646  23226324.540    23226336.654
       221.000         167.000
  22961380.383    -9319255.85949  -7240683.31046  22961379.957    22961390.855
       226.000         176.000
  23347820.546    -7789294.94049  -5379174.55746  23347821.070    23347830.298
       226.000         175.000
  20406707.163   -22639247.08849 -17621190.12548  20406707.191    20406713.629
       244.000         218.000
  20109951.498   -24520063.42949 -19077170.04248  20109950.911    20109958.129
       247.000         219.000
  23353704.801   -11793898.24649  -8629042.31346  23353706.625    23353714.634
       220.000         168.000
  23910187.159    -4928103.66349  -3537268.40645  23910186.512    23910195.303
       214.000         150.000
 00  5 13  2 15  0.0000000  0  8G21G 3G31G23G29G15G25G11
  21007238.484   -18578972.44149 -14457958.76347  21007238.192    21007245.454
       244.000         212.000
  23241440.415    -8788142.73649  -6815929.01546  23241439.626    23241450.662
       220.000         168.000
  22969029.734    -9279058.59049  -7209360.80646  22969028.622    22969038.971
       225.000         175.000
  23358337.134    -7734030.19849  -5336111.25546  23358333.622    23358347.593
       209.000         173.000
  20412559.986   -22608490.26549 -17597223.76448  20412559.919    20412566.250
       245.000         218.000
  20103067.737   -24556237.83149 -19105357.86148  20103066.986    20103074.389
       248.000         219.000
  23335265.529   -11890796.05449  -8704546.83046  23335264.113    23335275.841
       216.000         166.000
  23891250.045    -5027618.24949  -3614812.14645  23891248.982    23891259.363
       212.000         150.000
 00  5 13  2 15 30.0000000  0  8G21G 3G31G23G29G15G25G11
  21008597.298   -18571831.53349 -14452394.41847  21008596.821    21008604.330
       244.000         212.000
  23256592.235    -8708518.22449  -6753884.12846  23256591.347    23256605.033
       220.000         168.000
  22976764.228    -9238413.12049  -7177689.09546  22976763.508    22976772.988
       223.000         174.000
  23368870.569    -7678674.43249  -5292977.01046  23368871.057    23368875.189
       227.000         164.000
  20418481.881   -22577370.50049 -17572974.59948  20418481.839    20418488.097
       245.000         218.000
  20096278.763   -24591914.02349 -19133157.47848  20096278.066    20096285.274
       248.000         219.000
  23316847.556   -11987582.62549  -8779964.68446  23316846.933    23316856.739
       222.000         166.000
  23872337.986    -5127001.39449  -3692253.46645  23872338.314    23872346.200
       215.000         151.000
 00  5 13  2 16  0.0000000  0  8G21G 3G31G23G29G15G25G11
  21009989.462   -18564515.95449 -14446693.95547  21009989.507    21009996.649
       244.000         212.000
  23271779.869    -8628707.75149  -6691694.21746  23271779.882    23271791.254
       222.000         166.000
  22984583.518    -9197323.66649  -7145671.35746  22984583.324    22984592.714
       227.000         174.000
  23379422.011    -7623229.37149  -5249772.81646  23379422.013    23379431.260
       221.000         165.000
  20424472.107   -22545891.83949 -17548445.75848  20424472.232    20424478.364
       244.000         218.000
  20089584.671   -24627092.02449 -19160568.87248  20089584.240    20089591.302
       248.000         219.000
  23298450.926   -12084256.84749  -8855295.02646  23298449.809    23298459.534
       222.000         166.000
  23853451.160    -5226252.44749  -3769591.84245  23853450.760    23853458.890
       216.000         153.000
 00  5 13  2 16 30.0000000  0  8G21G 3G31G23G29G15G25G11
  21011415.075   -18557024.64149 -14440856.56547  21011414.690    21011422.133
       245.000         212.000
  23287002.427    -8548714.09049  -6629361.74246  23287003.073    23287013.446
       222.000         167.000
  22992486.701    -9155792.20149  -7113309.26646  22992486.693    22992496.847
       225.000         174.000
  23389989.616    -7567694.11749  -5206498.79446  23389989.397    23389999.285
       213.000         165.000
  20430530.414   -22514055.28949 -17523638.05748  20430530.378    20430536.502
       244.000         218.000
  20082985.800   -24661769.48049 -19187590.24948  20082985.059    20082992.291
       248.000         219.000
  23280076.285   -12180815.72049  -8930535.48046  23280074.330    23280084.717
       223.000         167.000
  23834589.951    -5325368.91649  -3846825.37445  23834588.837    23834598.380
       215.000         153.000
 00  5 13  2 17  0.0000000  0  8G21G 3G31G23G29G15G25G11
  21012874.206   -18549356.80249 -14434881.63247  21012873.780    21012881.028
       244.000         212.000
  23302259.173    -8468540.34649  -6566888.78346  23302258.852    23302271.892
       221.000         164.000
  23000473.546    -9113821.14949  -7080604.61146  23000473.284    23000481.913
       226.000         175.000
  23400574.982    -7512068.52749  -5163154.19046  23400575.009    23400583.941
       222.000         174.000
  20436656.391   -22481862.71949 -17498552.95148  20436656.307    20436662.633
       244.000         218.000
  20076482.436   -24695944.48049 -19214220.11148  20076481.781    20076488.888
       249.000         219.000
  23261724.024   -12277256.02349  -9005683.59246  23261723.134    23261733.496
       222.000         169.000
  23815754.485    -5424348.23949  -3923952.04345  23815753.987    23815762.428
       215.000         152.000
 00  5 13  2 17 30.0000000  0  8G21G 3G31G23G29G15G25G11
  21014367.117   -18541511.32949 -14428768.27447  21014366.687    21014373.799
       244.000         212.000
  23317549.571    -8388189.05649  -6504277.62046  23317548.567    23317561.912
       216.000         167.000
  23008543.683    -9071412.03149  -7047558.61946  23008544.716    23008552.521
       228.000         175.000
  23411177.457    -7456351.27049  -5119738.16146  23411176.360    23411185.633
       214.000         163.000
  20442849.908   -22449315.39049 -17473191.39448  20442849.780    20442856.321
       244.000         218.000
  20070075.272   -24729614.47149 -19240456.44648  20070074.586    20070081.732
       249.000         220.000
  23243394.805   -12373575.30049  -9080737.32846  23243393.523    23243403.644
       220.000         170.000
  23796945.775    -5523187.62249  -4000969.66445  23796944.318    23796954.883
       214.000         152.000
 00  5 13  2 18  0.0000000  0  8G21G 3G31G23G29G15G25G11
  21015893.902   -18533487.84849 -14422516.20947  21015893.500    21015900.716
       244.000         212.000
  23332873.232    -8307662.88449  -6441530.02746  23332873.718    23332886.694
       220.000         165.000
  23016696.906    -9028566.64949  -7014172.65746  23016695.953    23016707.041
       222.000         173.000
  23421797.630    -7400541.74649  -5076250.23246  23421797.917    23421806.638
       225.000         167.000
  20449110.737   -22416414.29549 -17447554.17748  20449110.705    20449117.209
       244.000         218.000
  20063764.621   -24762777.17049 -19266297.49248  20063763.745    20063771.092
       249.000         220.000
  23225089.176   -12469770.16549  -9155694.17046  23225088.556    23225099.479
       221.000         170.000
  23778164.273    -5621884.45649  -4077876.20245  23778164.989    23778172.081
       212.000         152.000
 00  5 13  2 18 30.0000000  0  8G21G 3G31G23G29G15G25G11
  21017454.713   -18525285.66049 -14416124.89347  21017454.159    21017461.540
       243.000         212.000
  23348229.390    -8226965.42649  -6378649.14946  23348230.346    23348240.190
       223.000         168.000
  23024932.607    -8985288.31549  -6980449.35946  23024933.980    23024941.776
       228.000         175.000
  23432435.653    -7344640.37849  -5032690.69246  23432436.232    23432444.172
       223.000         172.000
  20455438.388   -22383162.34949 -17421643.57048  20455438.365    20455444.805
       244.000         218.000
  20057550.663   -24795431.28849 -19291742.24148  20057550.007    20057557.244
       249.000         220.000
  23206807.761   -12565838.80449  -9230552.59746  23206807.272    23206817.991
       222.000         169.000
  23759410.222    -5720437.27849  -4154670.50145  23759409.823    23759418.722
       214.000         152.000
 00  5 13  2 19  0.0000000  0  8G21G 3G31G23G29G15G25G11
  21019049.604   -18516904.40249 -14409594.04347  21019049.295    21019056.377
       244.000         212.000
  23363617.736    -8146099.82149  -6315637.10746  23363617.404    23363631.262
       218.000         166.000
  23033250.338    -8941578.89849  -6946390.18046  23033249.413    23033260.138
       221.000         173.000
  23443090.669    -7288646.61649  -4989059.25446  23443089.597    23443100.311
       215.000         170.000
  20461832.479   -22349561.14049 -17395460.81048  20461832.368    20461838.697
       244.000         217.000
  20051433.940   -24827575.01349 -19316789.27848  20051433.282    20051440.358
       249.000         220.000
  23188550.806   -12661778.09349  -9305310.27346  23188550.541    23188560.469
       221.000         170.000
  23740684.113    -5818843.37849  -4231350.48645  23740683.017    23740691.976
       217.000         155.000
 00  5 13  2 19 30.0000000  0  8G21G 3G31G23G29G15G25G11
  21020678.805   -18508342.67349 -14402922.55747  21020678.397    21020685.619
       244.000         212.000
  23379037.591    -8065068.56849  -6252496.05546  23379039.478    23379048.892
       221.000         167.000
  23041649.606    -8897440.58049  -6911996.71046  23041648.729    23041659.631
       224.000         174.000
  23453763.338    -7232559.39749  -4945355.03046  23453763.138    23453770.248
       216.000         166.000
  20468292.782   -22315611.95449 -17369006.89748  20468292.776    20468299.136
       244.000         217.000
  20045414.708   -24859205.96349 -19341436.75048  20045413.899    20045421.140
       249.000         220.000
  23170319.380   -12757584.72349  -9379964.58646  23170319.022    23170329.817
       223.000         171.000
  23721986.463    -5917100.03349  -4307914.03245  23721986.610    23721995.274
       219.000         157.000
 00  5 13  2 20  0.0000000  0  8G21G 3G31G23G29G15G25G11
  21022342.486   -18499600.03749 -14396110.10947  21022342.065    21022349.293
       243.000         212.000
  23394488.121    -7983874.94549  -6189228.54746  23394489.762    23394500.835
       221.000         166.000
  23050129.963    -8852875.75049  -6877270.96846  23050128.808    23050139.875
       222.000         174.000
  23464454.325    -7176378.92549  -4901577.91746  23464455.206    23464464.287
       228.000         170.000
  20474818.996   -22281316.58449 -17342283.23248  20474818.988    20474825.184
       244.000         217.000
  20039493.352   -24890322.70649 -19365683.54548  20039492.608    20039499.722
       249.000         220.000
  23152113.640   -12853256.58349  -9454513.85646  23152112.326    23152122.937
       224.000         171.000
  23703317.842    -6015205.04349  -4384359.42645  23703316.795    23703326.329
       219.000         158.000
 00  5 13  2 20 30.0000000  0  8G21G 3G31G23G29G15G25G11
  21024040.500   -18490676.93249 -14389157.03047  21024039.910    21024047.218
       243.000         212.000
  23409969.080    -7902523.12149  -6125837.60645  23409968.436    23409978.335
       216.000         160.000
  23058690.969    -8807887.79349  -6842215.46746  23058691.300    23058700.646
       225.000         174.000
  23475162.987    -7120105.58049  -4857728.64246  23475160.584    23475171.752
       204.000         174.000
  20481410.486   -22246678.05049 -17315292.16748  20481410.405    20481416.597
       244.000         217.000
  20033670.107   -24920924.19749 -19389528.83848  20033669.199    20033676.694
       249.000         220.000
  23133933.828   -12948791.69449  -9528956.64046  23133933.631    23133942.833
       221.000         171.000
  23684678.111    -6113157.00649  -4460685.56645  23684676.570    23684686.488
       216.000         158.000
 00  5 13  2 21  0.0000000  0  8G21G 3G31G23G29G15G25G11
  21025773.267   -18481571.01849 -14382061.50347  21025772.920    21025780.038
       244.000         212.000
  23425479.854    -7821014.63349  -6062324.70246  23425480.807    23425491.565
       219.000         164.000
  23067332.273    -8762477.66549  -6806831.03146  23067332.968    23067341.273
       227.000         175.000
  23485889.130    -7063737.40149  -4813805.46646  23485890.696    23485895.056
       228.000         163.000
  20488067.251   -22211696.46149 -17288033.78348  20488067.116    20488073.396
       244.000         217.000
  20027945.383   -24951007.44549 -19412970.31048  20027944.572    20027951.810
       249.000         220.000
  23115780.708   -13044186.23849  -9603289.82846  23115780.538    23115789.408
       224.000         172.000
  23666068.111    -6210952.31349  -4536889.62945  23666067.043    23666075.153
       216.000         157.000
 00  5 13  2 21 30.0000000  0  8G21G 3G31G23G29G15G25G11
  21027540.587   -18472283.60849 -14374824.54647  21027540.227    21027547.458
       244.000         212.000
  23441019.312    -7739353.95949  -5998693.18945  23441020.159    23441032.216
       220.000         162.000
  23076053.232    -8716649.43349  -6771120.78546  23076052.221    23076062.484
       225.000         175.000
  23496633.940    -7007275.87049  -4769809.32746  23496634.658    23496642.623
       226.000         170.000
  20494788.556   -22176375.50349 -17260510.95748  20494788.583    20494794.762
       244.000         217.000
  20022319.325   -24980572.31949 -19436007.85248  20022318.517    20022325.974
       249.000         220.000
  23097654.500   -13139438.90549  -9677512.47146  23097653.257    23097664.619
       227.000         174.000
  23647488.210    -6308590.24449  -4612971.03045  23647487.405    23647497.043
       215.000         156.000
 00  5 13  2 22  0.0000000  0  8G21G 3G31G23G29G15G25G11
  21029342.787   -18462812.98249 -14367444.82247  21029342.039    21029349.430
       243.000         211.000
  23456587.596    -7657543.31649  -5934944.83645  23456587.572    23456598.289
       218.000         161.000
  23084853.175    -8670404.64749  -6735085.95946  23084853.439    23084862.933
       226.000         173.000
  23507396.272    -6950719.00649  -4725739.13746  23507393.850    23507405.413
       210.000         166.000
  20501574.403   -22140715.71149 -17232724.10848  20501574.385    20501580.739
       244.000         217.000
  20016792.504   -25009615.77749 -19458639.09548  20016791.783    20016799.004
       249.000         220.000
  23079556.045   -13234545.79649  -9751621.55946  23079554.637    23079565.503
       222.000         176.000
  23628938.816    -6406067.17349  -4688926.98345  23628937.027    23628947.330
       215.000         158.000
 00  5 13  2 22 30.0000000  0  8G21G 3G31G23G29G15G25G11
  21031180.197   -18453157.12349 -14359920.76447  21031179.797    21031187.024
       244.000         211.000
  23472184.016    -7575584.64349  -5871081.09846  23472183.046    23472196.716
       215.000         163.000
  23093732.461    -8623744.57849  -6698727.51846  23093731.552    23093742.387
       224.000         174.000
  23518176.970    -6894065.70949  -4681593.78746  23518178.044    23518186.907
       230.000         178.000
  20508424.593   -22104717.76749 -17204673.76348  20508424.583    20508430.937
       244.000         217.000
  20011365.434   -25038135.12249 -19480861.94548  20011364.581    20011371.964
       249.000         220.000
  23061486.113   -13329503.28549  -9825614.21446  23061486.565    23061495.775
       225.000         177.000
  23610420.615    -6503379.75649  -4764754.90445  23610420.616    23610429.050
       220.000         161.000
 00  5 13  2 23  0.0000000  0  8G21G 3G31G23G29G15G25G11
  21033052.578   -18443317.72249 -14352253.68147  21033052.151    21033059.351
       243.000         211.000
  23487807.447    -7493483.07649  -5807106.04945  23487808.618    23487818.127
       220.000         162.000
  23102689.811    -8576674.10849  -6662049.28246  23102690.760    23102698.993
       228.000         174.000
  23528976.160    -6837318.00049  -4637374.80446  23528976.479    23528985.119
       223.000         180.000
  20515338.269   -22068386.08049 -17176363.35248  20515338.187    20515344.608
       244.000         217.000
  20006037.934   -25066131.02549 -19502676.91348  20006037.209    20006044.320
       249.000         220.000
  23043444.794   -13424310.57349  -9899489.82546  23043444.725    23043453.304
       228.000         175.000
  23591933.858    -6600528.06949  -4840454.82446  23591933.764    23591942.609
       219.000         163.000
 00  5 13  2 23 30.0000000  0  8G21G 3G31G23G29G15G25G11
  21034960.280   -18433292.56749 -14344441.85647  21034959.760    21034966.833
       243.000         211.000
  23503457.858    -7411240.24549  -5743020.93045  23503459.224    23503469.159
       220.000         160.000
  23111724.961    -8529193.88449  -6625051.77246  23111724.226    23111734.444
       222.000         172.000
  23539793.025    -6780473.49649  -4593080.32745  23539791.252    23539800.131
       209.000         160.000
  20522315.494   -22031720.54649 -17147792.80448  20522315.497    20522321.760
       245.000         217.000
  20000810.720   -25093599.82949 -19524081.15948  20000810.177    20000817.202
       249.000         220.000
  23025432.684   -13518963.84649  -9973245.42446  23025432.205    23025441.713
       228.000         174.000
  23573479.134    -6697507.81549  -4916023.37846  23573478.930    23573488.260
       221.000         163.000
 00  5 13  2 24  0.0000000  0  8G21G 3G31G23G29G15G25G11
  21036903.585   -18423080.23349 -14336484.17947  21036903.135    21036910.361
       243.000         211.000
  23519134.998    -7328858.82349  -5678827.70746  23519134.262    23519146.109
       218.000         163.000
  23120837.737    -8481305.90149  -6587736.53846  23120837.917    23120846.622
       227.000         173.000
  23550628.475    -6723531.61649  -4548710.11546  23550628.659    23550637.731
       221.000         168.000
  20529355.985   -21994722.58349 -17118963.21848  20529355.883    20529362.118
       245.000         217.000
  19995684.270   -25120539.48549 -19545073.08148  19995683.576    19995690.754
       249.000         220.000
  23007450.625   -13613459.61249 -10046878.29946  23007449.394    23007459.554
       225.000         174.000
  23555057.281    -6794316.23449  -4991458.44445  23555056.174    23555065.691
       219.000         162.000
 00  5 13  2 24 30.0000000  0  8G21G 3G31G23G29G15G25G11
  21038883.315   -18412676.50349 -14328377.36047  21038882.844    21038890.227
       243.000         211.000
  23534838.199    -7246337.98049  -5614525.97346  23534838.830    23534851.173
       219.000         163.000
  23130028.472    -8433008.99549  -6550102.62546  23130027.425    23130038.349
       220.000         173.000
  23561483.667    -6666488.23049  -4504260.73246  23561483.544    23561491.097
       219.000         167.000
  20536460.034   -21957390.42349 -17089873.22148  20536459.945    20536466.303
       244.000         217.000
  19990659.473   -25146944.80149 -19565648.63248  19990658.635    19990666.120
       248.000         220.000
  22989499.527   -13707791.69849 -10120383.63146  22989498.062    22989507.680
       225.000         174.000
  23536668.773    -6890947.32949  -5066755.32045  23536668.463    23536678.072
       221.000         162.000
 00  5 13  2 25  0.0000000  0  8G21G 3G31G23G29G15G25G11
  21040896.965   -18402094.85349 -14320131.90647  21040896.670    21040903.730
       243.000         211.000
  23550564.799    -7163694.86849  -5550128.94845  23550564.473    23550577.849
       215.000         162.000
  23139293.618    -8384319.89049  -6512163.13846  23139292.961    23139303.589
       222.000         174.000
  23572355.348    -6609357.05849  -4459742.91046  23572354.049    23572365.250
       212.000         164.000
  20543624.666   -21919739.67049 -17060534.96748  20543624.655    20543630.876
       244.000         217.000
  19985733.955   -25172828.09749 -19585817.41848  19985733.225    19985740.570
       249.000         220.000
  22971577.629   -13801971.37749 -10193770.22046  22971576.948    22971586.685
       225.000         175.000
  23518312.026    -6987412.72249  -5141923.09545  23518311.362    23518320.133
       220.000         162.000
 00  5 13  2 25 30.0000000  0  8G21G 3G31G23G29G15G25G11
  21042946.765   -18391322.80949 -14311738.09547  21042946.411    21042953.873
       244.000         212.000
  23566316.320    -7080920.51449  -5485629.58845  23566317.218    23566329.349
       221.000         161.000
  23148635.314    -8335228.96749  -6473910.51646  23148634.914    23148644.773
       221.000         172.000
  23583245.934    -6552125.45549  -4415146.98046  23583245.989    23583255.028
       218.000         165.000
  20550851.870   -21881760.47949 -17030940.78848  20550851.901    20550858.320
       244.000         217.000
  19980910.413   -25198175.79749 -19605568.86048  19980910.014    19980917.050
       249.000         220.000
  22953687.523   -13895983.90049 -10267026.53646  22953687.613    22953696.593
       228.000         176.000
  23499989.425    -7083697.85849  -5216950.41046  23499989.306    23499998.264
       221.000         164.000
 00  5 13  2 26  0.0000000  0  8G21G 3G31G23G29G15G25G11
  21045032.600   -18380361.48749 -14303196.79447  21045032.008    21045039.452
       243.000         211.000
  23582091.981    -6998020.27449  -5421032.23846  23582091.728    23582105.054
       216.000         163.000
  23158052.558    -8285740.83749  -6435348.39746  23158052.924    23158063.678
       222.000         173.000
  23594155.611    -6494795.52949  -4370474.20946  23594155.406    23594163.322
       220.000         163.000
  20558140.831   -21843456.61649 -17001093.61548  20558140.815    20558147.195
       244.000         217.000
  19976188.747   -25222988.37049 -19624903.31248  19976188.193    19976195.525
       249.000         220.000
  22935829.246   -13989829.20449 -10340152.54146  22935827.897    22935838.282
       226.000         177.000
  23481701.378    -7179802.57249  -5291837.11846  23481700.137    23481709.710
       219.000         163.000
 00  5 13  2 26 30.0000000  0  8G21G 3G31G23G29G15G25G11
  21047154.667   -18369209.89649 -14294507.23447  21047154.118    21047161.427
       243.000         211.000
  23597890.984    -6914996.65249  -5356338.65146  23597891.720    23597903.371
       219.000         163.000
  23167545.045    -8235857.86949  -6396478.61446  23167545.702    23167554.890
       222.000         172.000
  23605083.986    -6437366.12249  -4325724.07845  23605082.332    23605092.663
       209.000         162.000
  20565491.273   -21804829.69749 -16970994.71048  20565491.247    20565497.651
       244.000         217.000
  19971569.249   -25247263.90649 -19643819.30248  19971568.721    19971575.885
       249.000         221.000
  22918003.330   -14083503.69349 -10413145.46546  22918002.897    22918012.692
       228.000         177.000
  23463447.899    -7275724.21249  -5366581.15246  23463448.143    23463456.033
       220.000         164.000
 00  5 13  2 27  0.0000000  0  8G21G 3G31G23G29G15G25G11
  21049313.111   -18357867.11649 -14285668.70347  21049312.684    21049320.006
       244.000         212.000
  23613712.915    -6831852.79949  -5291551.40745  23613714.616    23613724.499
       220.000         161.000
  23177112.251    -8185582.72849  -6357303.22446  23177111.330    23177120.943
       224.000         172.000
  23616031.223    -6379837.02549  -4280896.33945  23616030.872    23616040.429
       213.000         160.000
  20572902.878   -21765881.50649 -16940645.46848  20572902.866    20572909.108
       245.000         217.000
  19967052.262   -25271000.92549 -19662315.67048  19967051.688    19967058.793
       249.000         221.000
  22900210.516   -14177004.83149 -10486003.31746  22900209.495    22900220.178
       225.000         178.000
  23445229.864    -7371460.34749  -5441180.63446  23445229.665    23445238.204
       222.000         165.000
 00  5 13  2 27 30.0000000  0  8G21G 3G31G23G29G15G25G11
  21051507.728   -18346334.39949 -14276682.16847  21051507.315    21051514.670
       243.000         212.000
  23629556.745    -6748593.28849  -5226674.09345  23629556.279    23629567.711
       214.000         159.000
  23186753.345    -8134919.24349  -6317825.23546  23186752.775    23186762.912
       222.000         173.000
  23626997.622    -6322209.48249  -4235991.65645  23626998.000    23627004.779
       222.000         153.000
  20580374.973   -21726615.28949 -16910048.40948  20580374.833    20580381.311
       244.000         217.000
  19962637.719   -25294199.38749 -19680392.38048  19962637.094    19962644.353
       249.000         221.000
  22882450.960   -14270331.44649 -10558725.16246  22882450.059    22882460.008
       229.000         178.000
  23427047.487    -7467009.98849  -5515634.81746  23427046.803    23427054.999
       224.000         168.000
 00  5 13  2 28  0.0000000  0  8G21G 3G31G23G29G15G25G11
  21053738.909   -18334609.48349 -14267545.86947  21053738.520    21053745.743
       244.000         211.000
  23645422.123    -6665220.26349  -5161708.23445  23645422.015    23645435.956
       216.000         159.000
  23196467.851    -8083869.25949  -6278046.07746  23196467.939    23196477.059
       222.000         171.000
  23637983.013    -6264481.97649  -4191009.17946  23637983.115    23637991.766
       218.000         164.000
  20587907.409   -21687031.94849 -16879204.24548  20587907.298    20587913.659
       244.000         217.000
  19958326.249   -25316856.40949 -19698047.18748  19958325.689    19958332.859
       250.000         221.000
  22864725.380   -14363479.82749 -10631308.14546  22864725.430    22864734.611
       227.000         179.000
  23408900.953    -7562369.96649  -5589941.19946  23408900.965    23408908.992
       224.000         170.000
 00  5 13  2 28 30.0000000  0  8G21G 3G31G23G29G15G25G11
  21056006.662   -18322692.42949 -14258259.85347  21056006.330    21056013.386
       244.000         211.000
  23661308.788    -6581737.11849  -5096656.62846  23661310.116    23661321.707
       219.000         165.000
  23206255.488    -8032435.86049  -6237968.14346  23206254.994    23206265.518
       223.000         174.000
  23648987.051    -6206654.60549  -4145948.99945  23648984.509    23648996.101
       204.000         159.000
  20595499.737   -21647133.89449 -16848114.84548  20595499.782    20595506.100
       244.000         217.000
  19954117.978   -25338970.95749 -19715279.28948  19954117.172    19954124.406
       249.000         221.000
  22847033.990   -14456447.57649 -10703750.36646  22847033.838    22847042.602
       228.000         180.000
  23390791.044    -7657538.16949  -5664098.14746  23390789.783    23390798.331
       223.000         170.000
 00  5 13  2 29  0.0000000  0  8G21G 3G31G23G29G15G25G11
  21058311.301   -18310581.45049 -14248822.72747  21058310.865    21058318.246
       243.000         211.000
  23677215.748    -6498145.43649  -5031520.42445  23677215.605    23677227.784
       217.000         159.000
  23216115.534    -7980620.30549  -6197592.42946  23216114.179    23216124.026
       221.000         171.000
  23660010.253    -6148725.65949  -4100809.56045  23660010.486    23660019.018
       217.000         157.000
  20603151.899   -21606921.53749 -16816780.53848  20603151.925    20603158.215
       244.000         217.000
  19950013.442   -25360540.35349 -19732086.60048  19950012.834    19950019.822
       249.000         221.000
  22829377.692   -14549231.08549 -10776049.01046  22829377.261    22829386.709
       227.000         180.000
  23372718.326    -7752510.93149  -5738102.79746  23372717.394    23372725.349
       220.000         167.000
 00  5 13  2 29 30.0000000  0  8G21G 3G31G23G29G15G25G11
  21060652.862   -18298276.26149 -14239234.26547  21060652.214    21060659.733
       243.000         211.000
  23693142.776    -6414449.24949  -4966302.81945  23693142.649    23693155.532
       217.000         162.000
  23226047.750    -7928426.02149  -6156921.60446  23226047.502    23226057.483
       224.000         172.000
  23671053.277    -6090695.40949  -4055591.18245  23671052.951    23671062.550
       213.000         160.000
  20610863.343   -21566397.70449 -16785203.52748  20610863.336    20610869.548
       245.000         216.000
  19946012.797   -25381563.96249 -19748468.61948  19946012.133    19946019.205
       249.000         221.000
  22811756.930   -14641828.21449 -10848202.46746  22811756.480    22811766.255
       226.000         180.000
  23354682.982    -7847286.47649  -5811953.77046  23354682.360    23354689.585
       217.000         163.000
 00  5 13  2 30  0.0000000  0  8G21G 3G31G23G29G15G25G11
  21063031.451   -18285776.62149 -14229494.28647  21063030.917    21063038.229
       243.000         211.000
  23709088.980    -6330651.83149  -4901006.27945  23709088.699    23709100.383
       215.000         159.000
  23236051.589    -7875855.91249  -6115957.92746  23236051.216    23236060.148
       221.000         171.000
  23682115.387    -6032563.72349  -4010293.86545  23682114.903    23682124.126
       209.000         157.000
  20618633.738   -21525564.23149 -16753385.23348  20618633.867    20618639.772
       244.000         216.000
  19942116.223   -25402040.60549 -19764424.43348  19942115.581    19942122.843
       249.000         221.000
  22794172.039   -14734236.55949 -10920208.77246  22794172.123    22794181.591
       229.000         181.000
  23336685.452    -7941862.77449  -5885649.48445  23336684.320    23336692.410
       218.000         159.000
 00  5 13  2 30 30.0000000  0  8G21G 3G31G23G29G15G25G11
  21065447.384   -18273080.91549 -14219601.52947  21065446.795    21065454.257
       244.000         211.000
  23725053.842    -6246755.46649  -4835632.67045  23725055.046    23725067.484
       217.000         158.000
  23246126.511    -7822911.82649  -6074702.82146  23246126.432    23246136.538
       221.000         171.000
  23693196.985    -5974329.67449  -3964916.65145  23693197.631    23693203.209
       216.000         150.000
  20626462.720   -21484422.40349 -16721326.67448  20626462.497    20626469.081
       244.000         216.000
  19938324.090   -25421968.15549 -19779952.38348  19938323.266    19938330.605
       249.000         221.000
  22776623.736   -14826452.60949 -10992065.27946  22776622.782    22776632.839
       227.000         181.000
  23318726.689    -8036236.67049  -5959187.48445  23318726.182    23318734.512
       219.000         161.000
 00  5 13  2 31  0.0000000  0  8G21G 3G31G23G29G15G25G11
  21067900.304   -18260190.36149 -14209556.93647  21067899.756    21067907.142
       243.000         211.000
  23741037.087    -6162764.59049  -4770185.49245  23741038.331    23741047.573
       219.000         160.000
  23256271.886    -7769597.71049  -6033159.44046  23256272.518    23256280.806
       222.000         170.000
  23704297.920    -5915994.24349  -3919460.38145  23704297.746    23704306.693
       210.000         148.000
  20634349.762   -21442975.47449 -16689030.36848  20634349.767    20634356.158
       244.000         216.000
  19934636.501   -25441346.33449 -19795052.25148  19934635.789    19934643.142
       249.000         221.000
  22759112.263   -14918475.19149 -11063771.01846  22759111.875    22759121.530
       231.000         180.000
  23300806.519    -8130407.14849  -6032566.97546  23300806.178    23300814.251
       221.000         165.000
 00  5 13  2 31 30.0000000  0  8G21G 3G31G23G29G15G25G11
  21070390.781   -18247102.62249 -14199358.69147  21070390.642    21070397.481
       244.000         211.000
  23757037.761    -6078681.05149  -4704665.98345  23757038.015    23757050.075
       212.000         156.000
  23266487.450    -7715915.22949  -5991328.97446  23266486.117    23266496.684
       221.000         171.000
  23715418.404    -5857555.85149  -3873924.08445  23715418.098    23715427.637
       213.000         156.000
  20642294.754   -21401224.19349 -16656496.90848  20642294.897    20642301.192
       245.000         216.000
  19931053.924   -25460172.84449 -19809722.24848  19931053.389    19931060.360
       249.000         221.000
  22741638.410   -15010300.59149 -11135323.11646  22741637.722    22741646.209
       227.000         180.000
  23282925.682    -8224370.42249  -6105785.00546  23282926.076    23282933.754
       222.000         167.000
 00  5 13  2 32  0.0000000  0  8G21G 3G31G23G29G15G25G11
  21072919.016   -18233816.88249 -14189006.16247  21072918.462    21072926.029
       243.000         211.000
  23773055.386    -5994508.32949  -4639077.10345  23773056.975    23773067.832
       221.000         162.000
  23276772.315    -7661867.58349  -5949213.98346  23276771.906    23276781.093
       223.000         171.000
  23726558.457    -5799014.56849  -3828307.55145  23726556.946    23726567.169
       207.000         157.000
  20650297.268   -21359170.80749 -16623728.04748  20650297.287    20650303.396
       244.000         216.000
  19927576.487   -25478446.62349 -19823961.54348  19927575.826    19927582.889
       249.000         221.000
  22724202.361   -15101926.64149 -11206719.88446  22724201.942    22724210.712
       226.000         181.000
  23265084.934    -8318124.31849  -6178839.89046  23265084.737    23265092.524
       221.000         166.000
 00  5 13  2 32 30.0000000  0  8G21G 3G31G23G29G15G25G11
  21075484.910   -18220332.65449 -14178498.96547  21075484.416    21075491.807
       243.000         211.000
  23789089.453    -5910249.40349  -4573420.93945  23789089.906    23789101.702
       216.000         155.000
  23287126.326    -7607457.46749  -5906816.54846  23287125.239    23287134.900
       221.000         170.000
  23737717.774    -5740369.50049  -3782610.21145  23737717.980    23737725.675
       203.000         143.000
  20658356.970   -21316816.78649 -16590724.92148  20658356.937    20658363.277
       245.000         216.000
  19924204.540   -25496165.95349 -19837768.80048  19924203.881    19924211.082
       249.000         221.000
  22706804.760   -15193350.41949 -11277959.02546  22706803.937    22706813.255
       230.000         181.000
  23247284.582    -8411666.10749  -6251729.50446  23247283.301    23247292.468
       221.000         166.000
 00  5 13  2 33  0.0000000  0  8G21G 3G31G23G29G15G25G11
  21078088.742   -18206649.26249 -14167836.57347  21078088.413    21078095.692
       243.000         211.000
  23805139.680    -5825906.74949  -4507699.58846  23805140.074    23805153.825
       218.000         166.000
  23297548.749    -7552686.99049  -5864138.31446  23297548.573    23297558.309
       222.000         169.000
  23748897.546    -5681620.38749  -3736831.57145  23748897.390    23748905.856
       220.000         145.000
  20666473.526   -21274163.98749 -16557488.98148  20666473.488    20666479.721
       244.000         216.000
  19920938.447   -25513329.28349 -19851142.80648  19920937.852    19920945.251
       248.000         221.000
  22689446.344   -15284568.87249 -11349038.18646  22689445.144    22689454.643
       227.000         181.000
  23229524.954    -8504993.41149  -6324451.98646  23229524.105    23229532.846
       222.000         166.000
 00  5 13  2 33 30.0000000  0  8G21G 3G31G23G29G15G25G11
  21080730.422   -18192767.28349 -14157019.43947  21080730.124    21080737.369
       243.000         211.000
  23821204.771    -5741484.56349  -4441916.33245  23821204.303    23821217.223
       217.000         159.000
  23308039.058    -7497560.37749  -5821182.57746  23308038.671    23308047.829
       223.000         172.000
  23760097.078    -5622768.10949  -3690972.61845  23760097.337    23760106.366
       220.000         156.000
  20674646.375   -21231215.38949 -16524022.54848  20674646.490    20674652.728
       244.000         216.000
  19917778.240   -25529936.68449 -19864083.62048  19917777.709    19917784.813
       249.000         221.000
  22672127.211   -15375580.91549 -11419956.48846  22672127.033    22672135.716
       229.000         182.000
  23211806.413    -8598105.15249  -6397006.49246  23211805.951    23211814.073
       221.000         167.000
 00  5 13  2 34  0.0000000  0  8G21G 3G31G23G29G15G25G11
  21083410.509   -18178683.25849 -14146044.86947  21083410.029    21083417.580
       242.000         210.000
  23837284.864    -5656984.13249  -4376071.90146  23837284.931    23837298.643
       217.000         163.000
  23318597.011    -7442078.27849  -5777949.82646  23318595.922    23318605.800
       224.000         170.000
  23771316.350    -5563810.24649  -3645031.46645  23771315.121    23771323.739
       210.000         152.000
  20682875.518   -21187970.99749 -16490325.62948  20682875.523    20682881.906
       244.000         216.000
  19914724.350   -25545984.87849 -19876588.69048  19914723.724    19914731.104
       249.000         221.000
  22654848.172   -15466382.00449 -11490710.42946  22654847.835    22654857.029
       229.000         183.000
  23194129.526    -8690997.09049  -6469389.70546  23194128.629    23194137.588
       220.000         167.000
